<?xml version="1.0" encoding="UTF-8" standalone="no" ?>
<gpx xmlns="http://www.topografix.com/GPX/1/1" xmlns:xsi="http://www.w3.org/2001/XMLSchema-instance" xsi:schemaLocation="http://www.topografix.com/GPX/1/1 http://www.topografix.com/GPX/1/1/gpx.xsd" version="1.1" creator="VisuGPX - https://www.visugpx.com">
  <metadata>
    <name>La sauve - Créon- Saint Genes de Lombeaud - Blesignac</name>
    <desc><![CDATA[Randonnée VTT]]></desc>
  </metadata>
  <trk>
    <name><![CDATA[Colinneau JP]]></name>
    <trkseg>
      <trkpt lat="44.75519" lon="-0.31249">
        <ele>101</ele>
        <time>2013-07-28T12:20:04Z</time>
      </trkpt>
      <trkpt lat="44.75523" lon="-0.31253">
        <ele>102</ele>
        <time>2013-07-28T12:20:16Z</time>
      </trkpt>
      <trkpt lat="44.75524" lon="-0.31254">
        <ele>102</ele>
        <time>2013-07-28T12:20:18Z</time>
      </trkpt>
      <trkpt lat="44.75528" lon="-0.31257">
        <ele>102</ele>
        <time>2013-07-28T12:20:22Z</time>
      </trkpt>
      <trkpt lat="44.75545" lon="-0.31254">
        <ele>102</ele>
        <time>2013-07-28T12:20:33Z</time>
      </trkpt>
      <trkpt lat="44.75555" lon="-0.31247">
        <ele>103</ele>
        <time>2013-07-28T12:20:38Z</time>
      </trkpt>
      <trkpt lat="44.75559" lon="-0.31253">
        <ele>103</ele>
        <time>2013-07-28T12:20:43Z</time>
      </trkpt>
      <trkpt lat="44.75564" lon="-0.31263">
        <ele>103</ele>
        <time>2013-07-28T12:20:48Z</time>
      </trkpt>
      <trkpt lat="44.75582" lon="-0.31269">
        <ele>103</ele>
        <time>2013-07-28T12:20:58Z</time>
      </trkpt>
      <trkpt lat="44.75599" lon="-0.31279">
        <ele>102</ele>
        <time>2013-07-28T12:21:04Z</time>
      </trkpt>
      <trkpt lat="44.75628" lon="-0.31294">
        <ele>102</ele>
        <time>2013-07-28T12:21:10Z</time>
      </trkpt>
      <trkpt lat="44.75637" lon="-0.31299">
        <ele>102</ele>
        <time>2013-07-28T12:21:12Z</time>
      </trkpt>
      <trkpt lat="44.75646" lon="-0.31306">
        <ele>102</ele>
        <time>2013-07-28T12:21:14Z</time>
      </trkpt>
      <trkpt lat="44.75651" lon="-0.31308">
        <ele>102</ele>
        <time>2013-07-28T12:21:15Z</time>
      </trkpt>
      <trkpt lat="44.75655" lon="-0.31309">
        <ele>102</ele>
        <time>2013-07-28T12:21:16Z</time>
      </trkpt>
      <trkpt lat="44.7566" lon="-0.31309">
        <ele>102</ele>
        <time>2013-07-28T12:21:17Z</time>
      </trkpt>
      <trkpt lat="44.75664" lon="-0.31309">
        <ele>102</ele>
        <time>2013-07-28T12:21:18Z</time>
      </trkpt>
      <trkpt lat="44.75668" lon="-0.31309">
        <ele>102</ele>
        <time>2013-07-28T12:21:19Z</time>
      </trkpt>
      <trkpt lat="44.75713" lon="-0.31313">
        <ele>104</ele>
        <time>2013-07-28T12:21:30Z</time>
      </trkpt>
      <trkpt lat="44.75754" lon="-0.31319">
        <ele>105</ele>
        <time>2013-07-28T12:21:40Z</time>
      </trkpt>
      <trkpt lat="44.7578" lon="-0.31324">
        <ele>107</ele>
        <time>2013-07-28T12:21:48Z</time>
      </trkpt>
      <trkpt lat="44.75807" lon="-0.31329">
        <ele>108</ele>
        <time>2013-07-28T12:21:58Z</time>
      </trkpt>
      <trkpt lat="44.75836" lon="-0.31335">
        <ele>109</ele>
        <time>2013-07-28T12:22:07Z</time>
      </trkpt>
      <trkpt lat="44.75863" lon="-0.31338">
        <ele>110</ele>
        <time>2013-07-28T12:22:15Z</time>
      </trkpt>
      <trkpt lat="44.75889" lon="-0.31342">
        <ele>110</ele>
        <time>2013-07-28T12:22:23Z</time>
      </trkpt>
      <trkpt lat="44.75924" lon="-0.31349">
        <ele>110</ele>
        <time>2013-07-28T12:22:33Z</time>
      </trkpt>
      <trkpt lat="44.75968" lon="-0.31361">
        <ele>110</ele>
        <time>2013-07-28T12:22:45Z</time>
      </trkpt>
      <trkpt lat="44.7601" lon="-0.31367">
        <ele>110</ele>
        <time>2013-07-28T12:22:57Z</time>
      </trkpt>
      <trkpt lat="44.76023" lon="-0.31375">
        <ele>110</ele>
        <time>2013-07-28T12:23:02Z</time>
      </trkpt>
      <trkpt lat="44.76023" lon="-0.3138">
        <ele>109</ele>
        <time>2013-07-28T12:23:03Z</time>
      </trkpt>
      <trkpt lat="44.76019" lon="-0.31426">
        <ele>108</ele>
        <time>2013-07-28T12:23:11Z</time>
      </trkpt>
      <trkpt lat="44.76012" lon="-0.31482">
        <ele>107</ele>
        <time>2013-07-28T12:23:20Z</time>
      </trkpt>
      <trkpt lat="44.76004" lon="-0.31553">
        <ele>107</ele>
        <time>2013-07-28T12:23:31Z</time>
      </trkpt>
      <trkpt lat="44.75993" lon="-0.3164">
        <ele>108</ele>
        <time>2013-07-28T12:23:45Z</time>
      </trkpt>
      <trkpt lat="44.75987" lon="-0.31657">
        <ele>108</ele>
        <time>2013-07-28T12:23:48Z</time>
      </trkpt>
      <trkpt lat="44.75961" lon="-0.317">
        <ele>109</ele>
        <time>2013-07-28T12:23:57Z</time>
      </trkpt>
      <trkpt lat="44.75947" lon="-0.31741">
        <ele>109</ele>
        <time>2013-07-28T12:24:04Z</time>
      </trkpt>
      <trkpt lat="44.75934" lon="-0.31806">
        <ele>107</ele>
        <time>2013-07-28T12:24:14Z</time>
      </trkpt>
      <trkpt lat="44.7593" lon="-0.31881">
        <ele>107</ele>
        <time>2013-07-28T12:24:25Z</time>
      </trkpt>
      <trkpt lat="44.75934" lon="-0.31973">
        <ele>108</ele>
        <time>2013-07-28T12:24:39Z</time>
      </trkpt>
      <trkpt lat="44.75931" lon="-0.32046">
        <ele>107</ele>
        <time>2013-07-28T12:24:50Z</time>
      </trkpt>
      <trkpt lat="44.75926" lon="-0.32124">
        <ele>107</ele>
        <time>2013-07-28T12:25:02Z</time>
      </trkpt>
      <trkpt lat="44.75916" lon="-0.32198">
        <ele>107</ele>
        <time>2013-07-28T12:25:13Z</time>
      </trkpt>
      <trkpt lat="44.75893" lon="-0.32262">
        <ele>107</ele>
        <time>2013-07-28T12:25:23Z</time>
      </trkpt>
      <trkpt lat="44.75875" lon="-0.32321">
        <ele>106</ele>
        <time>2013-07-28T12:25:32Z</time>
      </trkpt>
      <trkpt lat="44.7586" lon="-0.324">
        <ele>105</ele>
        <time>2013-07-28T12:25:43Z</time>
      </trkpt>
      <trkpt lat="44.75845" lon="-0.32476">
        <ele>105</ele>
        <time>2013-07-28T12:25:53Z</time>
      </trkpt>
      <trkpt lat="44.75824" lon="-0.32544">
        <ele>104</ele>
        <time>2013-07-28T12:26:03Z</time>
      </trkpt>
      <trkpt lat="44.75802" lon="-0.32611">
        <ele>102</ele>
        <time>2013-07-28T12:26:13Z</time>
      </trkpt>
      <trkpt lat="44.7578" lon="-0.32674">
        <ele>101</ele>
        <time>2013-07-28T12:26:23Z</time>
      </trkpt>
      <trkpt lat="44.75758" lon="-0.32741">
        <ele>102</ele>
        <time>2013-07-28T12:26:34Z</time>
      </trkpt>
      <trkpt lat="44.75732" lon="-0.32788">
        <ele>104</ele>
        <time>2013-07-28T12:26:43Z</time>
      </trkpt>
      <trkpt lat="44.75722" lon="-0.32801">
        <ele>105</ele>
        <time>2013-07-28T12:26:46Z</time>
      </trkpt>
      <trkpt lat="44.7569" lon="-0.32827">
        <ele>106</ele>
        <time>2013-07-28T12:26:55Z</time>
      </trkpt>
      <trkpt lat="44.75687" lon="-0.32836">
        <ele>106</ele>
        <time>2013-07-28T12:26:58Z</time>
      </trkpt>
      <trkpt lat="44.7569" lon="-0.32845">
        <ele>107</ele>
        <time>2013-07-28T12:27:00Z</time>
      </trkpt>
      <trkpt lat="44.75692" lon="-0.32848">
        <ele>107</ele>
        <time>2013-07-28T12:27:01Z</time>
      </trkpt>
      <trkpt lat="44.75695" lon="-0.32852">
        <ele>107</ele>
        <time>2013-07-28T12:27:02Z</time>
      </trkpt>
      <trkpt lat="44.75724" lon="-0.32885">
        <ele>107</ele>
        <time>2013-07-28T12:27:11Z</time>
      </trkpt>
      <trkpt lat="44.75754" lon="-0.32911">
        <ele>107</ele>
        <time>2013-07-28T12:27:19Z</time>
      </trkpt>
      <trkpt lat="44.75758" lon="-0.32913">
        <ele>107</ele>
        <time>2013-07-28T12:27:20Z</time>
      </trkpt>
      <trkpt lat="44.75762" lon="-0.32915">
        <ele>107</ele>
        <time>2013-07-28T12:27:21Z</time>
      </trkpt>
      <trkpt lat="44.75806" lon="-0.32925">
        <ele>107</ele>
        <time>2013-07-28T12:27:31Z</time>
      </trkpt>
      <trkpt lat="44.75809" lon="-0.32928">
        <ele>107</ele>
        <time>2013-07-28T12:27:32Z</time>
      </trkpt>
      <trkpt lat="44.75813" lon="-0.32932">
        <ele>107</ele>
        <time>2013-07-28T12:27:33Z</time>
      </trkpt>
      <trkpt lat="44.75815" lon="-0.32938">
        <ele>107</ele>
        <time>2013-07-28T12:27:34Z</time>
      </trkpt>
      <trkpt lat="44.75817" lon="-0.32945">
        <ele>107</ele>
        <time>2013-07-28T12:27:35Z</time>
      </trkpt>
      <trkpt lat="44.75818" lon="-0.32951">
        <ele>107</ele>
        <time>2013-07-28T12:27:36Z</time>
      </trkpt>
      <trkpt lat="44.75818" lon="-0.32957">
        <ele>107</ele>
        <time>2013-07-28T12:27:37Z</time>
      </trkpt>
      <trkpt lat="44.7582" lon="-0.32969">
        <ele>107</ele>
        <time>2013-07-28T12:27:39Z</time>
      </trkpt>
      <trkpt lat="44.75831" lon="-0.33022">
        <ele>106</ele>
        <time>2013-07-28T12:27:48Z</time>
      </trkpt>
      <trkpt lat="44.75833" lon="-0.33028">
        <ele>106</ele>
        <time>2013-07-28T12:27:49Z</time>
      </trkpt>
      <trkpt lat="44.75835" lon="-0.33033">
        <ele>106</ele>
        <time>2013-07-28T12:27:50Z</time>
      </trkpt>
      <trkpt lat="44.75841" lon="-0.33041">
        <ele>106</ele>
        <time>2013-07-28T12:27:52Z</time>
      </trkpt>
      <trkpt lat="44.75857" lon="-0.3305">
        <ele>106</ele>
        <time>2013-07-28T12:27:56Z</time>
      </trkpt>
      <trkpt lat="44.75861" lon="-0.33054">
        <ele>106</ele>
        <time>2013-07-28T12:27:57Z</time>
      </trkpt>
      <trkpt lat="44.75887" lon="-0.33084">
        <ele>106</ele>
        <time>2013-07-28T12:28:06Z</time>
      </trkpt>
      <trkpt lat="44.75906" lon="-0.33108">
        <ele>106</ele>
        <time>2013-07-28T12:28:14Z</time>
      </trkpt>
      <trkpt lat="44.75919" lon="-0.33138">
        <ele>106</ele>
        <time>2013-07-28T12:28:23Z</time>
      </trkpt>
      <trkpt lat="44.75927" lon="-0.33167">
        <ele>105</ele>
        <time>2013-07-28T12:28:32Z</time>
      </trkpt>
      <trkpt lat="44.75936" lon="-0.33196">
        <ele>105</ele>
        <time>2013-07-28T12:28:38Z</time>
      </trkpt>
      <trkpt lat="44.75946" lon="-0.33241">
        <ele>105</ele>
        <time>2013-07-28T12:28:45Z</time>
      </trkpt>
      <trkpt lat="44.75954" lon="-0.33273">
        <ele>105</ele>
        <time>2013-07-28T12:28:50Z</time>
      </trkpt>
      <trkpt lat="44.75956" lon="-0.33324">
        <ele>105</ele>
        <time>2013-07-28T12:28:57Z</time>
      </trkpt>
      <trkpt lat="44.75956" lon="-0.33338">
        <ele>104</ele>
        <time>2013-07-28T12:28:59Z</time>
      </trkpt>
      <trkpt lat="44.75956" lon="-0.33392">
        <ele>103</ele>
        <time>2013-07-28T12:29:08Z</time>
      </trkpt>
      <trkpt lat="44.75957" lon="-0.33433">
        <ele>102</ele>
        <time>2013-07-28T12:29:15Z</time>
      </trkpt>
      <trkpt lat="44.75956" lon="-0.33471">
        <ele>102</ele>
        <time>2013-07-28T12:29:21Z</time>
      </trkpt>
      <trkpt lat="44.75955" lon="-0.33477">
        <ele>101</ele>
        <time>2013-07-28T12:29:22Z</time>
      </trkpt>
      <trkpt lat="44.7595" lon="-0.33521">
        <ele>101</ele>
        <time>2013-07-28T12:29:29Z</time>
      </trkpt>
      <trkpt lat="44.75944" lon="-0.33579">
        <ele>101</ele>
        <time>2013-07-28T12:29:40Z</time>
      </trkpt>
      <trkpt lat="44.75941" lon="-0.3362">
        <ele>100</ele>
        <time>2013-07-28T12:29:48Z</time>
      </trkpt>
      <trkpt lat="44.75937" lon="-0.33676">
        <ele>99</ele>
        <time>2013-07-28T12:29:58Z</time>
      </trkpt>
      <trkpt lat="44.75936" lon="-0.33717">
        <ele>98</ele>
        <time>2013-07-28T12:30:06Z</time>
      </trkpt>
      <trkpt lat="44.75942" lon="-0.33744">
        <ele>98</ele>
        <time>2013-07-28T12:30:12Z</time>
      </trkpt>
      <trkpt lat="44.75937" lon="-0.3376">
        <ele>97</ele>
        <time>2013-07-28T12:30:17Z</time>
      </trkpt>
      <trkpt lat="44.7593" lon="-0.33765">
        <ele>97</ele>
        <time>2013-07-28T12:30:25Z</time>
      </trkpt>
      <trkpt lat="44.75929" lon="-0.33766">
        <ele>97</ele>
        <time>2013-07-28T12:30:35Z</time>
      </trkpt>
      <trkpt lat="44.75931" lon="-0.33767">
        <ele>97</ele>
        <time>2013-07-28T12:30:50Z</time>
      </trkpt>
      <trkpt lat="44.75932" lon="-0.33768">
        <ele>97</ele>
        <time>2013-07-28T12:31:05Z</time>
      </trkpt>
      <trkpt lat="44.75928" lon="-0.33771">
        <ele>97</ele>
        <time>2013-07-28T12:31:18Z</time>
      </trkpt>
      <trkpt lat="44.75922" lon="-0.33771">
        <ele>96</ele>
        <time>2013-07-28T12:31:21Z</time>
      </trkpt>
      <trkpt lat="44.75904" lon="-0.33764">
        <ele>95</ele>
        <time>2013-07-28T12:31:30Z</time>
      </trkpt>
      <trkpt lat="44.75887" lon="-0.33769">
        <ele>92</ele>
        <time>2013-07-28T12:31:40Z</time>
      </trkpt>
      <trkpt lat="44.7586" lon="-0.33782">
        <ele>88</ele>
        <time>2013-07-28T12:31:47Z</time>
      </trkpt>
      <trkpt lat="44.75827" lon="-0.33792">
        <ele>81</ele>
        <time>2013-07-28T12:31:57Z</time>
      </trkpt>
      <trkpt lat="44.75806" lon="-0.33801">
        <ele>78</ele>
        <time>2013-07-28T12:32:07Z</time>
      </trkpt>
      <trkpt lat="44.75802" lon="-0.33805">
        <ele>77</ele>
        <time>2013-07-28T12:32:09Z</time>
      </trkpt>
      <trkpt lat="44.75796" lon="-0.33847">
        <ele>76</ele>
        <time>2013-07-28T12:32:19Z</time>
      </trkpt>
      <trkpt lat="44.75791" lon="-0.33878">
        <ele>75</ele>
        <time>2013-07-28T12:32:27Z</time>
      </trkpt>
      <trkpt lat="44.75782" lon="-0.33907">
        <ele>73</ele>
        <time>2013-07-28T12:32:37Z</time>
      </trkpt>
      <trkpt lat="44.75777" lon="-0.33934">
        <ele>72</ele>
        <time>2013-07-28T12:32:45Z</time>
      </trkpt>
      <trkpt lat="44.75772" lon="-0.3397">
        <ele>71</ele>
        <time>2013-07-28T12:32:55Z</time>
      </trkpt>
      <trkpt lat="44.75773" lon="-0.34003">
        <ele>71</ele>
        <time>2013-07-28T12:33:02Z</time>
      </trkpt>
      <trkpt lat="44.75775" lon="-0.34018">
        <ele>71</ele>
        <time>2013-07-28T12:33:07Z</time>
      </trkpt>
      <trkpt lat="44.75774" lon="-0.34035">
        <ele>70</ele>
        <time>2013-07-28T12:33:11Z</time>
      </trkpt>
      <trkpt lat="44.75772" lon="-0.34068">
        <ele>69</ele>
        <time>2013-07-28T12:33:19Z</time>
      </trkpt>
      <trkpt lat="44.75778" lon="-0.34098">
        <ele>68</ele>
        <time>2013-07-28T12:33:27Z</time>
      </trkpt>
      <trkpt lat="44.75778" lon="-0.34111">
        <ele>68</ele>
        <time>2013-07-28T12:33:36Z</time>
      </trkpt>
      <trkpt lat="44.75779" lon="-0.3412">
        <ele>67</ele>
        <time>2013-07-28T12:33:46Z</time>
      </trkpt>
      <trkpt lat="44.75788" lon="-0.34142">
        <ele>67</ele>
        <time>2013-07-28T12:33:52Z</time>
      </trkpt>
      <trkpt lat="44.75792" lon="-0.34173">
        <ele>66</ele>
        <time>2013-07-28T12:34:00Z</time>
      </trkpt>
      <trkpt lat="44.75791" lon="-0.3421">
        <ele>65</ele>
        <time>2013-07-28T12:34:09Z</time>
      </trkpt>
      <trkpt lat="44.75793" lon="-0.34236">
        <ele>65</ele>
        <time>2013-07-28T12:34:18Z</time>
      </trkpt>
      <trkpt lat="44.75795" lon="-0.34248">
        <ele>66</ele>
        <time>2013-07-28T12:34:30Z</time>
      </trkpt>
      <trkpt lat="44.75799" lon="-0.34266">
        <ele>66</ele>
        <time>2013-07-28T12:34:39Z</time>
      </trkpt>
      <trkpt lat="44.75806" lon="-0.34289">
        <ele>68</ele>
        <time>2013-07-28T12:34:47Z</time>
      </trkpt>
      <trkpt lat="44.75805" lon="-0.34294">
        <ele>68</ele>
        <time>2013-07-28T12:34:49Z</time>
      </trkpt>
      <trkpt lat="44.758" lon="-0.34306">
        <ele>68</ele>
        <time>2013-07-28T12:34:53Z</time>
      </trkpt>
      <trkpt lat="44.75801" lon="-0.34321">
        <ele>69</ele>
        <time>2013-07-28T12:34:57Z</time>
      </trkpt>
      <trkpt lat="44.75795" lon="-0.34369">
        <ele>67</ele>
        <time>2013-07-28T12:35:07Z</time>
      </trkpt>
      <trkpt lat="44.75786" lon="-0.34417">
        <ele>64</ele>
        <time>2013-07-28T12:35:16Z</time>
      </trkpt>
      <trkpt lat="44.75787" lon="-0.34449">
        <ele>63</ele>
        <time>2013-07-28T12:35:25Z</time>
      </trkpt>
      <trkpt lat="44.7578" lon="-0.34514">
        <ele>62</ele>
        <time>2013-07-28T12:35:34Z</time>
      </trkpt>
      <trkpt lat="44.7579" lon="-0.34557">
        <ele>61</ele>
        <time>2013-07-28T12:35:42Z</time>
      </trkpt>
      <trkpt lat="44.75803" lon="-0.34588">
        <ele>60</ele>
        <time>2013-07-28T12:35:51Z</time>
      </trkpt>
      <trkpt lat="44.758" lon="-0.346">
        <ele>60</ele>
        <time>2013-07-28T12:35:56Z</time>
      </trkpt>
      <trkpt lat="44.75797" lon="-0.34604">
        <ele>60</ele>
        <time>2013-07-28T12:36:04Z</time>
      </trkpt>
      <trkpt lat="44.75793" lon="-0.34605">
        <ele>60</ele>
        <time>2013-07-28T12:36:11Z</time>
      </trkpt>
      <trkpt lat="44.75791" lon="-0.34605">
        <ele>61</ele>
        <time>2013-07-28T12:36:26Z</time>
      </trkpt>
      <trkpt lat="44.75789" lon="-0.34607">
        <ele>61</ele>
        <time>2013-07-28T12:36:35Z</time>
      </trkpt>
      <trkpt lat="44.75786" lon="-0.34609">
        <ele>61</ele>
        <time>2013-07-28T12:36:45Z</time>
      </trkpt>
      <trkpt lat="44.75784" lon="-0.3461">
        <ele>61</ele>
        <time>2013-07-28T12:36:55Z</time>
      </trkpt>
      <trkpt lat="44.75782" lon="-0.3461">
        <ele>61</ele>
        <time>2013-07-28T12:37:10Z</time>
      </trkpt>
      <trkpt lat="44.7578" lon="-0.34608">
        <ele>61</ele>
        <time>2013-07-28T12:37:25Z</time>
      </trkpt>
      <trkpt lat="44.7578" lon="-0.34609">
        <ele>62</ele>
        <time>2013-07-28T12:37:41Z</time>
      </trkpt>
      <trkpt lat="44.7578" lon="-0.34609">
        <ele>62</ele>
        <time>2013-07-28T12:37:56Z</time>
      </trkpt>
      <trkpt lat="44.7578" lon="-0.34609">
        <ele>62</ele>
        <time>2013-07-28T12:38:09Z</time>
      </trkpt>
      <trkpt lat="44.7578" lon="-0.3461">
        <ele>61</ele>
        <time>2013-07-28T12:38:22Z</time>
      </trkpt>
      <trkpt lat="44.75781" lon="-0.3461">
        <ele>61</ele>
        <time>2013-07-28T12:38:37Z</time>
      </trkpt>
      <trkpt lat="44.75787" lon="-0.34617">
        <ele>61</ele>
        <time>2013-07-28T12:38:44Z</time>
      </trkpt>
      <trkpt lat="44.75794" lon="-0.34636">
        <ele>61</ele>
        <time>2013-07-28T12:38:53Z</time>
      </trkpt>
      <trkpt lat="44.75808" lon="-0.34667">
        <ele>60</ele>
        <time>2013-07-28T12:39:01Z</time>
      </trkpt>
      <trkpt lat="44.75824" lon="-0.34701">
        <ele>59</ele>
        <time>2013-07-28T12:39:09Z</time>
      </trkpt>
      <trkpt lat="44.75828" lon="-0.34716">
        <ele>59</ele>
        <time>2013-07-28T12:39:15Z</time>
      </trkpt>
      <trkpt lat="44.75835" lon="-0.34727">
        <ele>59</ele>
        <time>2013-07-28T12:39:25Z</time>
      </trkpt>
      <trkpt lat="44.75835" lon="-0.34729">
        <ele>59</ele>
        <time>2013-07-28T12:39:35Z</time>
      </trkpt>
      <trkpt lat="44.75837" lon="-0.34731">
        <ele>59</ele>
        <time>2013-07-28T12:39:47Z</time>
      </trkpt>
      <trkpt lat="44.75837" lon="-0.34732">
        <ele>59</ele>
        <time>2013-07-28T12:39:57Z</time>
      </trkpt>
      <trkpt lat="44.75837" lon="-0.34734">
        <ele>59</ele>
        <time>2013-07-28T12:40:07Z</time>
      </trkpt>
      <trkpt lat="44.7584" lon="-0.3474">
        <ele>59</ele>
        <time>2013-07-28T12:40:15Z</time>
      </trkpt>
      <trkpt lat="44.75848" lon="-0.34756">
        <ele>59</ele>
        <time>2013-07-28T12:40:22Z</time>
      </trkpt>
      <trkpt lat="44.75862" lon="-0.34778">
        <ele>58</ele>
        <time>2013-07-28T12:40:27Z</time>
      </trkpt>
      <trkpt lat="44.75865" lon="-0.34783">
        <ele>58</ele>
        <time>2013-07-28T12:40:28Z</time>
      </trkpt>
      <trkpt lat="44.75886" lon="-0.34824">
        <ele>55</ele>
        <time>2013-07-28T12:40:36Z</time>
      </trkpt>
      <trkpt lat="44.75889" lon="-0.34835">
        <ele>55</ele>
        <time>2013-07-28T12:40:38Z</time>
      </trkpt>
      <trkpt lat="44.75867" lon="-0.34876">
        <ele>56</ele>
        <time>2013-07-28T12:40:44Z</time>
      </trkpt>
      <trkpt lat="44.75857" lon="-0.34887">
        <ele>56</ele>
        <time>2013-07-28T12:40:46Z</time>
      </trkpt>
      <trkpt lat="44.75819" lon="-0.34924">
        <ele>57</ele>
        <time>2013-07-28T12:40:54Z</time>
      </trkpt>
      <trkpt lat="44.75811" lon="-0.34954">
        <ele>57</ele>
        <time>2013-07-28T12:41:00Z</time>
      </trkpt>
      <trkpt lat="44.75807" lon="-0.34979">
        <ele>57</ele>
        <time>2013-07-28T12:41:04Z</time>
      </trkpt>
      <trkpt lat="44.75807" lon="-0.34986">
        <ele>57</ele>
        <time>2013-07-28T12:41:05Z</time>
      </trkpt>
      <trkpt lat="44.75807" lon="-0.34992">
        <ele>57</ele>
        <time>2013-07-28T12:41:06Z</time>
      </trkpt>
      <trkpt lat="44.75807" lon="-0.35028">
        <ele>58</ele>
        <time>2013-07-28T12:41:12Z</time>
      </trkpt>
      <trkpt lat="44.75807" lon="-0.35034">
        <ele>58</ele>
        <time>2013-07-28T12:41:13Z</time>
      </trkpt>
      <trkpt lat="44.75808" lon="-0.3504">
        <ele>58</ele>
        <time>2013-07-28T12:41:14Z</time>
      </trkpt>
      <trkpt lat="44.75815" lon="-0.35085">
        <ele>56</ele>
        <time>2013-07-28T12:41:22Z</time>
      </trkpt>
      <trkpt lat="44.75818" lon="-0.3509">
        <ele>56</ele>
        <time>2013-07-28T12:41:23Z</time>
      </trkpt>
      <trkpt lat="44.75821" lon="-0.35095">
        <ele>55</ele>
        <time>2013-07-28T12:41:24Z</time>
      </trkpt>
      <trkpt lat="44.75825" lon="-0.351">
        <ele>54</ele>
        <time>2013-07-28T12:41:25Z</time>
      </trkpt>
      <trkpt lat="44.75829" lon="-0.35105">
        <ele>54</ele>
        <time>2013-07-28T12:41:26Z</time>
      </trkpt>
      <trkpt lat="44.75834" lon="-0.3511">
        <ele>53</ele>
        <time>2013-07-28T12:41:27Z</time>
      </trkpt>
      <trkpt lat="44.75838" lon="-0.35115">
        <ele>53</ele>
        <time>2013-07-28T12:41:28Z</time>
      </trkpt>
      <trkpt lat="44.75841" lon="-0.35121">
        <ele>53</ele>
        <time>2013-07-28T12:41:29Z</time>
      </trkpt>
      <trkpt lat="44.75844" lon="-0.35126">
        <ele>53</ele>
        <time>2013-07-28T12:41:30Z</time>
      </trkpt>
      <trkpt lat="44.75846" lon="-0.35132">
        <ele>52</ele>
        <time>2013-07-28T12:41:31Z</time>
      </trkpt>
      <trkpt lat="44.75847" lon="-0.35137">
        <ele>52</ele>
        <time>2013-07-28T12:41:32Z</time>
      </trkpt>
      <trkpt lat="44.75848" lon="-0.35141">
        <ele>52</ele>
        <time>2013-07-28T12:41:33Z</time>
      </trkpt>
      <trkpt lat="44.75849" lon="-0.35146">
        <ele>52</ele>
        <time>2013-07-28T12:41:34Z</time>
      </trkpt>
      <trkpt lat="44.75846" lon="-0.35174">
        <ele>52</ele>
        <time>2013-07-28T12:41:41Z</time>
      </trkpt>
      <trkpt lat="44.75836" lon="-0.35201">
        <ele>51</ele>
        <time>2013-07-28T12:41:48Z</time>
      </trkpt>
      <trkpt lat="44.75821" lon="-0.35229">
        <ele>51</ele>
        <time>2013-07-28T12:41:55Z</time>
      </trkpt>
      <trkpt lat="44.75812" lon="-0.3524">
        <ele>52</ele>
        <time>2013-07-28T12:42:00Z</time>
      </trkpt>
      <trkpt lat="44.7581" lon="-0.35241">
        <ele>52</ele>
        <time>2013-07-28T12:42:01Z</time>
      </trkpt>
      <trkpt lat="44.75805" lon="-0.35245">
        <ele>52</ele>
        <time>2013-07-28T12:42:09Z</time>
      </trkpt>
      <trkpt lat="44.75803" lon="-0.35242">
        <ele>52</ele>
        <time>2013-07-28T12:42:23Z</time>
      </trkpt>
      <trkpt lat="44.75804" lon="-0.35244">
        <ele>52</ele>
        <time>2013-07-28T12:42:36Z</time>
      </trkpt>
      <trkpt lat="44.75801" lon="-0.35255">
        <ele>52</ele>
        <time>2013-07-28T12:42:44Z</time>
      </trkpt>
      <trkpt lat="44.75795" lon="-0.35269">
        <ele>52</ele>
        <time>2013-07-28T12:42:52Z</time>
      </trkpt>
      <trkpt lat="44.75794" lon="-0.35272">
        <ele>52</ele>
        <time>2013-07-28T12:42:54Z</time>
      </trkpt>
      <trkpt lat="44.75768" lon="-0.35304">
        <ele>53</ele>
        <time>2013-07-28T12:43:02Z</time>
      </trkpt>
      <trkpt lat="44.75733" lon="-0.3534">
        <ele>53</ele>
        <time>2013-07-28T12:43:11Z</time>
      </trkpt>
      <trkpt lat="44.75691" lon="-0.35387">
        <ele>52</ele>
        <time>2013-07-28T12:43:22Z</time>
      </trkpt>
      <trkpt lat="44.75666" lon="-0.35408">
        <ele>51</ele>
        <time>2013-07-28T12:43:31Z</time>
      </trkpt>
      <trkpt lat="44.75645" lon="-0.3543">
        <ele>51</ele>
        <time>2013-07-28T12:43:41Z</time>
      </trkpt>
      <trkpt lat="44.75612" lon="-0.35448">
        <ele>51</ele>
        <time>2013-07-28T12:43:51Z</time>
      </trkpt>
      <trkpt lat="44.7559" lon="-0.35468">
        <ele>51</ele>
        <time>2013-07-28T12:44:00Z</time>
      </trkpt>
      <trkpt lat="44.75574" lon="-0.35499">
        <ele>51</ele>
        <time>2013-07-28T12:44:08Z</time>
      </trkpt>
      <trkpt lat="44.75565" lon="-0.35529">
        <ele>51</ele>
        <time>2013-07-28T12:44:15Z</time>
      </trkpt>
      <trkpt lat="44.75561" lon="-0.35558">
        <ele>51</ele>
        <time>2013-07-28T12:44:24Z</time>
      </trkpt>
      <trkpt lat="44.75568" lon="-0.35589">
        <ele>50</ele>
        <time>2013-07-28T12:44:31Z</time>
      </trkpt>
      <trkpt lat="44.75565" lon="-0.35617">
        <ele>50</ele>
        <time>2013-07-28T12:44:38Z</time>
      </trkpt>
      <trkpt lat="44.75565" lon="-0.35644">
        <ele>49</ele>
        <time>2013-07-28T12:44:46Z</time>
      </trkpt>
      <trkpt lat="44.75566" lon="-0.35673">
        <ele>48</ele>
        <time>2013-07-28T12:44:54Z</time>
      </trkpt>
      <trkpt lat="44.75559" lon="-0.35686">
        <ele>48</ele>
        <time>2013-07-28T12:45:01Z</time>
      </trkpt>
      <trkpt lat="44.75551" lon="-0.35693">
        <ele>48</ele>
        <time>2013-07-28T12:45:09Z</time>
      </trkpt>
      <trkpt lat="44.75534" lon="-0.357">
        <ele>49</ele>
        <time>2013-07-28T12:45:22Z</time>
      </trkpt>
      <trkpt lat="44.75531" lon="-0.35702">
        <ele>49</ele>
        <time>2013-07-28T12:45:44Z</time>
      </trkpt>
      <trkpt lat="44.75529" lon="-0.357">
        <ele>49</ele>
        <time>2013-07-28T12:46:02Z</time>
      </trkpt>
      <trkpt lat="44.75529" lon="-0.35701">
        <ele>49</ele>
        <time>2013-07-28T12:46:17Z</time>
      </trkpt>
      <trkpt lat="44.75528" lon="-0.35702">
        <ele>49</ele>
        <time>2013-07-28T12:46:34Z</time>
      </trkpt>
      <trkpt lat="44.75528" lon="-0.35702">
        <ele>49</ele>
        <time>2013-07-28T12:46:48Z</time>
      </trkpt>
      <trkpt lat="44.75528" lon="-0.35702">
        <ele>49</ele>
        <time>2013-07-28T12:47:07Z</time>
      </trkpt>
      <trkpt lat="44.75528" lon="-0.35701">
        <ele>49</ele>
        <time>2013-07-28T12:47:24Z</time>
      </trkpt>
      <trkpt lat="44.75528" lon="-0.35701">
        <ele>49</ele>
        <time>2013-07-28T12:47:44Z</time>
      </trkpt>
      <trkpt lat="44.75529" lon="-0.35701">
        <ele>49</ele>
        <time>2013-07-28T12:48:00Z</time>
      </trkpt>
      <trkpt lat="44.75529" lon="-0.35701">
        <ele>49</ele>
        <time>2013-07-28T12:48:17Z</time>
      </trkpt>
      <trkpt lat="44.75529" lon="-0.35701">
        <ele>49</ele>
        <time>2013-07-28T12:48:34Z</time>
      </trkpt>
      <trkpt lat="44.75529" lon="-0.35702">
        <ele>49</ele>
        <time>2013-07-28T12:48:51Z</time>
      </trkpt>
      <trkpt lat="44.75529" lon="-0.35702">
        <ele>49</ele>
        <time>2013-07-28T12:49:01Z</time>
      </trkpt>
      <trkpt lat="44.75529" lon="-0.35703">
        <ele>49</ele>
        <time>2013-07-28T12:49:16Z</time>
      </trkpt>
      <trkpt lat="44.75529" lon="-0.35703">
        <ele>49</ele>
        <time>2013-07-28T12:49:27Z</time>
      </trkpt>
      <trkpt lat="44.75529" lon="-0.35704">
        <ele>49</ele>
        <time>2013-07-28T12:49:40Z</time>
      </trkpt>
      <trkpt lat="44.7553" lon="-0.35705">
        <ele>49</ele>
        <time>2013-07-28T12:49:56Z</time>
      </trkpt>
      <trkpt lat="44.75529" lon="-0.35704">
        <ele>49</ele>
        <time>2013-07-28T12:50:11Z</time>
      </trkpt>
      <trkpt lat="44.7553" lon="-0.35704">
        <ele>49</ele>
        <time>2013-07-28T12:50:25Z</time>
      </trkpt>
      <trkpt lat="44.75531" lon="-0.35706">
        <ele>49</ele>
        <time>2013-07-28T12:50:40Z</time>
      </trkpt>
      <trkpt lat="44.75532" lon="-0.35707">
        <ele>49</ele>
        <time>2013-07-28T12:50:57Z</time>
      </trkpt>
      <trkpt lat="44.75532" lon="-0.35708">
        <ele>49</ele>
        <time>2013-07-28T12:51:13Z</time>
      </trkpt>
      <trkpt lat="44.75532" lon="-0.35708">
        <ele>49</ele>
        <time>2013-07-28T12:51:27Z</time>
      </trkpt>
      <trkpt lat="44.75531" lon="-0.35708">
        <ele>49</ele>
        <time>2013-07-28T12:51:44Z</time>
      </trkpt>
      <trkpt lat="44.75531" lon="-0.35708">
        <ele>49</ele>
        <time>2013-07-28T12:52:00Z</time>
      </trkpt>
      <trkpt lat="44.75531" lon="-0.35708">
        <ele>49</ele>
        <time>2013-07-28T12:52:17Z</time>
      </trkpt>
      <trkpt lat="44.75531" lon="-0.35708">
        <ele>49</ele>
        <time>2013-07-28T12:52:32Z</time>
      </trkpt>
      <trkpt lat="44.75531" lon="-0.35709">
        <ele>49</ele>
        <time>2013-07-28T12:52:46Z</time>
      </trkpt>
      <trkpt lat="44.7553" lon="-0.35709">
        <ele>49</ele>
        <time>2013-07-28T12:53:00Z</time>
      </trkpt>
      <trkpt lat="44.75529" lon="-0.35708">
        <ele>49</ele>
        <time>2013-07-28T12:53:10Z</time>
      </trkpt>
      <trkpt lat="44.75529" lon="-0.35707">
        <ele>49</ele>
        <time>2013-07-28T12:53:19Z</time>
      </trkpt>
      <trkpt lat="44.75528" lon="-0.35709">
        <ele>49</ele>
        <time>2013-07-28T12:53:27Z</time>
      </trkpt>
      <trkpt lat="44.75527" lon="-0.3571">
        <ele>49</ele>
        <time>2013-07-28T12:53:28Z</time>
      </trkpt>
      <trkpt lat="44.75522" lon="-0.35715">
        <ele>49</ele>
        <time>2013-07-28T12:53:32Z</time>
      </trkpt>
      <trkpt lat="44.75518" lon="-0.35731">
        <ele>49</ele>
        <time>2013-07-28T12:53:38Z</time>
      </trkpt>
      <trkpt lat="44.75516" lon="-0.3574">
        <ele>49</ele>
        <time>2013-07-28T12:53:40Z</time>
      </trkpt>
      <trkpt lat="44.75509" lon="-0.35782">
        <ele>48</ele>
        <time>2013-07-28T12:53:48Z</time>
      </trkpt>
      <trkpt lat="44.75504" lon="-0.35799">
        <ele>47</ele>
        <time>2013-07-28T12:53:51Z</time>
      </trkpt>
      <trkpt lat="44.75498" lon="-0.35823">
        <ele>46</ele>
        <time>2013-07-28T12:53:55Z</time>
      </trkpt>
      <trkpt lat="44.75486" lon="-0.35881">
        <ele>46</ele>
        <time>2013-07-28T12:54:03Z</time>
      </trkpt>
      <trkpt lat="44.7547" lon="-0.35926">
        <ele>46</ele>
        <time>2013-07-28T12:54:10Z</time>
      </trkpt>
      <trkpt lat="44.75464" lon="-0.35944">
        <ele>45</ele>
        <time>2013-07-28T12:54:13Z</time>
      </trkpt>
      <trkpt lat="44.75454" lon="-0.35991">
        <ele>45</ele>
        <time>2013-07-28T12:54:20Z</time>
      </trkpt>
      <trkpt lat="44.75453" lon="-0.36004">
        <ele>45</ele>
        <time>2013-07-28T12:54:22Z</time>
      </trkpt>
      <trkpt lat="44.75454" lon="-0.36032">
        <ele>45</ele>
        <time>2013-07-28T12:54:27Z</time>
      </trkpt>
      <trkpt lat="44.75453" lon="-0.36038">
        <ele>45</ele>
        <time>2013-07-28T12:54:28Z</time>
      </trkpt>
      <trkpt lat="44.7545" lon="-0.36044">
        <ele>45</ele>
        <time>2013-07-28T12:54:29Z</time>
      </trkpt>
      <trkpt lat="44.75436" lon="-0.36077">
        <ele>45</ele>
        <time>2013-07-28T12:54:34Z</time>
      </trkpt>
      <trkpt lat="44.75432" lon="-0.36083">
        <ele>45</ele>
        <time>2013-07-28T12:54:35Z</time>
      </trkpt>
      <trkpt lat="44.75415" lon="-0.36112">
        <ele>45</ele>
        <time>2013-07-28T12:54:40Z</time>
      </trkpt>
      <trkpt lat="44.75396" lon="-0.3614">
        <ele>45</ele>
        <time>2013-07-28T12:54:45Z</time>
      </trkpt>
      <trkpt lat="44.7539" lon="-0.36153">
        <ele>45</ele>
        <time>2013-07-28T12:54:47Z</time>
      </trkpt>
      <trkpt lat="44.75386" lon="-0.36158">
        <ele>45</ele>
        <time>2013-07-28T12:54:48Z</time>
      </trkpt>
      <trkpt lat="44.75383" lon="-0.36164">
        <ele>45</ele>
        <time>2013-07-28T12:54:49Z</time>
      </trkpt>
      <trkpt lat="44.75355" lon="-0.36208">
        <ele>45</ele>
        <time>2013-07-28T12:54:57Z</time>
      </trkpt>
      <trkpt lat="44.75348" lon="-0.36218">
        <ele>45</ele>
        <time>2013-07-28T12:54:59Z</time>
      </trkpt>
      <trkpt lat="44.75325" lon="-0.3625">
        <ele>45</ele>
        <time>2013-07-28T12:55:06Z</time>
      </trkpt>
      <trkpt lat="44.75322" lon="-0.36253">
        <ele>44</ele>
        <time>2013-07-28T12:55:07Z</time>
      </trkpt>
      <trkpt lat="44.75319" lon="-0.36257">
        <ele>44</ele>
        <time>2013-07-28T12:55:08Z</time>
      </trkpt>
      <trkpt lat="44.75305" lon="-0.36267">
        <ele>44</ele>
        <time>2013-07-28T12:55:12Z</time>
      </trkpt>
      <trkpt lat="44.75277" lon="-0.36277">
        <ele>45</ele>
        <time>2013-07-28T12:55:19Z</time>
      </trkpt>
      <trkpt lat="44.75273" lon="-0.36277">
        <ele>45</ele>
        <time>2013-07-28T12:55:20Z</time>
      </trkpt>
      <trkpt lat="44.75269" lon="-0.36278">
        <ele>45</ele>
        <time>2013-07-28T12:55:21Z</time>
      </trkpt>
      <trkpt lat="44.75265" lon="-0.36279">
        <ele>45</ele>
        <time>2013-07-28T12:55:22Z</time>
      </trkpt>
      <trkpt lat="44.75261" lon="-0.36279">
        <ele>45</ele>
        <time>2013-07-28T12:55:23Z</time>
      </trkpt>
      <trkpt lat="44.75258" lon="-0.3628">
        <ele>45</ele>
        <time>2013-07-28T12:55:24Z</time>
      </trkpt>
      <trkpt lat="44.75236" lon="-0.3629">
        <ele>45</ele>
        <time>2013-07-28T12:55:30Z</time>
      </trkpt>
      <trkpt lat="44.7523" lon="-0.36306">
        <ele>45</ele>
        <time>2013-07-28T12:55:34Z</time>
      </trkpt>
      <trkpt lat="44.75231" lon="-0.36308">
        <ele>45</ele>
        <time>2013-07-28T12:55:35Z</time>
      </trkpt>
      <trkpt lat="44.75232" lon="-0.36309">
        <ele>45</ele>
        <time>2013-07-28T12:55:36Z</time>
      </trkpt>
      <trkpt lat="44.75234" lon="-0.36309">
        <ele>45</ele>
        <time>2013-07-28T12:55:37Z</time>
      </trkpt>
      <trkpt lat="44.75237" lon="-0.36308">
        <ele>45</ele>
        <time>2013-07-28T12:55:38Z</time>
      </trkpt>
      <trkpt lat="44.7524" lon="-0.36308">
        <ele>45</ele>
        <time>2013-07-28T12:55:39Z</time>
      </trkpt>
      <trkpt lat="44.75242" lon="-0.36308">
        <ele>45</ele>
        <time>2013-07-28T12:55:40Z</time>
      </trkpt>
      <trkpt lat="44.75244" lon="-0.36308">
        <ele>45</ele>
        <time>2013-07-28T12:55:41Z</time>
      </trkpt>
      <trkpt lat="44.75261" lon="-0.36314">
        <ele>44</ele>
        <time>2013-07-28T12:55:49Z</time>
      </trkpt>
      <trkpt lat="44.75272" lon="-0.36317">
        <ele>44</ele>
        <time>2013-07-28T12:55:54Z</time>
      </trkpt>
      <trkpt lat="44.75274" lon="-0.36317">
        <ele>44</ele>
        <time>2013-07-28T12:55:55Z</time>
      </trkpt>
      <trkpt lat="44.75277" lon="-0.36318">
        <ele>44</ele>
        <time>2013-07-28T12:55:56Z</time>
      </trkpt>
      <trkpt lat="44.75301" lon="-0.36327">
        <ele>44</ele>
        <time>2013-07-28T12:56:05Z</time>
      </trkpt>
      <trkpt lat="44.75305" lon="-0.36328">
        <ele>44</ele>
        <time>2013-07-28T12:56:06Z</time>
      </trkpt>
      <trkpt lat="44.75337" lon="-0.36341">
        <ele>45</ele>
        <time>2013-07-28T12:56:13Z</time>
      </trkpt>
      <trkpt lat="44.75341" lon="-0.36342">
        <ele>45</ele>
        <time>2013-07-28T12:56:14Z</time>
      </trkpt>
      <trkpt lat="44.75369" lon="-0.36354">
        <ele>46</ele>
        <time>2013-07-28T12:56:22Z</time>
      </trkpt>
      <trkpt lat="44.75374" lon="-0.36358">
        <ele>46</ele>
        <time>2013-07-28T12:56:26Z</time>
      </trkpt>
      <trkpt lat="44.75371" lon="-0.36358">
        <ele>46</ele>
        <time>2013-07-28T12:56:34Z</time>
      </trkpt>
      <trkpt lat="44.75369" lon="-0.36356">
        <ele>46</ele>
        <time>2013-07-28T12:56:51Z</time>
      </trkpt>
      <trkpt lat="44.75368" lon="-0.36356">
        <ele>46</ele>
        <time>2013-07-28T12:56:54Z</time>
      </trkpt>
      <trkpt lat="44.75366" lon="-0.36355">
        <ele>46</ele>
        <time>2013-07-28T12:56:55Z</time>
      </trkpt>
      <trkpt lat="44.75363" lon="-0.36356">
        <ele>46</ele>
        <time>2013-07-28T12:56:56Z</time>
      </trkpt>
      <trkpt lat="44.75361" lon="-0.36356">
        <ele>46</ele>
        <time>2013-07-28T12:56:57Z</time>
      </trkpt>
      <trkpt lat="44.75359" lon="-0.36357">
        <ele>46</ele>
        <time>2013-07-28T12:56:58Z</time>
      </trkpt>
      <trkpt lat="44.75357" lon="-0.3636">
        <ele>46</ele>
        <time>2013-07-28T12:57:02Z</time>
      </trkpt>
      <trkpt lat="44.75357" lon="-0.36363">
        <ele>46</ele>
        <time>2013-07-28T12:57:06Z</time>
      </trkpt>
      <trkpt lat="44.75355" lon="-0.36363">
        <ele>46</ele>
        <time>2013-07-28T12:57:07Z</time>
      </trkpt>
      <trkpt lat="44.75353" lon="-0.36364">
        <ele>46</ele>
        <time>2013-07-28T12:57:08Z</time>
      </trkpt>
      <trkpt lat="44.75332" lon="-0.36367">
        <ele>45</ele>
        <time>2013-07-28T12:57:15Z</time>
      </trkpt>
      <trkpt lat="44.7533" lon="-0.36368">
        <ele>45</ele>
        <time>2013-07-28T12:57:16Z</time>
      </trkpt>
      <trkpt lat="44.75314" lon="-0.36378">
        <ele>45</ele>
        <time>2013-07-28T12:57:19Z</time>
      </trkpt>
      <trkpt lat="44.75306" lon="-0.36384">
        <ele>45</ele>
        <time>2013-07-28T12:57:22Z</time>
      </trkpt>
      <trkpt lat="44.75294" lon="-0.36405">
        <ele>47</ele>
        <time>2013-07-28T12:57:29Z</time>
      </trkpt>
      <trkpt lat="44.75294" lon="-0.36411">
        <ele>48</ele>
        <time>2013-07-28T12:57:32Z</time>
      </trkpt>
      <trkpt lat="44.75294" lon="-0.36428">
        <ele>50</ele>
        <time>2013-07-28T12:57:41Z</time>
      </trkpt>
      <trkpt lat="44.75296" lon="-0.36437">
        <ele>51</ele>
        <time>2013-07-28T12:57:49Z</time>
      </trkpt>
      <trkpt lat="44.75296" lon="-0.36438">
        <ele>51</ele>
        <time>2013-07-28T12:57:50Z</time>
      </trkpt>
      <trkpt lat="44.753" lon="-0.3645">
        <ele>53</ele>
        <time>2013-07-28T12:57:58Z</time>
      </trkpt>
      <trkpt lat="44.75298" lon="-0.36458">
        <ele>53</ele>
        <time>2013-07-28T12:58:04Z</time>
      </trkpt>
      <trkpt lat="44.75297" lon="-0.36464">
        <ele>53</ele>
        <time>2013-07-28T12:58:10Z</time>
      </trkpt>
      <trkpt lat="44.75297" lon="-0.36464">
        <ele>53</ele>
        <time>2013-07-28T12:58:11Z</time>
      </trkpt>
      <trkpt lat="44.753" lon="-0.36481">
        <ele>55</ele>
        <time>2013-07-28T12:58:20Z</time>
      </trkpt>
      <trkpt lat="44.75299" lon="-0.36488">
        <ele>55</ele>
        <time>2013-07-28T12:58:24Z</time>
      </trkpt>
      <trkpt lat="44.75308" lon="-0.36507">
        <ele>57</ele>
        <time>2013-07-28T12:58:32Z</time>
      </trkpt>
      <trkpt lat="44.75313" lon="-0.3652">
        <ele>58</ele>
        <time>2013-07-28T12:58:39Z</time>
      </trkpt>
      <trkpt lat="44.75313" lon="-0.36523">
        <ele>58</ele>
        <time>2013-07-28T12:58:46Z</time>
      </trkpt>
      <trkpt lat="44.75313" lon="-0.36529">
        <ele>58</ele>
        <time>2013-07-28T12:58:54Z</time>
      </trkpt>
      <trkpt lat="44.75312" lon="-0.36531">
        <ele>58</ele>
        <time>2013-07-28T12:58:59Z</time>
      </trkpt>
      <trkpt lat="44.75312" lon="-0.36537">
        <ele>57</ele>
        <time>2013-07-28T12:59:05Z</time>
      </trkpt>
      <trkpt lat="44.75313" lon="-0.36539">
        <ele>58</ele>
        <time>2013-07-28T12:59:12Z</time>
      </trkpt>
      <trkpt lat="44.75313" lon="-0.36539">
        <ele>58</ele>
        <time>2013-07-28T12:59:13Z</time>
      </trkpt>
      <trkpt lat="44.75318" lon="-0.3655">
        <ele>58</ele>
        <time>2013-07-28T12:59:21Z</time>
      </trkpt>
      <trkpt lat="44.75318" lon="-0.36551">
        <ele>58</ele>
        <time>2013-07-28T12:59:30Z</time>
      </trkpt>
      <trkpt lat="44.75318" lon="-0.36551">
        <ele>58</ele>
        <time>2013-07-28T12:59:41Z</time>
      </trkpt>
      <trkpt lat="44.75318" lon="-0.36551">
        <ele>58</ele>
        <time>2013-07-28T12:59:53Z</time>
      </trkpt>
      <trkpt lat="44.75318" lon="-0.36551">
        <ele>58</ele>
        <time>2013-07-28T13:00:08Z</time>
      </trkpt>
      <trkpt lat="44.75318" lon="-0.36553">
        <ele>58</ele>
        <time>2013-07-28T13:00:16Z</time>
      </trkpt>
      <trkpt lat="44.75321" lon="-0.3657">
        <ele>58</ele>
        <time>2013-07-28T13:00:22Z</time>
      </trkpt>
      <trkpt lat="44.75327" lon="-0.3659">
        <ele>58</ele>
        <time>2013-07-28T13:00:27Z</time>
      </trkpt>
      <trkpt lat="44.75332" lon="-0.36618">
        <ele>56</ele>
        <time>2013-07-28T13:00:32Z</time>
      </trkpt>
      <trkpt lat="44.75338" lon="-0.36647">
        <ele>55</ele>
        <time>2013-07-28T13:00:38Z</time>
      </trkpt>
      <trkpt lat="44.75346" lon="-0.36677">
        <ele>56</ele>
        <time>2013-07-28T13:00:44Z</time>
      </trkpt>
      <trkpt lat="44.7535" lon="-0.36708">
        <ele>57</ele>
        <time>2013-07-28T13:00:50Z</time>
      </trkpt>
      <trkpt lat="44.7536" lon="-0.36742">
        <ele>58</ele>
        <time>2013-07-28T13:00:56Z</time>
      </trkpt>
      <trkpt lat="44.75367" lon="-0.36771">
        <ele>59</ele>
        <time>2013-07-28T13:01:02Z</time>
      </trkpt>
      <trkpt lat="44.75371" lon="-0.36792">
        <ele>59</ele>
        <time>2013-07-28T13:01:08Z</time>
      </trkpt>
      <trkpt lat="44.75357" lon="-0.36793">
        <ele>57</ele>
        <time>2013-07-28T13:01:12Z</time>
      </trkpt>
      <trkpt lat="44.75326" lon="-0.36787">
        <ele>53</ele>
        <time>2013-07-28T13:01:17Z</time>
      </trkpt>
      <trkpt lat="44.75283" lon="-0.36779">
        <ele>50</ele>
        <time>2013-07-28T13:01:22Z</time>
      </trkpt>
      <trkpt lat="44.75243" lon="-0.36772">
        <ele>47</ele>
        <time>2013-07-28T13:01:27Z</time>
      </trkpt>
      <trkpt lat="44.75218" lon="-0.36774">
        <ele>44</ele>
        <time>2013-07-28T13:01:32Z</time>
      </trkpt>
      <trkpt lat="44.75216" lon="-0.36778">
        <ele>44</ele>
        <time>2013-07-28T13:01:33Z</time>
      </trkpt>
      <trkpt lat="44.75216" lon="-0.36783">
        <ele>44</ele>
        <time>2013-07-28T13:01:34Z</time>
      </trkpt>
      <trkpt lat="44.75217" lon="-0.36789">
        <ele>44</ele>
        <time>2013-07-28T13:01:35Z</time>
      </trkpt>
      <trkpt lat="44.75218" lon="-0.36794">
        <ele>44</ele>
        <time>2013-07-28T13:01:36Z</time>
      </trkpt>
      <trkpt lat="44.7522" lon="-0.36801">
        <ele>44</ele>
        <time>2013-07-28T13:01:37Z</time>
      </trkpt>
      <trkpt lat="44.75223" lon="-0.36812">
        <ele>44</ele>
        <time>2013-07-28T13:01:39Z</time>
      </trkpt>
      <trkpt lat="44.75224" lon="-0.36818">
        <ele>45</ele>
        <time>2013-07-28T13:01:40Z</time>
      </trkpt>
      <trkpt lat="44.75232" lon="-0.36862">
        <ele>48</ele>
        <time>2013-07-28T13:01:48Z</time>
      </trkpt>
      <trkpt lat="44.75232" lon="-0.36868">
        <ele>48</ele>
        <time>2013-07-28T13:01:49Z</time>
      </trkpt>
      <trkpt lat="44.75229" lon="-0.36905">
        <ele>50</ele>
        <time>2013-07-28T13:01:56Z</time>
      </trkpt>
      <trkpt lat="44.75218" lon="-0.36938">
        <ele>50</ele>
        <time>2013-07-28T13:02:03Z</time>
      </trkpt>
      <trkpt lat="44.75192" lon="-0.36969">
        <ele>50</ele>
        <time>2013-07-28T13:02:11Z</time>
      </trkpt>
      <trkpt lat="44.75159" lon="-0.37008">
        <ele>51</ele>
        <time>2013-07-28T13:02:20Z</time>
      </trkpt>
      <trkpt lat="44.75141" lon="-0.37039">
        <ele>51</ele>
        <time>2013-07-28T13:02:27Z</time>
      </trkpt>
      <trkpt lat="44.75135" lon="-0.37065">
        <ele>54</ele>
        <time>2013-07-28T13:02:33Z</time>
      </trkpt>
      <trkpt lat="44.75134" lon="-0.37086">
        <ele>55</ele>
        <time>2013-07-28T13:02:40Z</time>
      </trkpt>
      <trkpt lat="44.75133" lon="-0.37105">
        <ele>54</ele>
        <time>2013-07-28T13:02:44Z</time>
      </trkpt>
      <trkpt lat="44.75137" lon="-0.37151">
        <ele>55</ele>
        <time>2013-07-28T13:02:50Z</time>
      </trkpt>
      <trkpt lat="44.75137" lon="-0.37158">
        <ele>55</ele>
        <time>2013-07-28T13:02:51Z</time>
      </trkpt>
      <trkpt lat="44.75135" lon="-0.37165">
        <ele>55</ele>
        <time>2013-07-28T13:02:52Z</time>
      </trkpt>
      <trkpt lat="44.75132" lon="-0.37172">
        <ele>55</ele>
        <time>2013-07-28T13:02:53Z</time>
      </trkpt>
      <trkpt lat="44.75128" lon="-0.37179">
        <ele>55</ele>
        <time>2013-07-28T13:02:54Z</time>
      </trkpt>
      <trkpt lat="44.75125" lon="-0.37185">
        <ele>55</ele>
        <time>2013-07-28T13:02:55Z</time>
      </trkpt>
      <trkpt lat="44.75121" lon="-0.37191">
        <ele>54</ele>
        <time>2013-07-28T13:02:56Z</time>
      </trkpt>
      <trkpt lat="44.75116" lon="-0.37197">
        <ele>54</ele>
        <time>2013-07-28T13:02:57Z</time>
      </trkpt>
      <trkpt lat="44.75093" lon="-0.37224">
        <ele>54</ele>
        <time>2013-07-28T13:03:02Z</time>
      </trkpt>
      <trkpt lat="44.75073" lon="-0.37249">
        <ele>54</ele>
        <time>2013-07-28T13:03:09Z</time>
      </trkpt>
      <trkpt lat="44.75056" lon="-0.37272">
        <ele>54</ele>
        <time>2013-07-28T13:03:16Z</time>
      </trkpt>
      <trkpt lat="44.75036" lon="-0.37297">
        <ele>55</ele>
        <time>2013-07-28T13:03:24Z</time>
      </trkpt>
      <trkpt lat="44.75019" lon="-0.37319">
        <ele>56</ele>
        <time>2013-07-28T13:03:32Z</time>
      </trkpt>
      <trkpt lat="44.75006" lon="-0.37339">
        <ele>55</ele>
        <time>2013-07-28T13:03:40Z</time>
      </trkpt>
      <trkpt lat="44.74991" lon="-0.37359">
        <ele>54</ele>
        <time>2013-07-28T13:03:47Z</time>
      </trkpt>
      <trkpt lat="44.7497" lon="-0.3739">
        <ele>53</ele>
        <time>2013-07-28T13:03:56Z</time>
      </trkpt>
      <trkpt lat="44.74964" lon="-0.37398">
        <ele>52</ele>
        <time>2013-07-28T13:04:01Z</time>
      </trkpt>
      <trkpt lat="44.74963" lon="-0.37399">
        <ele>52</ele>
        <time>2013-07-28T13:04:17Z</time>
      </trkpt>
      <trkpt lat="44.74963" lon="-0.374">
        <ele>52</ele>
        <time>2013-07-28T13:04:20Z</time>
      </trkpt>
      <trkpt lat="44.74962" lon="-0.37404">
        <ele>52</ele>
        <time>2013-07-28T13:04:22Z</time>
      </trkpt>
      <trkpt lat="44.74969" lon="-0.37407">
        <ele>53</ele>
        <time>2013-07-28T13:04:26Z</time>
      </trkpt>
      <trkpt lat="44.74977" lon="-0.37395">
        <ele>54</ele>
        <time>2013-07-28T13:04:33Z</time>
      </trkpt>
      <trkpt lat="44.74983" lon="-0.37388">
        <ele>54</ele>
        <time>2013-07-28T13:04:37Z</time>
      </trkpt>
      <trkpt lat="44.74997" lon="-0.3737">
        <ele>55</ele>
        <time>2013-07-28T13:04:45Z</time>
      </trkpt>
      <trkpt lat="44.74998" lon="-0.37367">
        <ele>55</ele>
        <time>2013-07-28T13:04:46Z</time>
      </trkpt>
      <trkpt lat="44.75012" lon="-0.37356">
        <ele>56</ele>
        <time>2013-07-28T13:04:53Z</time>
      </trkpt>
      <trkpt lat="44.75021" lon="-0.37345">
        <ele>57</ele>
        <time>2013-07-28T13:04:59Z</time>
      </trkpt>
      <trkpt lat="44.75026" lon="-0.3734">
        <ele>57</ele>
        <time>2013-07-28T13:05:03Z</time>
      </trkpt>
      <trkpt lat="44.75037" lon="-0.37326">
        <ele>58</ele>
        <time>2013-07-28T13:05:12Z</time>
      </trkpt>
      <trkpt lat="44.75054" lon="-0.37303">
        <ele>58</ele>
        <time>2013-07-28T13:05:22Z</time>
      </trkpt>
      <trkpt lat="44.75066" lon="-0.3729">
        <ele>58</ele>
        <time>2013-07-28T13:05:29Z</time>
      </trkpt>
      <trkpt lat="44.75068" lon="-0.37289">
        <ele>58</ele>
        <time>2013-07-28T13:05:30Z</time>
      </trkpt>
      <trkpt lat="44.75074" lon="-0.37292">
        <ele>59</ele>
        <time>2013-07-28T13:05:34Z</time>
      </trkpt>
      <trkpt lat="44.75077" lon="-0.37296">
        <ele>60</ele>
        <time>2013-07-28T13:05:37Z</time>
      </trkpt>
      <trkpt lat="44.75086" lon="-0.37308">
        <ele>62</ele>
        <time>2013-07-28T13:05:45Z</time>
      </trkpt>
      <trkpt lat="44.75094" lon="-0.3732">
        <ele>65</ele>
        <time>2013-07-28T13:05:53Z</time>
      </trkpt>
      <trkpt lat="44.75096" lon="-0.37323">
        <ele>65</ele>
        <time>2013-07-28T13:05:55Z</time>
      </trkpt>
      <trkpt lat="44.75106" lon="-0.37336">
        <ele>66</ele>
        <time>2013-07-28T13:06:04Z</time>
      </trkpt>
      <trkpt lat="44.75116" lon="-0.37338">
        <ele>67</ele>
        <time>2013-07-28T13:06:12Z</time>
      </trkpt>
      <trkpt lat="44.75117" lon="-0.37337">
        <ele>67</ele>
        <time>2013-07-28T13:06:13Z</time>
      </trkpt>
      <trkpt lat="44.75118" lon="-0.37335">
        <ele>68</ele>
        <time>2013-07-28T13:06:15Z</time>
      </trkpt>
      <trkpt lat="44.75125" lon="-0.37336">
        <ele>68</ele>
        <time>2013-07-28T13:06:20Z</time>
      </trkpt>
      <trkpt lat="44.75135" lon="-0.3735">
        <ele>70</ele>
        <time>2013-07-28T13:06:31Z</time>
      </trkpt>
      <trkpt lat="44.75139" lon="-0.37357">
        <ele>70</ele>
        <time>2013-07-28T13:06:36Z</time>
      </trkpt>
      <trkpt lat="44.75149" lon="-0.3737">
        <ele>72</ele>
        <time>2013-07-28T13:06:46Z</time>
      </trkpt>
      <trkpt lat="44.75157" lon="-0.37384">
        <ele>73</ele>
        <time>2013-07-28T13:06:54Z</time>
      </trkpt>
      <trkpt lat="44.75163" lon="-0.37397">
        <ele>74</ele>
        <time>2013-07-28T13:07:01Z</time>
      </trkpt>
      <trkpt lat="44.7517" lon="-0.37409">
        <ele>74</ele>
        <time>2013-07-28T13:07:08Z</time>
      </trkpt>
      <trkpt lat="44.75171" lon="-0.3741">
        <ele>74</ele>
        <time>2013-07-28T13:07:09Z</time>
      </trkpt>
      <trkpt lat="44.75176" lon="-0.37417">
        <ele>74</ele>
        <time>2013-07-28T13:07:16Z</time>
      </trkpt>
      <trkpt lat="44.75176" lon="-0.37418">
        <ele>74</ele>
        <time>2013-07-28T13:07:27Z</time>
      </trkpt>
      <trkpt lat="44.75176" lon="-0.37419">
        <ele>74</ele>
        <time>2013-07-28T13:07:43Z</time>
      </trkpt>
      <trkpt lat="44.75176" lon="-0.37419">
        <ele>74</ele>
        <time>2013-07-28T13:07:56Z</time>
      </trkpt>
      <trkpt lat="44.75178" lon="-0.37421">
        <ele>74</ele>
        <time>2013-07-28T13:07:59Z</time>
      </trkpt>
      <trkpt lat="44.75185" lon="-0.3743">
        <ele>74</ele>
        <time>2013-07-28T13:08:06Z</time>
      </trkpt>
      <trkpt lat="44.75192" lon="-0.37446">
        <ele>74</ele>
        <time>2013-07-28T13:08:14Z</time>
      </trkpt>
      <trkpt lat="44.75194" lon="-0.37451">
        <ele>74</ele>
        <time>2013-07-28T13:08:17Z</time>
      </trkpt>
      <trkpt lat="44.75227" lon="-0.37454">
        <ele>76</ele>
        <time>2013-07-28T13:08:25Z</time>
      </trkpt>
      <trkpt lat="44.7525" lon="-0.37459">
        <ele>78</ele>
        <time>2013-07-28T13:08:32Z</time>
      </trkpt>
      <trkpt lat="44.75273" lon="-0.37459">
        <ele>79</ele>
        <time>2013-07-28T13:08:41Z</time>
      </trkpt>
      <trkpt lat="44.75284" lon="-0.37457">
        <ele>80</ele>
        <time>2013-07-28T13:08:47Z</time>
      </trkpt>
      <trkpt lat="44.75295" lon="-0.37449">
        <ele>80</ele>
        <time>2013-07-28T13:08:54Z</time>
      </trkpt>
      <trkpt lat="44.75304" lon="-0.37437">
        <ele>80</ele>
        <time>2013-07-28T13:09:01Z</time>
      </trkpt>
      <trkpt lat="44.75315" lon="-0.37425">
        <ele>79</ele>
        <time>2013-07-28T13:09:09Z</time>
      </trkpt>
      <trkpt lat="44.75316" lon="-0.37424">
        <ele>79</ele>
        <time>2013-07-28T13:09:16Z</time>
      </trkpt>
      <trkpt lat="44.75317" lon="-0.37426">
        <ele>79</ele>
        <time>2013-07-28T13:09:22Z</time>
      </trkpt>
      <trkpt lat="44.75317" lon="-0.37426">
        <ele>79</ele>
        <time>2013-07-28T13:09:34Z</time>
      </trkpt>
      <trkpt lat="44.75316" lon="-0.37426">
        <ele>79</ele>
        <time>2013-07-28T13:09:48Z</time>
      </trkpt>
      <trkpt lat="44.75316" lon="-0.37426">
        <ele>79</ele>
        <time>2013-07-28T13:10:00Z</time>
      </trkpt>
      <trkpt lat="44.75316" lon="-0.37425">
        <ele>79</ele>
        <time>2013-07-28T13:10:11Z</time>
      </trkpt>
      <trkpt lat="44.75316" lon="-0.37426">
        <ele>79</ele>
        <time>2013-07-28T13:10:21Z</time>
      </trkpt>
      <trkpt lat="44.75316" lon="-0.37426">
        <ele>79</ele>
        <time>2013-07-28T13:10:30Z</time>
      </trkpt>
      <trkpt lat="44.75316" lon="-0.37425">
        <ele>79</ele>
        <time>2013-07-28T13:10:44Z</time>
      </trkpt>
      <trkpt lat="44.75315" lon="-0.37425">
        <ele>79</ele>
        <time>2013-07-28T13:10:59Z</time>
      </trkpt>
      <trkpt lat="44.75315" lon="-0.37425">
        <ele>79</ele>
        <time>2013-07-28T13:11:10Z</time>
      </trkpt>
      <trkpt lat="44.75323" lon="-0.37434">
        <ele>79</ele>
        <time>2013-07-28T13:11:15Z</time>
      </trkpt>
      <trkpt lat="44.75336" lon="-0.37455">
        <ele>79</ele>
        <time>2013-07-28T13:11:23Z</time>
      </trkpt>
      <trkpt lat="44.75354" lon="-0.37481">
        <ele>79</ele>
        <time>2013-07-28T13:11:30Z</time>
      </trkpt>
      <trkpt lat="44.75367" lon="-0.37514">
        <ele>80</ele>
        <time>2013-07-28T13:11:37Z</time>
      </trkpt>
      <trkpt lat="44.75373" lon="-0.37547">
        <ele>80</ele>
        <time>2013-07-28T13:11:44Z</time>
      </trkpt>
      <trkpt lat="44.7538" lon="-0.37592">
        <ele>80</ele>
        <time>2013-07-28T13:11:53Z</time>
      </trkpt>
      <trkpt lat="44.75385" lon="-0.37615">
        <ele>79</ele>
        <time>2013-07-28T13:11:58Z</time>
      </trkpt>
      <trkpt lat="44.75391" lon="-0.37641">
        <ele>79</ele>
        <time>2013-07-28T13:12:03Z</time>
      </trkpt>
      <trkpt lat="44.75395" lon="-0.37683">
        <ele>80</ele>
        <time>2013-07-28T13:12:10Z</time>
      </trkpt>
      <trkpt lat="44.75396" lon="-0.37688">
        <ele>80</ele>
        <time>2013-07-28T13:12:11Z</time>
      </trkpt>
      <trkpt lat="44.75397" lon="-0.37701">
        <ele>80</ele>
        <time>2013-07-28T13:12:13Z</time>
      </trkpt>
      <trkpt lat="44.75397" lon="-0.37707">
        <ele>80</ele>
        <time>2013-07-28T13:12:14Z</time>
      </trkpt>
      <trkpt lat="44.75399" lon="-0.37724">
        <ele>81</ele>
        <time>2013-07-28T13:12:17Z</time>
      </trkpt>
      <trkpt lat="44.75399" lon="-0.3773">
        <ele>81</ele>
        <time>2013-07-28T13:12:18Z</time>
      </trkpt>
      <trkpt lat="44.75402" lon="-0.37778">
        <ele>83</ele>
        <time>2013-07-28T13:12:25Z</time>
      </trkpt>
      <trkpt lat="44.75399" lon="-0.37836">
        <ele>84</ele>
        <time>2013-07-28T13:12:34Z</time>
      </trkpt>
      <trkpt lat="44.75406" lon="-0.37896">
        <ele>85</ele>
        <time>2013-07-28T13:12:43Z</time>
      </trkpt>
      <trkpt lat="44.75427" lon="-0.37951">
        <ele>88</ele>
        <time>2013-07-28T13:12:52Z</time>
      </trkpt>
      <trkpt lat="44.75453" lon="-0.37992">
        <ele>89</ele>
        <time>2013-07-28T13:13:01Z</time>
      </trkpt>
      <trkpt lat="44.75479" lon="-0.38035">
        <ele>88</ele>
        <time>2013-07-28T13:13:10Z</time>
      </trkpt>
      <trkpt lat="44.75504" lon="-0.38084">
        <ele>86</ele>
        <time>2013-07-28T13:13:20Z</time>
      </trkpt>
      <trkpt lat="44.75507" lon="-0.38086">
        <ele>86</ele>
        <time>2013-07-28T13:13:21Z</time>
      </trkpt>
      <trkpt lat="44.7551" lon="-0.38087">
        <ele>86</ele>
        <time>2013-07-28T13:13:22Z</time>
      </trkpt>
      <trkpt lat="44.75513" lon="-0.38085">
        <ele>86</ele>
        <time>2013-07-28T13:13:23Z</time>
      </trkpt>
      <trkpt lat="44.75516" lon="-0.38082">
        <ele>86</ele>
        <time>2013-07-28T13:13:24Z</time>
      </trkpt>
      <trkpt lat="44.75519" lon="-0.38078">
        <ele>86</ele>
        <time>2013-07-28T13:13:25Z</time>
      </trkpt>
      <trkpt lat="44.75521" lon="-0.38074">
        <ele>86</ele>
        <time>2013-07-28T13:13:26Z</time>
      </trkpt>
      <trkpt lat="44.75537" lon="-0.3805">
        <ele>86</ele>
        <time>2013-07-28T13:13:34Z</time>
      </trkpt>
      <trkpt lat="44.75538" lon="-0.38049">
        <ele>86</ele>
        <time>2013-07-28T13:13:35Z</time>
      </trkpt>
      <trkpt lat="44.75539" lon="-0.3805">
        <ele>86</ele>
        <time>2013-07-28T13:13:36Z</time>
      </trkpt>
      <trkpt lat="44.7554" lon="-0.38051">
        <ele>86</ele>
        <time>2013-07-28T13:13:37Z</time>
      </trkpt>
      <trkpt lat="44.75541" lon="-0.38052">
        <ele>86</ele>
        <time>2013-07-28T13:13:43Z</time>
      </trkpt>
      <trkpt lat="44.75541" lon="-0.38052">
        <ele>86</ele>
        <time>2013-07-28T13:14:02Z</time>
      </trkpt>
      <trkpt lat="44.75541" lon="-0.38053">
        <ele>86</ele>
        <time>2013-07-28T13:14:10Z</time>
      </trkpt>
      <trkpt lat="44.75543" lon="-0.38053">
        <ele>86</ele>
        <time>2013-07-28T13:14:11Z</time>
      </trkpt>
      <trkpt lat="44.75546" lon="-0.38056">
        <ele>85</ele>
        <time>2013-07-28T13:14:12Z</time>
      </trkpt>
      <trkpt lat="44.75548" lon="-0.38059">
        <ele>85</ele>
        <time>2013-07-28T13:14:13Z</time>
      </trkpt>
      <trkpt lat="44.7555" lon="-0.38064">
        <ele>85</ele>
        <time>2013-07-28T13:14:14Z</time>
      </trkpt>
      <trkpt lat="44.75559" lon="-0.38092">
        <ele>83</ele>
        <time>2013-07-28T13:14:21Z</time>
      </trkpt>
      <trkpt lat="44.75569" lon="-0.38124">
        <ele>81</ele>
        <time>2013-07-28T13:14:30Z</time>
      </trkpt>
      <trkpt lat="44.75575" lon="-0.3814">
        <ele>80</ele>
        <time>2013-07-28T13:14:36Z</time>
      </trkpt>
      <trkpt lat="44.75583" lon="-0.38157">
        <ele>79</ele>
        <time>2013-07-28T13:14:41Z</time>
      </trkpt>
      <trkpt lat="44.75594" lon="-0.38179">
        <ele>78</ele>
        <time>2013-07-28T13:14:47Z</time>
      </trkpt>
      <trkpt lat="44.75601" lon="-0.3819">
        <ele>77</ele>
        <time>2013-07-28T13:14:53Z</time>
      </trkpt>
      <trkpt lat="44.75604" lon="-0.38202">
        <ele>77</ele>
        <time>2013-07-28T13:14:59Z</time>
      </trkpt>
      <trkpt lat="44.7561" lon="-0.3821">
        <ele>76</ele>
        <time>2013-07-28T13:15:05Z</time>
      </trkpt>
      <trkpt lat="44.75614" lon="-0.38216">
        <ele>75</ele>
        <time>2013-07-28T13:15:08Z</time>
      </trkpt>
      <trkpt lat="44.75625" lon="-0.38222">
        <ele>74</ele>
        <time>2013-07-28T13:15:11Z</time>
      </trkpt>
      <trkpt lat="44.75629" lon="-0.38224">
        <ele>74</ele>
        <time>2013-07-28T13:15:12Z</time>
      </trkpt>
      <trkpt lat="44.75645" lon="-0.38233">
        <ele>73</ele>
        <time>2013-07-28T13:15:18Z</time>
      </trkpt>
      <trkpt lat="44.75647" lon="-0.38236">
        <ele>73</ele>
        <time>2013-07-28T13:15:26Z</time>
      </trkpt>
      <trkpt lat="44.7565" lon="-0.38235">
        <ele>73</ele>
        <time>2013-07-28T13:15:36Z</time>
      </trkpt>
      <trkpt lat="44.75661" lon="-0.38235">
        <ele>72</ele>
        <time>2013-07-28T13:15:45Z</time>
      </trkpt>
      <trkpt lat="44.75665" lon="-0.38234">
        <ele>72</ele>
        <time>2013-07-28T13:15:49Z</time>
      </trkpt>
      <trkpt lat="44.75683" lon="-0.38227">
        <ele>72</ele>
        <time>2013-07-28T13:15:55Z</time>
      </trkpt>
      <trkpt lat="44.75701" lon="-0.38218">
        <ele>72</ele>
        <time>2013-07-28T13:16:00Z</time>
      </trkpt>
      <trkpt lat="44.75708" lon="-0.38215">
        <ele>73</ele>
        <time>2013-07-28T13:16:02Z</time>
      </trkpt>
      <trkpt lat="44.75711" lon="-0.38213">
        <ele>73</ele>
        <time>2013-07-28T13:16:03Z</time>
      </trkpt>
      <trkpt lat="44.75713" lon="-0.38212">
        <ele>73</ele>
        <time>2013-07-28T13:16:04Z</time>
      </trkpt>
      <trkpt lat="44.75715" lon="-0.3821">
        <ele>73</ele>
        <time>2013-07-28T13:16:05Z</time>
      </trkpt>
      <trkpt lat="44.75717" lon="-0.38208">
        <ele>73</ele>
        <time>2013-07-28T13:16:06Z</time>
      </trkpt>
      <trkpt lat="44.75719" lon="-0.38205">
        <ele>73</ele>
        <time>2013-07-28T13:16:07Z</time>
      </trkpt>
      <trkpt lat="44.75733" lon="-0.38203">
        <ele>73</ele>
        <time>2013-07-28T13:16:12Z</time>
      </trkpt>
      <trkpt lat="44.75752" lon="-0.38203">
        <ele>72</ele>
        <time>2013-07-28T13:16:17Z</time>
      </trkpt>
      <trkpt lat="44.75763" lon="-0.38204">
        <ele>72</ele>
        <time>2013-07-28T13:16:21Z</time>
      </trkpt>
      <trkpt lat="44.75783" lon="-0.38222">
        <ele>72</ele>
        <time>2013-07-28T13:16:28Z</time>
      </trkpt>
      <trkpt lat="44.75803" lon="-0.3824">
        <ele>73</ele>
        <time>2013-07-28T13:16:35Z</time>
      </trkpt>
      <trkpt lat="44.75805" lon="-0.38242">
        <ele>74</ele>
        <time>2013-07-28T13:16:36Z</time>
      </trkpt>
      <trkpt lat="44.75808" lon="-0.38245">
        <ele>74</ele>
        <time>2013-07-28T13:16:37Z</time>
      </trkpt>
      <trkpt lat="44.7581" lon="-0.38247">
        <ele>74</ele>
        <time>2013-07-28T13:16:38Z</time>
      </trkpt>
      <trkpt lat="44.75813" lon="-0.38249">
        <ele>74</ele>
        <time>2013-07-28T13:16:39Z</time>
      </trkpt>
      <trkpt lat="44.75829" lon="-0.38263">
        <ele>75</ele>
        <time>2013-07-28T13:16:45Z</time>
      </trkpt>
      <trkpt lat="44.75844" lon="-0.38275">
        <ele>75</ele>
        <time>2013-07-28T13:16:52Z</time>
      </trkpt>
      <trkpt lat="44.75859" lon="-0.38284">
        <ele>76</ele>
        <time>2013-07-28T13:16:58Z</time>
      </trkpt>
      <trkpt lat="44.75879" lon="-0.38295">
        <ele>76</ele>
        <time>2013-07-28T13:17:05Z</time>
      </trkpt>
      <trkpt lat="44.75899" lon="-0.38306">
        <ele>76</ele>
        <time>2013-07-28T13:17:13Z</time>
      </trkpt>
      <trkpt lat="44.75912" lon="-0.38321">
        <ele>77</ele>
        <time>2013-07-28T13:17:19Z</time>
      </trkpt>
      <trkpt lat="44.75918" lon="-0.38322">
        <ele>78</ele>
        <time>2013-07-28T13:17:26Z</time>
      </trkpt>
      <trkpt lat="44.75918" lon="-0.38321">
        <ele>78</ele>
        <time>2013-07-28T13:17:28Z</time>
      </trkpt>
      <trkpt lat="44.75918" lon="-0.38319">
        <ele>78</ele>
        <time>2013-07-28T13:17:29Z</time>
      </trkpt>
      <trkpt lat="44.75918" lon="-0.38316">
        <ele>78</ele>
        <time>2013-07-28T13:17:30Z</time>
      </trkpt>
      <trkpt lat="44.75911" lon="-0.38292">
        <ele>79</ele>
        <time>2013-07-28T13:17:39Z</time>
      </trkpt>
      <trkpt lat="44.75901" lon="-0.3826">
        <ele>81</ele>
        <time>2013-07-28T13:17:48Z</time>
      </trkpt>
      <trkpt lat="44.75894" lon="-0.38228">
        <ele>82</ele>
        <time>2013-07-28T13:17:56Z</time>
      </trkpt>
      <trkpt lat="44.75888" lon="-0.38178">
        <ele>85</ele>
        <time>2013-07-28T13:18:07Z</time>
      </trkpt>
      <trkpt lat="44.75896" lon="-0.38134">
        <ele>86</ele>
        <time>2013-07-28T13:18:16Z</time>
      </trkpt>
      <trkpt lat="44.75914" lon="-0.38087">
        <ele>87</ele>
        <time>2013-07-28T13:18:27Z</time>
      </trkpt>
      <trkpt lat="44.75927" lon="-0.38041">
        <ele>88</ele>
        <time>2013-07-28T13:18:37Z</time>
      </trkpt>
      <trkpt lat="44.75929" lon="-0.37999">
        <ele>88</ele>
        <time>2013-07-28T13:18:47Z</time>
      </trkpt>
      <trkpt lat="44.75928" lon="-0.37984">
        <ele>89</ele>
        <time>2013-07-28T13:18:54Z</time>
      </trkpt>
      <trkpt lat="44.75928" lon="-0.37968">
        <ele>89</ele>
        <time>2013-07-28T13:19:00Z</time>
      </trkpt>
      <trkpt lat="44.75924" lon="-0.37955">
        <ele>90</ele>
        <time>2013-07-28T13:19:06Z</time>
      </trkpt>
      <trkpt lat="44.75923" lon="-0.37952">
        <ele>90</ele>
        <time>2013-07-28T13:19:07Z</time>
      </trkpt>
      <trkpt lat="44.75922" lon="-0.37949">
        <ele>90</ele>
        <time>2013-07-28T13:19:08Z</time>
      </trkpt>
      <trkpt lat="44.75921" lon="-0.37945">
        <ele>90</ele>
        <time>2013-07-28T13:19:09Z</time>
      </trkpt>
      <trkpt lat="44.75919" lon="-0.37942">
        <ele>90</ele>
        <time>2013-07-28T13:19:10Z</time>
      </trkpt>
      <trkpt lat="44.75908" lon="-0.3791">
        <ele>91</ele>
        <time>2013-07-28T13:19:18Z</time>
      </trkpt>
      <trkpt lat="44.759" lon="-0.3789">
        <ele>92</ele>
        <time>2013-07-28T13:19:25Z</time>
      </trkpt>
      <trkpt lat="44.75899" lon="-0.37886">
        <ele>92</ele>
        <time>2013-07-28T13:19:27Z</time>
      </trkpt>
      <trkpt lat="44.75905" lon="-0.37881">
        <ele>93</ele>
        <time>2013-07-28T13:19:32Z</time>
      </trkpt>
      <trkpt lat="44.75909" lon="-0.37881">
        <ele>93</ele>
        <time>2013-07-28T13:19:34Z</time>
      </trkpt>
      <trkpt lat="44.75928" lon="-0.37871">
        <ele>94</ele>
        <time>2013-07-28T13:19:43Z</time>
      </trkpt>
      <trkpt lat="44.75946" lon="-0.37862">
        <ele>94</ele>
        <time>2013-07-28T13:19:50Z</time>
      </trkpt>
      <trkpt lat="44.75966" lon="-0.37851">
        <ele>95</ele>
        <time>2013-07-28T13:19:59Z</time>
      </trkpt>
      <trkpt lat="44.75982" lon="-0.37847">
        <ele>95</ele>
        <time>2013-07-28T13:20:06Z</time>
      </trkpt>
      <trkpt lat="44.75984" lon="-0.37847">
        <ele>95</ele>
        <time>2013-07-28T13:20:07Z</time>
      </trkpt>
      <trkpt lat="44.75993" lon="-0.3785">
        <ele>95</ele>
        <time>2013-07-28T13:20:14Z</time>
      </trkpt>
      <trkpt lat="44.75993" lon="-0.3785">
        <ele>95</ele>
        <time>2013-07-28T13:20:30Z</time>
      </trkpt>
      <trkpt lat="44.75995" lon="-0.37849">
        <ele>95</ele>
        <time>2013-07-28T13:20:40Z</time>
      </trkpt>
      <trkpt lat="44.76003" lon="-0.37849">
        <ele>95</ele>
        <time>2013-07-28T13:20:45Z</time>
      </trkpt>
      <trkpt lat="44.76028" lon="-0.3786">
        <ele>94</ele>
        <time>2013-07-28T13:20:53Z</time>
      </trkpt>
      <trkpt lat="44.76053" lon="-0.37875">
        <ele>93</ele>
        <time>2013-07-28T13:21:02Z</time>
      </trkpt>
      <trkpt lat="44.76067" lon="-0.37875">
        <ele>93</ele>
        <time>2013-07-28T13:21:10Z</time>
      </trkpt>
      <trkpt lat="44.76086" lon="-0.3789">
        <ele>92</ele>
        <time>2013-07-28T13:21:19Z</time>
      </trkpt>
      <trkpt lat="44.7611" lon="-0.37902">
        <ele>91</ele>
        <time>2013-07-28T13:21:27Z</time>
      </trkpt>
      <trkpt lat="44.7613" lon="-0.37924">
        <ele>91</ele>
        <time>2013-07-28T13:21:36Z</time>
      </trkpt>
      <trkpt lat="44.76141" lon="-0.37935">
        <ele>90</ele>
        <time>2013-07-28T13:21:44Z</time>
      </trkpt>
      <trkpt lat="44.7616" lon="-0.3796">
        <ele>90</ele>
        <time>2013-07-28T13:21:53Z</time>
      </trkpt>
      <trkpt lat="44.76178" lon="-0.37988">
        <ele>88</ele>
        <time>2013-07-28T13:22:02Z</time>
      </trkpt>
      <trkpt lat="44.76194" lon="-0.38008">
        <ele>87</ele>
        <time>2013-07-28T13:22:11Z</time>
      </trkpt>
      <trkpt lat="44.76202" lon="-0.38017">
        <ele>86</ele>
        <time>2013-07-28T13:22:16Z</time>
      </trkpt>
      <trkpt lat="44.76219" lon="-0.38024">
        <ele>83</ele>
        <time>2013-07-28T13:22:24Z</time>
      </trkpt>
      <trkpt lat="44.76236" lon="-0.38018">
        <ele>80</ele>
        <time>2013-07-28T13:22:33Z</time>
      </trkpt>
      <trkpt lat="44.76243" lon="-0.38017">
        <ele>79</ele>
        <time>2013-07-28T13:22:42Z</time>
      </trkpt>
      <trkpt lat="44.76243" lon="-0.3802">
        <ele>79</ele>
        <time>2013-07-28T13:22:55Z</time>
      </trkpt>
      <trkpt lat="44.76243" lon="-0.38023">
        <ele>79</ele>
        <time>2013-07-28T13:23:05Z</time>
      </trkpt>
      <trkpt lat="44.76245" lon="-0.38032">
        <ele>78</ele>
        <time>2013-07-28T13:23:19Z</time>
      </trkpt>
      <trkpt lat="44.76247" lon="-0.38031">
        <ele>78</ele>
        <time>2013-07-28T13:23:20Z</time>
      </trkpt>
      <trkpt lat="44.76246" lon="-0.38023">
        <ele>78</ele>
        <time>2013-07-28T13:23:29Z</time>
      </trkpt>
      <trkpt lat="44.7625" lon="-0.3802">
        <ele>77</ele>
        <time>2013-07-28T13:23:38Z</time>
      </trkpt>
      <trkpt lat="44.76252" lon="-0.38019">
        <ele>77</ele>
        <time>2013-07-28T13:23:50Z</time>
      </trkpt>
      <trkpt lat="44.76253" lon="-0.38018">
        <ele>77</ele>
        <time>2013-07-28T13:24:01Z</time>
      </trkpt>
      <trkpt lat="44.76255" lon="-0.3802">
        <ele>76</ele>
        <time>2013-07-28T13:24:12Z</time>
      </trkpt>
      <trkpt lat="44.76263" lon="-0.38027">
        <ele>76</ele>
        <time>2013-07-28T13:24:20Z</time>
      </trkpt>
      <trkpt lat="44.76271" lon="-0.38033">
        <ele>76</ele>
        <time>2013-07-28T13:24:29Z</time>
      </trkpt>
      <trkpt lat="44.76277" lon="-0.38043">
        <ele>75</ele>
        <time>2013-07-28T13:24:39Z</time>
      </trkpt>
      <trkpt lat="44.7628" lon="-0.38052">
        <ele>75</ele>
        <time>2013-07-28T13:24:44Z</time>
      </trkpt>
      <trkpt lat="44.76286" lon="-0.38079">
        <ele>75</ele>
        <time>2013-07-28T13:24:55Z</time>
      </trkpt>
      <trkpt lat="44.76291" lon="-0.38088">
        <ele>75</ele>
        <time>2013-07-28T13:25:04Z</time>
      </trkpt>
      <trkpt lat="44.76291" lon="-0.38091">
        <ele>75</ele>
        <time>2013-07-28T13:25:15Z</time>
      </trkpt>
      <trkpt lat="44.76291" lon="-0.38091">
        <ele>75</ele>
        <time>2013-07-28T13:25:33Z</time>
      </trkpt>
      <trkpt lat="44.76291" lon="-0.38091">
        <ele>75</ele>
        <time>2013-07-28T13:25:47Z</time>
      </trkpt>
      <trkpt lat="44.76291" lon="-0.38102">
        <ele>75</ele>
        <time>2013-07-28T13:25:54Z</time>
      </trkpt>
      <trkpt lat="44.76292" lon="-0.38115">
        <ele>75</ele>
        <time>2013-07-28T13:26:02Z</time>
      </trkpt>
      <trkpt lat="44.76292" lon="-0.38118">
        <ele>75</ele>
        <time>2013-07-28T13:26:04Z</time>
      </trkpt>
      <trkpt lat="44.76289" lon="-0.38126">
        <ele>75</ele>
        <time>2013-07-28T13:26:08Z</time>
      </trkpt>
      <trkpt lat="44.76286" lon="-0.38148">
        <ele>75</ele>
        <time>2013-07-28T13:26:18Z</time>
      </trkpt>
      <trkpt lat="44.76283" lon="-0.38159">
        <ele>74</ele>
        <time>2013-07-28T13:26:23Z</time>
      </trkpt>
      <trkpt lat="44.76275" lon="-0.38175">
        <ele>74</ele>
        <time>2013-07-28T13:26:33Z</time>
      </trkpt>
      <trkpt lat="44.76273" lon="-0.38188">
        <ele>73</ele>
        <time>2013-07-28T13:26:42Z</time>
      </trkpt>
      <trkpt lat="44.76265" lon="-0.38215">
        <ele>72</ele>
        <time>2013-07-28T13:26:50Z</time>
      </trkpt>
      <trkpt lat="44.76253" lon="-0.38236">
        <ele>71</ele>
        <time>2013-07-28T13:26:59Z</time>
      </trkpt>
      <trkpt lat="44.76244" lon="-0.38249">
        <ele>71</ele>
        <time>2013-07-28T13:27:09Z</time>
      </trkpt>
      <trkpt lat="44.76238" lon="-0.38255">
        <ele>72</ele>
        <time>2013-07-28T13:27:18Z</time>
      </trkpt>
      <trkpt lat="44.7623" lon="-0.38271">
        <ele>72</ele>
        <time>2013-07-28T13:27:25Z</time>
      </trkpt>
      <trkpt lat="44.76219" lon="-0.38301">
        <ele>72</ele>
        <time>2013-07-28T13:27:34Z</time>
      </trkpt>
      <trkpt lat="44.76203" lon="-0.3832">
        <ele>71</ele>
        <time>2013-07-28T13:27:40Z</time>
      </trkpt>
      <trkpt lat="44.762" lon="-0.38325">
        <ele>71</ele>
        <time>2013-07-28T13:27:48Z</time>
      </trkpt>
      <trkpt lat="44.76202" lon="-0.38331">
        <ele>71</ele>
        <time>2013-07-28T13:27:52Z</time>
      </trkpt>
      <trkpt lat="44.76204" lon="-0.38355">
        <ele>70</ele>
        <time>2013-07-28T13:27:58Z</time>
      </trkpt>
      <trkpt lat="44.76206" lon="-0.38391">
        <ele>69</ele>
        <time>2013-07-28T13:28:07Z</time>
      </trkpt>
      <trkpt lat="44.76216" lon="-0.3842">
        <ele>69</ele>
        <time>2013-07-28T13:28:15Z</time>
      </trkpt>
      <trkpt lat="44.7624" lon="-0.38457">
        <ele>71</ele>
        <time>2013-07-28T13:28:24Z</time>
      </trkpt>
      <trkpt lat="44.76256" lon="-0.38498">
        <ele>74</ele>
        <time>2013-07-28T13:28:32Z</time>
      </trkpt>
      <trkpt lat="44.76258" lon="-0.38539">
        <ele>75</ele>
        <time>2013-07-28T13:28:40Z</time>
      </trkpt>
      <trkpt lat="44.76258" lon="-0.38575">
        <ele>76</ele>
        <time>2013-07-28T13:28:47Z</time>
      </trkpt>
      <trkpt lat="44.76268" lon="-0.38598">
        <ele>77</ele>
        <time>2013-07-28T13:28:53Z</time>
      </trkpt>
      <trkpt lat="44.7629" lon="-0.38609">
        <ele>79</ele>
        <time>2013-07-28T13:29:00Z</time>
      </trkpt>
      <trkpt lat="44.76321" lon="-0.38622">
        <ele>82</ele>
        <time>2013-07-28T13:29:09Z</time>
      </trkpt>
      <trkpt lat="44.76357" lon="-0.38632">
        <ele>85</ele>
        <time>2013-07-28T13:29:19Z</time>
      </trkpt>
      <trkpt lat="44.76391" lon="-0.38639">
        <ele>87</ele>
        <time>2013-07-28T13:29:31Z</time>
      </trkpt>
      <trkpt lat="44.76411" lon="-0.38643">
        <ele>88</ele>
        <time>2013-07-28T13:29:40Z</time>
      </trkpt>
      <trkpt lat="44.76421" lon="-0.38645">
        <ele>88</ele>
        <time>2013-07-28T13:29:47Z</time>
      </trkpt>
      <trkpt lat="44.76437" lon="-0.38647">
        <ele>88</ele>
        <time>2013-07-28T13:29:57Z</time>
      </trkpt>
      <trkpt lat="44.7644" lon="-0.38647">
        <ele>88</ele>
        <time>2013-07-28T13:30:04Z</time>
      </trkpt>
      <trkpt lat="44.7644" lon="-0.38648">
        <ele>88</ele>
        <time>2013-07-28T13:30:18Z</time>
      </trkpt>
      <trkpt lat="44.7644" lon="-0.38648">
        <ele>88</ele>
        <time>2013-07-28T13:30:31Z</time>
      </trkpt>
      <trkpt lat="44.76441" lon="-0.38647">
        <ele>88</ele>
        <time>2013-07-28T13:30:35Z</time>
      </trkpt>
      <trkpt lat="44.76442" lon="-0.38644">
        <ele>88</ele>
        <time>2013-07-28T13:30:42Z</time>
      </trkpt>
      <trkpt lat="44.76444" lon="-0.38642">
        <ele>88</ele>
        <time>2013-07-28T13:30:51Z</time>
      </trkpt>
      <trkpt lat="44.76448" lon="-0.3862">
        <ele>88</ele>
        <time>2013-07-28T13:30:58Z</time>
      </trkpt>
      <trkpt lat="44.76454" lon="-0.38586">
        <ele>88</ele>
        <time>2013-07-28T13:31:08Z</time>
      </trkpt>
      <trkpt lat="44.76456" lon="-0.38566">
        <ele>88</ele>
        <time>2013-07-28T13:31:17Z</time>
      </trkpt>
      <trkpt lat="44.76458" lon="-0.38563">
        <ele>88</ele>
        <time>2013-07-28T13:31:19Z</time>
      </trkpt>
      <trkpt lat="44.76477" lon="-0.38567">
        <ele>88</ele>
        <time>2013-07-28T13:31:30Z</time>
      </trkpt>
      <trkpt lat="44.76496" lon="-0.38567">
        <ele>89</ele>
        <time>2013-07-28T13:31:37Z</time>
      </trkpt>
      <trkpt lat="44.76523" lon="-0.3857">
        <ele>89</ele>
        <time>2013-07-28T13:31:45Z</time>
      </trkpt>
      <trkpt lat="44.76557" lon="-0.38575">
        <ele>88</ele>
        <time>2013-07-28T13:31:53Z</time>
      </trkpt>
      <trkpt lat="44.76579" lon="-0.38576">
        <ele>88</ele>
        <time>2013-07-28T13:31:58Z</time>
      </trkpt>
      <trkpt lat="44.76613" lon="-0.38579">
        <ele>88</ele>
        <time>2013-07-28T13:32:07Z</time>
      </trkpt>
      <trkpt lat="44.76626" lon="-0.38578">
        <ele>88</ele>
        <time>2013-07-28T13:32:15Z</time>
      </trkpt>
      <trkpt lat="44.76626" lon="-0.38578">
        <ele>88</ele>
        <time>2013-07-28T13:32:21Z</time>
      </trkpt>
      <trkpt lat="44.76624" lon="-0.38579">
        <ele>88</ele>
        <time>2013-07-28T13:32:26Z</time>
      </trkpt>
      <trkpt lat="44.76621" lon="-0.38576">
        <ele>88</ele>
        <time>2013-07-28T13:32:31Z</time>
      </trkpt>
      <trkpt lat="44.7662" lon="-0.38572">
        <ele>88</ele>
        <time>2013-07-28T13:32:34Z</time>
      </trkpt>
      <trkpt lat="44.7662" lon="-0.38567">
        <ele>88</ele>
        <time>2013-07-28T13:32:39Z</time>
      </trkpt>
      <trkpt lat="44.76628" lon="-0.38564">
        <ele>88</ele>
        <time>2013-07-28T13:32:48Z</time>
      </trkpt>
      <trkpt lat="44.76631" lon="-0.38562">
        <ele>88</ele>
        <time>2013-07-28T13:32:52Z</time>
      </trkpt>
      <trkpt lat="44.76647" lon="-0.38562">
        <ele>88</ele>
        <time>2013-07-28T13:33:03Z</time>
      </trkpt>
      <trkpt lat="44.76664" lon="-0.38561">
        <ele>88</ele>
        <time>2013-07-28T13:33:12Z</time>
      </trkpt>
      <trkpt lat="44.76682" lon="-0.38558">
        <ele>88</ele>
        <time>2013-07-28T13:33:21Z</time>
      </trkpt>
      <trkpt lat="44.76693" lon="-0.38558">
        <ele>88</ele>
        <time>2013-07-28T13:33:28Z</time>
      </trkpt>
      <trkpt lat="44.76694" lon="-0.38559">
        <ele>88</ele>
        <time>2013-07-28T13:33:33Z</time>
      </trkpt>
      <trkpt lat="44.76698" lon="-0.38562">
        <ele>88</ele>
        <time>2013-07-28T13:33:44Z</time>
      </trkpt>
      <trkpt lat="44.76699" lon="-0.38563">
        <ele>88</ele>
        <time>2013-07-28T13:33:53Z</time>
      </trkpt>
      <trkpt lat="44.7671" lon="-0.38563">
        <ele>88</ele>
        <time>2013-07-28T13:34:02Z</time>
      </trkpt>
      <trkpt lat="44.7673" lon="-0.38561">
        <ele>87</ele>
        <time>2013-07-28T13:34:09Z</time>
      </trkpt>
      <trkpt lat="44.7676" lon="-0.38555">
        <ele>87</ele>
        <time>2013-07-28T13:34:16Z</time>
      </trkpt>
      <trkpt lat="44.76802" lon="-0.38558">
        <ele>86</ele>
        <time>2013-07-28T13:34:25Z</time>
      </trkpt>
      <trkpt lat="44.76823" lon="-0.38562">
        <ele>85</ele>
        <time>2013-07-28T13:34:29Z</time>
      </trkpt>
      <trkpt lat="44.76856" lon="-0.3857">
        <ele>83</ele>
        <time>2013-07-28T13:34:36Z</time>
      </trkpt>
      <trkpt lat="44.76883" lon="-0.38566">
        <ele>81</ele>
        <time>2013-07-28T13:34:44Z</time>
      </trkpt>
      <trkpt lat="44.76915" lon="-0.38546">
        <ele>78</ele>
        <time>2013-07-28T13:34:50Z</time>
      </trkpt>
      <trkpt lat="44.7695" lon="-0.38518">
        <ele>76</ele>
        <time>2013-07-28T13:34:58Z</time>
      </trkpt>
      <trkpt lat="44.76958" lon="-0.38511">
        <ele>76</ele>
        <time>2013-07-28T13:35:00Z</time>
      </trkpt>
      <trkpt lat="44.76963" lon="-0.38508">
        <ele>75</ele>
        <time>2013-07-28T13:35:01Z</time>
      </trkpt>
      <trkpt lat="44.76976" lon="-0.38497">
        <ele>74</ele>
        <time>2013-07-28T13:35:04Z</time>
      </trkpt>
      <trkpt lat="44.77012" lon="-0.38478">
        <ele>72</ele>
        <time>2013-07-28T13:35:11Z</time>
      </trkpt>
      <trkpt lat="44.77035" lon="-0.38471">
        <ele>71</ele>
        <time>2013-07-28T13:35:15Z</time>
      </trkpt>
      <trkpt lat="44.77054" lon="-0.38468">
        <ele>70</ele>
        <time>2013-07-28T13:35:18Z</time>
      </trkpt>
      <trkpt lat="44.77087" lon="-0.38465">
        <ele>69</ele>
        <time>2013-07-28T13:35:25Z</time>
      </trkpt>
      <trkpt lat="44.77115" lon="-0.38454">
        <ele>67</ele>
        <time>2013-07-28T13:35:32Z</time>
      </trkpt>
      <trkpt lat="44.77152" lon="-0.38458">
        <ele>65</ele>
        <time>2013-07-28T13:35:41Z</time>
      </trkpt>
      <trkpt lat="44.77174" lon="-0.38457">
        <ele>63</ele>
        <time>2013-07-28T13:35:50Z</time>
      </trkpt>
      <trkpt lat="44.77188" lon="-0.38461">
        <ele>62</ele>
        <time>2013-07-28T13:36:01Z</time>
      </trkpt>
      <trkpt lat="44.77198" lon="-0.38459">
        <ele>62</ele>
        <time>2013-07-28T13:36:14Z</time>
      </trkpt>
      <trkpt lat="44.77199" lon="-0.38459">
        <ele>62</ele>
        <time>2013-07-28T13:36:26Z</time>
      </trkpt>
      <trkpt lat="44.772" lon="-0.38458">
        <ele>62</ele>
        <time>2013-07-28T13:36:39Z</time>
      </trkpt>
      <trkpt lat="44.77202" lon="-0.38457">
        <ele>61</ele>
        <time>2013-07-28T13:36:51Z</time>
      </trkpt>
      <trkpt lat="44.77206" lon="-0.38455">
        <ele>61</ele>
        <time>2013-07-28T13:37:02Z</time>
      </trkpt>
      <trkpt lat="44.77215" lon="-0.38452">
        <ele>61</ele>
        <time>2013-07-28T13:37:12Z</time>
      </trkpt>
      <trkpt lat="44.77219" lon="-0.38451">
        <ele>61</ele>
        <time>2013-07-28T13:37:21Z</time>
      </trkpt>
      <trkpt lat="44.7722" lon="-0.3845">
        <ele>61</ele>
        <time>2013-07-28T13:37:36Z</time>
      </trkpt>
      <trkpt lat="44.7722" lon="-0.38449">
        <ele>61</ele>
        <time>2013-07-28T13:37:51Z</time>
      </trkpt>
      <trkpt lat="44.77222" lon="-0.3845">
        <ele>61</ele>
        <time>2013-07-28T13:38:00Z</time>
      </trkpt>
      <trkpt lat="44.77223" lon="-0.3845">
        <ele>61</ele>
        <time>2013-07-28T13:38:17Z</time>
      </trkpt>
      <trkpt lat="44.77223" lon="-0.38451">
        <ele>61</ele>
        <time>2013-07-28T13:38:34Z</time>
      </trkpt>
      <trkpt lat="44.77224" lon="-0.38451">
        <ele>61</ele>
        <time>2013-07-28T13:38:51Z</time>
      </trkpt>
      <trkpt lat="44.77224" lon="-0.38452">
        <ele>61</ele>
        <time>2013-07-28T13:39:06Z</time>
      </trkpt>
      <trkpt lat="44.77224" lon="-0.38452">
        <ele>61</ele>
        <time>2013-07-28T13:39:20Z</time>
      </trkpt>
      <trkpt lat="44.77224" lon="-0.38452">
        <ele>60</ele>
        <time>2013-07-28T13:39:34Z</time>
      </trkpt>
      <trkpt lat="44.77226" lon="-0.38451">
        <ele>60</ele>
        <time>2013-07-28T13:39:36Z</time>
      </trkpt>
      <trkpt lat="44.77228" lon="-0.3845">
        <ele>60</ele>
        <time>2013-07-28T13:39:37Z</time>
      </trkpt>
      <trkpt lat="44.7723" lon="-0.3845">
        <ele>60</ele>
        <time>2013-07-28T13:39:38Z</time>
      </trkpt>
      <trkpt lat="44.77232" lon="-0.38449">
        <ele>60</ele>
        <time>2013-07-28T13:39:39Z</time>
      </trkpt>
      <trkpt lat="44.77236" lon="-0.38449">
        <ele>60</ele>
        <time>2013-07-28T13:39:40Z</time>
      </trkpt>
      <trkpt lat="44.7726" lon="-0.38448">
        <ele>60</ele>
        <time>2013-07-28T13:39:46Z</time>
      </trkpt>
      <trkpt lat="44.77282" lon="-0.38444">
        <ele>61</ele>
        <time>2013-07-28T13:39:53Z</time>
      </trkpt>
      <trkpt lat="44.77303" lon="-0.38438">
        <ele>62</ele>
        <time>2013-07-28T13:40:00Z</time>
      </trkpt>
      <trkpt lat="44.7732" lon="-0.38433">
        <ele>62</ele>
        <time>2013-07-28T13:40:08Z</time>
      </trkpt>
      <trkpt lat="44.77321" lon="-0.3843">
        <ele>62</ele>
        <time>2013-07-28T13:40:09Z</time>
      </trkpt>
      <trkpt lat="44.77321" lon="-0.38427">
        <ele>62</ele>
        <time>2013-07-28T13:40:10Z</time>
      </trkpt>
      <trkpt lat="44.77318" lon="-0.38403">
        <ele>62</ele>
        <time>2013-07-28T13:40:19Z</time>
      </trkpt>
      <trkpt lat="44.77317" lon="-0.38376">
        <ele>63</ele>
        <time>2013-07-28T13:40:29Z</time>
      </trkpt>
      <trkpt lat="44.77317" lon="-0.38342">
        <ele>63</ele>
        <time>2013-07-28T13:40:39Z</time>
      </trkpt>
      <trkpt lat="44.77315" lon="-0.3831">
        <ele>63</ele>
        <time>2013-07-28T13:40:45Z</time>
      </trkpt>
      <trkpt lat="44.77313" lon="-0.38271">
        <ele>63</ele>
        <time>2013-07-28T13:40:52Z</time>
      </trkpt>
      <trkpt lat="44.7731" lon="-0.38224">
        <ele>63</ele>
        <time>2013-07-28T13:41:03Z</time>
      </trkpt>
      <trkpt lat="44.77309" lon="-0.38196">
        <ele>62</ele>
        <time>2013-07-28T13:41:13Z</time>
      </trkpt>
      <trkpt lat="44.77309" lon="-0.38178">
        <ele>63</ele>
        <time>2013-07-28T13:41:22Z</time>
      </trkpt>
      <trkpt lat="44.7731" lon="-0.38172">
        <ele>63</ele>
        <time>2013-07-28T13:41:30Z</time>
      </trkpt>
      <trkpt lat="44.7731" lon="-0.38168">
        <ele>63</ele>
        <time>2013-07-28T13:41:42Z</time>
      </trkpt>
      <trkpt lat="44.77304" lon="-0.38167">
        <ele>62</ele>
        <time>2013-07-28T13:41:45Z</time>
      </trkpt>
      <trkpt lat="44.77287" lon="-0.38166">
        <ele>62</ele>
        <time>2013-07-28T13:41:53Z</time>
      </trkpt>
      <trkpt lat="44.77281" lon="-0.38164">
        <ele>62</ele>
        <time>2013-07-28T13:41:57Z</time>
      </trkpt>
      <trkpt lat="44.7728" lon="-0.38162">
        <ele>62</ele>
        <time>2013-07-28T13:41:59Z</time>
      </trkpt>
      <trkpt lat="44.77279" lon="-0.3816">
        <ele>62</ele>
        <time>2013-07-28T13:42:00Z</time>
      </trkpt>
      <trkpt lat="44.77278" lon="-0.38124">
        <ele>62</ele>
        <time>2013-07-28T13:42:07Z</time>
      </trkpt>
      <trkpt lat="44.77275" lon="-0.38082">
        <ele>63</ele>
        <time>2013-07-28T13:42:14Z</time>
      </trkpt>
      <trkpt lat="44.77273" lon="-0.38062">
        <ele>63</ele>
        <time>2013-07-28T13:42:21Z</time>
      </trkpt>
      <trkpt lat="44.77275" lon="-0.38051">
        <ele>63</ele>
        <time>2013-07-28T13:42:25Z</time>
      </trkpt>
      <trkpt lat="44.77277" lon="-0.38042">
        <ele>63</ele>
        <time>2013-07-28T13:42:28Z</time>
      </trkpt>
      <trkpt lat="44.77279" lon="-0.3802">
        <ele>64</ele>
        <time>2013-07-28T13:42:37Z</time>
      </trkpt>
      <trkpt lat="44.77278" lon="-0.37989">
        <ele>65</ele>
        <time>2013-07-28T13:42:44Z</time>
      </trkpt>
      <trkpt lat="44.77277" lon="-0.3795">
        <ele>65</ele>
        <time>2013-07-28T13:42:51Z</time>
      </trkpt>
      <trkpt lat="44.77278" lon="-0.37912">
        <ele>66</ele>
        <time>2013-07-28T13:43:00Z</time>
      </trkpt>
      <trkpt lat="44.77281" lon="-0.37891">
        <ele>66</ele>
        <time>2013-07-28T13:43:08Z</time>
      </trkpt>
      <trkpt lat="44.77285" lon="-0.37873">
        <ele>67</ele>
        <time>2013-07-28T13:43:17Z</time>
      </trkpt>
      <trkpt lat="44.7729" lon="-0.37846">
        <ele>67</ele>
        <time>2013-07-28T13:43:25Z</time>
      </trkpt>
      <trkpt lat="44.77298" lon="-0.37807">
        <ele>68</ele>
        <time>2013-07-28T13:43:35Z</time>
      </trkpt>
      <trkpt lat="44.77307" lon="-0.37775">
        <ele>69</ele>
        <time>2013-07-28T13:43:43Z</time>
      </trkpt>
      <trkpt lat="44.77328" lon="-0.37718">
        <ele>70</ele>
        <time>2013-07-28T13:43:53Z</time>
      </trkpt>
      <trkpt lat="44.77337" lon="-0.3766">
        <ele>70</ele>
        <time>2013-07-28T13:44:01Z</time>
      </trkpt>
      <trkpt lat="44.77341" lon="-0.37607">
        <ele>70</ele>
        <time>2013-07-28T13:44:09Z</time>
      </trkpt>
      <trkpt lat="44.77352" lon="-0.3753">
        <ele>70</ele>
        <time>2013-07-28T13:44:19Z</time>
      </trkpt>
      <trkpt lat="44.77363" lon="-0.37465">
        <ele>70</ele>
        <time>2013-07-28T13:44:26Z</time>
      </trkpt>
      <trkpt lat="44.7737" lon="-0.37396">
        <ele>69</ele>
        <time>2013-07-28T13:44:34Z</time>
      </trkpt>
      <trkpt lat="44.77375" lon="-0.37318">
        <ele>68</ele>
        <time>2013-07-28T13:44:42Z</time>
      </trkpt>
      <trkpt lat="44.77379" lon="-0.37292">
        <ele>68</ele>
        <time>2013-07-28T13:44:49Z</time>
      </trkpt>
      <trkpt lat="44.77382" lon="-0.37283">
        <ele>68</ele>
        <time>2013-07-28T13:44:57Z</time>
      </trkpt>
      <trkpt lat="44.77392" lon="-0.37285">
        <ele>68</ele>
        <time>2013-07-28T13:45:07Z</time>
      </trkpt>
      <trkpt lat="44.77397" lon="-0.37286">
        <ele>68</ele>
        <time>2013-07-28T13:45:11Z</time>
      </trkpt>
      <trkpt lat="44.77412" lon="-0.37292">
        <ele>68</ele>
        <time>2013-07-28T13:45:20Z</time>
      </trkpt>
      <trkpt lat="44.77421" lon="-0.37297">
        <ele>69</ele>
        <time>2013-07-28T13:45:25Z</time>
      </trkpt>
      <trkpt lat="44.77422" lon="-0.37299">
        <ele>69</ele>
        <time>2013-07-28T13:45:26Z</time>
      </trkpt>
      <trkpt lat="44.77424" lon="-0.373">
        <ele>69</ele>
        <time>2013-07-28T13:45:27Z</time>
      </trkpt>
      <trkpt lat="44.77437" lon="-0.3731">
        <ele>69</ele>
        <time>2013-07-28T13:45:33Z</time>
      </trkpt>
      <trkpt lat="44.77439" lon="-0.3731">
        <ele>69</ele>
        <time>2013-07-28T13:45:34Z</time>
      </trkpt>
      <trkpt lat="44.77442" lon="-0.3731">
        <ele>69</ele>
        <time>2013-07-28T13:45:35Z</time>
      </trkpt>
      <trkpt lat="44.77456" lon="-0.37296">
        <ele>70</ele>
        <time>2013-07-28T13:45:45Z</time>
      </trkpt>
      <trkpt lat="44.77461" lon="-0.37282">
        <ele>70</ele>
        <time>2013-07-28T13:45:55Z</time>
      </trkpt>
      <trkpt lat="44.77463" lon="-0.37277">
        <ele>70</ele>
        <time>2013-07-28T13:46:02Z</time>
      </trkpt>
      <trkpt lat="44.77467" lon="-0.37277">
        <ele>71</ele>
        <time>2013-07-28T13:46:13Z</time>
      </trkpt>
      <trkpt lat="44.77467" lon="-0.37277">
        <ele>71</ele>
        <time>2013-07-28T13:46:26Z</time>
      </trkpt>
      <trkpt lat="44.77471" lon="-0.37269">
        <ele>71</ele>
        <time>2013-07-28T13:46:33Z</time>
      </trkpt>
      <trkpt lat="44.7748" lon="-0.37243">
        <ele>72</ele>
        <time>2013-07-28T13:46:40Z</time>
      </trkpt>
      <trkpt lat="44.77494" lon="-0.37196">
        <ele>74</ele>
        <time>2013-07-28T13:46:50Z</time>
      </trkpt>
      <trkpt lat="44.77502" lon="-0.37173">
        <ele>75</ele>
        <time>2013-07-28T13:46:58Z</time>
      </trkpt>
      <trkpt lat="44.77515" lon="-0.3715">
        <ele>76</ele>
        <time>2013-07-28T13:47:09Z</time>
      </trkpt>
      <trkpt lat="44.77526" lon="-0.37117">
        <ele>76</ele>
        <time>2013-07-28T13:47:18Z</time>
      </trkpt>
      <trkpt lat="44.7754" lon="-0.37083">
        <ele>77</ele>
        <time>2013-07-28T13:47:28Z</time>
      </trkpt>
      <trkpt lat="44.77549" lon="-0.37059">
        <ele>77</ele>
        <time>2013-07-28T13:47:36Z</time>
      </trkpt>
      <trkpt lat="44.7756" lon="-0.3703">
        <ele>77</ele>
        <time>2013-07-28T13:47:46Z</time>
      </trkpt>
      <trkpt lat="44.77572" lon="-0.37">
        <ele>77</ele>
        <time>2013-07-28T13:47:55Z</time>
      </trkpt>
      <trkpt lat="44.77587" lon="-0.36967">
        <ele>77</ele>
        <time>2013-07-28T13:48:06Z</time>
      </trkpt>
      <trkpt lat="44.77588" lon="-0.3696">
        <ele>77</ele>
        <time>2013-07-28T13:48:11Z</time>
      </trkpt>
      <trkpt lat="44.77587" lon="-0.36955">
        <ele>77</ele>
        <time>2013-07-28T13:48:21Z</time>
      </trkpt>
      <trkpt lat="44.77587" lon="-0.36953">
        <ele>77</ele>
        <time>2013-07-28T13:48:22Z</time>
      </trkpt>
      <trkpt lat="44.77587" lon="-0.36951">
        <ele>77</ele>
        <time>2013-07-28T13:48:23Z</time>
      </trkpt>
      <trkpt lat="44.77588" lon="-0.36948">
        <ele>77</ele>
        <time>2013-07-28T13:48:24Z</time>
      </trkpt>
      <trkpt lat="44.77589" lon="-0.36946">
        <ele>77</ele>
        <time>2013-07-28T13:48:25Z</time>
      </trkpt>
      <trkpt lat="44.7759" lon="-0.36943">
        <ele>77</ele>
        <time>2013-07-28T13:48:26Z</time>
      </trkpt>
      <trkpt lat="44.77592" lon="-0.36939">
        <ele>77</ele>
        <time>2013-07-28T13:48:27Z</time>
      </trkpt>
      <trkpt lat="44.77603" lon="-0.36909">
        <ele>77</ele>
        <time>2013-07-28T13:48:33Z</time>
      </trkpt>
      <trkpt lat="44.77622" lon="-0.36851">
        <ele>78</ele>
        <time>2013-07-28T13:48:43Z</time>
      </trkpt>
      <trkpt lat="44.77636" lon="-0.36797">
        <ele>79</ele>
        <time>2013-07-28T13:48:52Z</time>
      </trkpt>
      <trkpt lat="44.77638" lon="-0.36775">
        <ele>79</ele>
        <time>2013-07-28T13:48:57Z</time>
      </trkpt>
      <trkpt lat="44.77643" lon="-0.36744">
        <ele>79</ele>
        <time>2013-07-28T13:49:04Z</time>
      </trkpt>
      <trkpt lat="44.77647" lon="-0.36712">
        <ele>79</ele>
        <time>2013-07-28T13:49:12Z</time>
      </trkpt>
      <trkpt lat="44.77651" lon="-0.36681">
        <ele>80</ele>
        <time>2013-07-28T13:49:19Z</time>
      </trkpt>
      <trkpt lat="44.77655" lon="-0.3664">
        <ele>81</ele>
        <time>2013-07-28T13:49:29Z</time>
      </trkpt>
      <trkpt lat="44.77658" lon="-0.36618">
        <ele>81</ele>
        <time>2013-07-28T13:49:34Z</time>
      </trkpt>
      <trkpt lat="44.77661" lon="-0.36582">
        <ele>82</ele>
        <time>2013-07-28T13:49:42Z</time>
      </trkpt>
      <trkpt lat="44.77664" lon="-0.36544">
        <ele>82</ele>
        <time>2013-07-28T13:49:51Z</time>
      </trkpt>
      <trkpt lat="44.77669" lon="-0.36504">
        <ele>83</ele>
        <time>2013-07-28T13:49:59Z</time>
      </trkpt>
      <trkpt lat="44.77673" lon="-0.36471">
        <ele>82</ele>
        <time>2013-07-28T13:50:05Z</time>
      </trkpt>
      <trkpt lat="44.77678" lon="-0.36424">
        <ele>80</ele>
        <time>2013-07-28T13:50:14Z</time>
      </trkpt>
      <trkpt lat="44.77683" lon="-0.36383">
        <ele>78</ele>
        <time>2013-07-28T13:50:23Z</time>
      </trkpt>
      <trkpt lat="44.77687" lon="-0.36342">
        <ele>78</ele>
        <time>2013-07-28T13:50:30Z</time>
      </trkpt>
      <trkpt lat="44.77689" lon="-0.36322">
        <ele>79</ele>
        <time>2013-07-28T13:50:35Z</time>
      </trkpt>
      <trkpt lat="44.77691" lon="-0.363">
        <ele>79</ele>
        <time>2013-07-28T13:50:40Z</time>
      </trkpt>
      <trkpt lat="44.77692" lon="-0.3627">
        <ele>81</ele>
        <time>2013-07-28T13:50:47Z</time>
      </trkpt>
      <trkpt lat="44.77695" lon="-0.36238">
        <ele>82</ele>
        <time>2013-07-28T13:50:53Z</time>
      </trkpt>
      <trkpt lat="44.777" lon="-0.36197">
        <ele>84</ele>
        <time>2013-07-28T13:51:01Z</time>
      </trkpt>
      <trkpt lat="44.77703" lon="-0.36168">
        <ele>84</ele>
        <time>2013-07-28T13:51:08Z</time>
      </trkpt>
      <trkpt lat="44.77704" lon="-0.36139">
        <ele>83</ele>
        <time>2013-07-28T13:51:15Z</time>
      </trkpt>
      <trkpt lat="44.77705" lon="-0.36109">
        <ele>82</ele>
        <time>2013-07-28T13:51:22Z</time>
      </trkpt>
      <trkpt lat="44.77704" lon="-0.36079">
        <ele>83</ele>
        <time>2013-07-28T13:51:28Z</time>
      </trkpt>
      <trkpt lat="44.77698" lon="-0.36033">
        <ele>86</ele>
        <time>2013-07-28T13:51:37Z</time>
      </trkpt>
      <trkpt lat="44.7769" lon="-0.35987">
        <ele>90</ele>
        <time>2013-07-28T13:51:46Z</time>
      </trkpt>
      <trkpt lat="44.77677" lon="-0.35929">
        <ele>90</ele>
        <time>2013-07-28T13:51:57Z</time>
      </trkpt>
      <trkpt lat="44.77668" lon="-0.35896">
        <ele>90</ele>
        <time>2013-07-28T13:52:04Z</time>
      </trkpt>
      <trkpt lat="44.77658" lon="-0.3585">
        <ele>90</ele>
        <time>2013-07-28T13:52:12Z</time>
      </trkpt>
      <trkpt lat="44.77651" lon="-0.35816">
        <ele>91</ele>
        <time>2013-07-28T13:52:19Z</time>
      </trkpt>
      <trkpt lat="44.77643" lon="-0.35787">
        <ele>92</ele>
        <time>2013-07-28T13:52:25Z</time>
      </trkpt>
      <trkpt lat="44.77636" lon="-0.35753">
        <ele>93</ele>
        <time>2013-07-28T13:52:32Z</time>
      </trkpt>
      <trkpt lat="44.77626" lon="-0.35707">
        <ele>93</ele>
        <time>2013-07-28T13:52:40Z</time>
      </trkpt>
      <trkpt lat="44.77613" lon="-0.35641">
        <ele>92</ele>
        <time>2013-07-28T13:52:50Z</time>
      </trkpt>
      <trkpt lat="44.7761" lon="-0.35594">
        <ele>91</ele>
        <time>2013-07-28T13:52:57Z</time>
      </trkpt>
      <trkpt lat="44.7761" lon="-0.35573">
        <ele>90</ele>
        <time>2013-07-28T13:53:00Z</time>
      </trkpt>
      <trkpt lat="44.7761" lon="-0.35566">
        <ele>90</ele>
        <time>2013-07-28T13:53:01Z</time>
      </trkpt>
      <trkpt lat="44.77609" lon="-0.35531">
        <ele>90</ele>
        <time>2013-07-28T13:53:08Z</time>
      </trkpt>
      <trkpt lat="44.77608" lon="-0.35498">
        <ele>90</ele>
        <time>2013-07-28T13:53:16Z</time>
      </trkpt>
      <trkpt lat="44.77608" lon="-0.35471">
        <ele>90</ele>
        <time>2013-07-28T13:53:22Z</time>
      </trkpt>
      <trkpt lat="44.77608" lon="-0.35444">
        <ele>90</ele>
        <time>2013-07-28T13:53:28Z</time>
      </trkpt>
      <trkpt lat="44.77607" lon="-0.35418">
        <ele>91</ele>
        <time>2013-07-28T13:53:33Z</time>
      </trkpt>
      <trkpt lat="44.77607" lon="-0.35374">
        <ele>92</ele>
        <time>2013-07-28T13:53:42Z</time>
      </trkpt>
      <trkpt lat="44.77606" lon="-0.35328">
        <ele>93</ele>
        <time>2013-07-28T13:53:51Z</time>
      </trkpt>
      <trkpt lat="44.77605" lon="-0.35286">
        <ele>94</ele>
        <time>2013-07-28T13:53:59Z</time>
      </trkpt>
      <trkpt lat="44.77604" lon="-0.35233">
        <ele>95</ele>
        <time>2013-07-28T13:54:09Z</time>
      </trkpt>
      <trkpt lat="44.77604" lon="-0.35181">
        <ele>96</ele>
        <time>2013-07-28T13:54:19Z</time>
      </trkpt>
      <trkpt lat="44.77604" lon="-0.35142">
        <ele>95</ele>
        <time>2013-07-28T13:54:28Z</time>
      </trkpt>
      <trkpt lat="44.77603" lon="-0.35133">
        <ele>95</ele>
        <time>2013-07-28T13:54:33Z</time>
      </trkpt>
      <trkpt lat="44.776" lon="-0.35118">
        <ele>94</ele>
        <time>2013-07-28T13:54:40Z</time>
      </trkpt>
      <trkpt lat="44.77587" lon="-0.35098">
        <ele>93</ele>
        <time>2013-07-28T13:54:47Z</time>
      </trkpt>
      <trkpt lat="44.7757" lon="-0.35072">
        <ele>95</ele>
        <time>2013-07-28T13:54:55Z</time>
      </trkpt>
      <trkpt lat="44.77566" lon="-0.35051">
        <ele>95</ele>
        <time>2013-07-28T13:55:00Z</time>
      </trkpt>
      <trkpt lat="44.77558" lon="-0.3504">
        <ele>96</ele>
        <time>2013-07-28T13:55:05Z</time>
      </trkpt>
      <trkpt lat="44.77547" lon="-0.35023">
        <ele>97</ele>
        <time>2013-07-28T13:55:11Z</time>
      </trkpt>
      <trkpt lat="44.77539" lon="-0.35006">
        <ele>97</ele>
        <time>2013-07-28T13:55:16Z</time>
      </trkpt>
      <trkpt lat="44.77526" lon="-0.34983">
        <ele>98</ele>
        <time>2013-07-28T13:55:22Z</time>
      </trkpt>
      <trkpt lat="44.77513" lon="-0.34958">
        <ele>99</ele>
        <time>2013-07-28T13:55:29Z</time>
      </trkpt>
      <trkpt lat="44.77496" lon="-0.34931">
        <ele>100</ele>
        <time>2013-07-28T13:55:36Z</time>
      </trkpt>
      <trkpt lat="44.77491" lon="-0.34922">
        <ele>101</ele>
        <time>2013-07-28T13:55:38Z</time>
      </trkpt>
      <trkpt lat="44.7747" lon="-0.34887">
        <ele>102</ele>
        <time>2013-07-28T13:55:47Z</time>
      </trkpt>
      <trkpt lat="44.77462" lon="-0.34867">
        <ele>102</ele>
        <time>2013-07-28T13:55:54Z</time>
      </trkpt>
      <trkpt lat="44.77465" lon="-0.34856">
        <ele>103</ele>
        <time>2013-07-28T13:55:58Z</time>
      </trkpt>
      <trkpt lat="44.77464" lon="-0.34852">
        <ele>103</ele>
        <time>2013-07-28T13:55:59Z</time>
      </trkpt>
      <trkpt lat="44.77464" lon="-0.34849">
        <ele>103</ele>
        <time>2013-07-28T13:56:00Z</time>
      </trkpt>
      <trkpt lat="44.77463" lon="-0.34819">
        <ele>103</ele>
        <time>2013-07-28T13:56:09Z</time>
      </trkpt>
      <trkpt lat="44.77471" lon="-0.34797">
        <ele>104</ele>
        <time>2013-07-28T13:56:16Z</time>
      </trkpt>
      <trkpt lat="44.77471" lon="-0.34778">
        <ele>104</ele>
        <time>2013-07-28T13:56:21Z</time>
      </trkpt>
      <trkpt lat="44.77472" lon="-0.34775">
        <ele>104</ele>
        <time>2013-07-28T13:56:22Z</time>
      </trkpt>
      <trkpt lat="44.77475" lon="-0.34771">
        <ele>104</ele>
        <time>2013-07-28T13:56:23Z</time>
      </trkpt>
      <trkpt lat="44.77494" lon="-0.34748">
        <ele>104</ele>
        <time>2013-07-28T13:56:28Z</time>
      </trkpt>
      <trkpt lat="44.77527" lon="-0.3471">
        <ele>104</ele>
        <time>2013-07-28T13:56:36Z</time>
      </trkpt>
      <trkpt lat="44.7754" lon="-0.34692">
        <ele>104</ele>
        <time>2013-07-28T13:56:40Z</time>
      </trkpt>
      <trkpt lat="44.77554" lon="-0.34677">
        <ele>104</ele>
        <time>2013-07-28T13:56:44Z</time>
      </trkpt>
      <trkpt lat="44.77557" lon="-0.34673">
        <ele>104</ele>
        <time>2013-07-28T13:56:45Z</time>
      </trkpt>
      <trkpt lat="44.77559" lon="-0.34669">
        <ele>104</ele>
        <time>2013-07-28T13:56:46Z</time>
      </trkpt>
      <trkpt lat="44.77563" lon="-0.34665">
        <ele>104</ele>
        <time>2013-07-28T13:56:47Z</time>
      </trkpt>
      <trkpt lat="44.77566" lon="-0.34661">
        <ele>104</ele>
        <time>2013-07-28T13:56:48Z</time>
      </trkpt>
      <trkpt lat="44.77568" lon="-0.34656">
        <ele>104</ele>
        <time>2013-07-28T13:56:49Z</time>
      </trkpt>
      <trkpt lat="44.77569" lon="-0.34651">
        <ele>104</ele>
        <time>2013-07-28T13:56:50Z</time>
      </trkpt>
      <trkpt lat="44.77569" lon="-0.34644">
        <ele>104</ele>
        <time>2013-07-28T13:56:51Z</time>
      </trkpt>
      <trkpt lat="44.77571" lon="-0.34637">
        <ele>104</ele>
        <time>2013-07-28T13:56:52Z</time>
      </trkpt>
      <trkpt lat="44.77574" lon="-0.34632">
        <ele>104</ele>
        <time>2013-07-28T13:56:53Z</time>
      </trkpt>
      <trkpt lat="44.77578" lon="-0.3463">
        <ele>104</ele>
        <time>2013-07-28T13:56:54Z</time>
      </trkpt>
      <trkpt lat="44.77583" lon="-0.34629">
        <ele>104</ele>
        <time>2013-07-28T13:56:55Z</time>
      </trkpt>
      <trkpt lat="44.77588" lon="-0.34627">
        <ele>104</ele>
        <time>2013-07-28T13:56:56Z</time>
      </trkpt>
      <trkpt lat="44.77592" lon="-0.34625">
        <ele>104</ele>
        <time>2013-07-28T13:56:57Z</time>
      </trkpt>
      <trkpt lat="44.77596" lon="-0.34621">
        <ele>104</ele>
        <time>2013-07-28T13:56:58Z</time>
      </trkpt>
      <trkpt lat="44.77601" lon="-0.34617">
        <ele>104</ele>
        <time>2013-07-28T13:56:59Z</time>
      </trkpt>
      <trkpt lat="44.77605" lon="-0.34613">
        <ele>104</ele>
        <time>2013-07-28T13:57:00Z</time>
      </trkpt>
      <trkpt lat="44.77621" lon="-0.34593">
        <ele>104</ele>
        <time>2013-07-28T13:57:04Z</time>
      </trkpt>
      <trkpt lat="44.77624" lon="-0.34587">
        <ele>104</ele>
        <time>2013-07-28T13:57:05Z</time>
      </trkpt>
      <trkpt lat="44.77627" lon="-0.34581">
        <ele>104</ele>
        <time>2013-07-28T13:57:06Z</time>
      </trkpt>
      <trkpt lat="44.77629" lon="-0.34575">
        <ele>104</ele>
        <time>2013-07-28T13:57:07Z</time>
      </trkpt>
      <trkpt lat="44.77631" lon="-0.34568">
        <ele>104</ele>
        <time>2013-07-28T13:57:08Z</time>
      </trkpt>
      <trkpt lat="44.77632" lon="-0.3456">
        <ele>104</ele>
        <time>2013-07-28T13:57:09Z</time>
      </trkpt>
      <trkpt lat="44.77634" lon="-0.34552">
        <ele>104</ele>
        <time>2013-07-28T13:57:10Z</time>
      </trkpt>
      <trkpt lat="44.77646" lon="-0.34487">
        <ele>104</ele>
        <time>2013-07-28T13:57:17Z</time>
      </trkpt>
      <trkpt lat="44.77665" lon="-0.34396">
        <ele>101</ele>
        <time>2013-07-28T13:57:25Z</time>
      </trkpt>
      <trkpt lat="44.7769" lon="-0.34333">
        <ele>99</ele>
        <time>2013-07-28T13:57:31Z</time>
      </trkpt>
      <trkpt lat="44.77717" lon="-0.34276">
        <ele>102</ele>
        <time>2013-07-28T13:57:38Z</time>
      </trkpt>
      <trkpt lat="44.77723" lon="-0.34261">
        <ele>102</ele>
        <time>2013-07-28T13:57:40Z</time>
      </trkpt>
      <trkpt lat="44.77723" lon="-0.34253">
        <ele>102</ele>
        <time>2013-07-28T13:57:41Z</time>
      </trkpt>
      <trkpt lat="44.77721" lon="-0.34247">
        <ele>102</ele>
        <time>2013-07-28T13:57:42Z</time>
      </trkpt>
      <trkpt lat="44.77719" lon="-0.34242">
        <ele>102</ele>
        <time>2013-07-28T13:57:43Z</time>
      </trkpt>
      <trkpt lat="44.77716" lon="-0.34239">
        <ele>102</ele>
        <time>2013-07-28T13:57:44Z</time>
      </trkpt>
      <trkpt lat="44.77714" lon="-0.34236">
        <ele>102</ele>
        <time>2013-07-28T13:57:45Z</time>
      </trkpt>
      <trkpt lat="44.77711" lon="-0.34235">
        <ele>102</ele>
        <time>2013-07-28T13:57:46Z</time>
      </trkpt>
      <trkpt lat="44.77711" lon="-0.34236">
        <ele>102</ele>
        <time>2013-07-28T13:57:51Z</time>
      </trkpt>
      <trkpt lat="44.77709" lon="-0.34235">
        <ele>102</ele>
        <time>2013-07-28T13:57:59Z</time>
      </trkpt>
      <trkpt lat="44.77708" lon="-0.34236">
        <ele>102</ele>
        <time>2013-07-28T13:58:09Z</time>
      </trkpt>
      <trkpt lat="44.77694" lon="-0.3423">
        <ele>103</ele>
        <time>2013-07-28T13:58:14Z</time>
      </trkpt>
      <trkpt lat="44.77682" lon="-0.34224">
        <ele>103</ele>
        <time>2013-07-28T13:58:17Z</time>
      </trkpt>
      <trkpt lat="44.77662" lon="-0.3421">
        <ele>104</ele>
        <time>2013-07-28T13:58:23Z</time>
      </trkpt>
      <trkpt lat="44.77637" lon="-0.34195">
        <ele>104</ele>
        <time>2013-07-28T13:58:31Z</time>
      </trkpt>
      <trkpt lat="44.77607" lon="-0.34179">
        <ele>105</ele>
        <time>2013-07-28T13:58:40Z</time>
      </trkpt>
      <trkpt lat="44.77589" lon="-0.34168">
        <ele>105</ele>
        <time>2013-07-28T13:58:47Z</time>
      </trkpt>
      <trkpt lat="44.77578" lon="-0.34165">
        <ele>105</ele>
        <time>2013-07-28T13:58:51Z</time>
      </trkpt>
      <trkpt lat="44.77576" lon="-0.34166">
        <ele>105</ele>
        <time>2013-07-28T13:58:52Z</time>
      </trkpt>
      <trkpt lat="44.77575" lon="-0.34169">
        <ele>105</ele>
        <time>2013-07-28T13:58:53Z</time>
      </trkpt>
      <trkpt lat="44.7757" lon="-0.3419">
        <ele>104</ele>
        <time>2013-07-28T13:58:59Z</time>
      </trkpt>
      <trkpt lat="44.77562" lon="-0.3422">
        <ele>104</ele>
        <time>2013-07-28T13:59:07Z</time>
      </trkpt>
      <trkpt lat="44.77554" lon="-0.34244">
        <ele>104</ele>
        <time>2013-07-28T13:59:14Z</time>
      </trkpt>
      <trkpt lat="44.77541" lon="-0.34252">
        <ele>104</ele>
        <time>2013-07-28T13:59:19Z</time>
      </trkpt>
      <trkpt lat="44.77517" lon="-0.34237">
        <ele>105</ele>
        <time>2013-07-28T13:59:26Z</time>
      </trkpt>
      <trkpt lat="44.77502" lon="-0.3423">
        <ele>105</ele>
        <time>2013-07-28T13:59:31Z</time>
      </trkpt>
      <trkpt lat="44.77487" lon="-0.34222">
        <ele>105</ele>
        <time>2013-07-28T13:59:36Z</time>
      </trkpt>
      <trkpt lat="44.77461" lon="-0.34205">
        <ele>105</ele>
        <time>2013-07-28T13:59:43Z</time>
      </trkpt>
      <trkpt lat="44.77444" lon="-0.34194">
        <ele>106</ele>
        <time>2013-07-28T13:59:48Z</time>
      </trkpt>
      <trkpt lat="44.77423" lon="-0.34178">
        <ele>106</ele>
        <time>2013-07-28T13:59:54Z</time>
      </trkpt>
      <trkpt lat="44.77408" lon="-0.34163">
        <ele>106</ele>
        <time>2013-07-28T14:00:00Z</time>
      </trkpt>
      <trkpt lat="44.77391" lon="-0.34141">
        <ele>106</ele>
        <time>2013-07-28T14:00:06Z</time>
      </trkpt>
      <trkpt lat="44.77388" lon="-0.34137">
        <ele>106</ele>
        <time>2013-07-28T14:00:07Z</time>
      </trkpt>
      <trkpt lat="44.77385" lon="-0.34133">
        <ele>106</ele>
        <time>2013-07-28T14:00:08Z</time>
      </trkpt>
      <trkpt lat="44.77366" lon="-0.34117">
        <ele>106</ele>
        <time>2013-07-28T14:00:14Z</time>
      </trkpt>
      <trkpt lat="44.77346" lon="-0.3409">
        <ele>106</ele>
        <time>2013-07-28T14:00:21Z</time>
      </trkpt>
      <trkpt lat="44.77335" lon="-0.34072">
        <ele>106</ele>
        <time>2013-07-28T14:00:27Z</time>
      </trkpt>
      <trkpt lat="44.77326" lon="-0.34059">
        <ele>106</ele>
        <time>2013-07-28T14:00:32Z</time>
      </trkpt>
      <trkpt lat="44.77309" lon="-0.34039">
        <ele>106</ele>
        <time>2013-07-28T14:00:39Z</time>
      </trkpt>
      <trkpt lat="44.77309" lon="-0.34036">
        <ele>106</ele>
        <time>2013-07-28T14:00:40Z</time>
      </trkpt>
      <trkpt lat="44.77307" lon="-0.34034">
        <ele>106</ele>
        <time>2013-07-28T14:00:41Z</time>
      </trkpt>
      <trkpt lat="44.77305" lon="-0.34033">
        <ele>106</ele>
        <time>2013-07-28T14:00:42Z</time>
      </trkpt>
      <trkpt lat="44.77303" lon="-0.34032">
        <ele>106</ele>
        <time>2013-07-28T14:00:43Z</time>
      </trkpt>
      <trkpt lat="44.77301" lon="-0.34031">
        <ele>106</ele>
        <time>2013-07-28T14:00:44Z</time>
      </trkpt>
      <trkpt lat="44.773" lon="-0.3403">
        <ele>106</ele>
        <time>2013-07-28T14:00:45Z</time>
      </trkpt>
      <trkpt lat="44.77297" lon="-0.34024">
        <ele>106</ele>
        <time>2013-07-28T14:00:47Z</time>
      </trkpt>
      <trkpt lat="44.77295" lon="-0.34021">
        <ele>106</ele>
        <time>2013-07-28T14:00:48Z</time>
      </trkpt>
      <trkpt lat="44.7728" lon="-0.33999">
        <ele>105</ele>
        <time>2013-07-28T14:00:54Z</time>
      </trkpt>
      <trkpt lat="44.77276" lon="-0.33994">
        <ele>105</ele>
        <time>2013-07-28T14:00:55Z</time>
      </trkpt>
      <trkpt lat="44.77269" lon="-0.33984">
        <ele>105</ele>
        <time>2013-07-28T14:00:57Z</time>
      </trkpt>
      <trkpt lat="44.77265" lon="-0.33979">
        <ele>105</ele>
        <time>2013-07-28T14:00:58Z</time>
      </trkpt>
      <trkpt lat="44.7726" lon="-0.33968">
        <ele>105</ele>
        <time>2013-07-28T14:01:00Z</time>
      </trkpt>
      <trkpt lat="44.7725" lon="-0.33952">
        <ele>105</ele>
        <time>2013-07-28T14:01:04Z</time>
      </trkpt>
      <trkpt lat="44.77247" lon="-0.33952">
        <ele>105</ele>
        <time>2013-07-28T14:01:05Z</time>
      </trkpt>
      <trkpt lat="44.77243" lon="-0.33953">
        <ele>105</ele>
        <time>2013-07-28T14:01:06Z</time>
      </trkpt>
      <trkpt lat="44.7724" lon="-0.33955">
        <ele>105</ele>
        <time>2013-07-28T14:01:07Z</time>
      </trkpt>
      <trkpt lat="44.77237" lon="-0.33958">
        <ele>105</ele>
        <time>2013-07-28T14:01:08Z</time>
      </trkpt>
      <trkpt lat="44.77235" lon="-0.33959">
        <ele>105</ele>
        <time>2013-07-28T14:01:09Z</time>
      </trkpt>
      <trkpt lat="44.77232" lon="-0.33959">
        <ele>104</ele>
        <time>2013-07-28T14:01:10Z</time>
      </trkpt>
      <trkpt lat="44.7723" lon="-0.33956">
        <ele>104</ele>
        <time>2013-07-28T14:01:11Z</time>
      </trkpt>
      <trkpt lat="44.7723" lon="-0.33953">
        <ele>104</ele>
        <time>2013-07-28T14:01:12Z</time>
      </trkpt>
      <trkpt lat="44.7723" lon="-0.33951">
        <ele>104</ele>
        <time>2013-07-28T14:01:13Z</time>
      </trkpt>
      <trkpt lat="44.7723" lon="-0.33949">
        <ele>104</ele>
        <time>2013-07-28T14:01:14Z</time>
      </trkpt>
      <trkpt lat="44.77231" lon="-0.33944">
        <ele>104</ele>
        <time>2013-07-28T14:01:19Z</time>
      </trkpt>
      <trkpt lat="44.7723" lon="-0.33924">
        <ele>104</ele>
        <time>2013-07-28T14:01:24Z</time>
      </trkpt>
      <trkpt lat="44.7723" lon="-0.33918">
        <ele>105</ele>
        <time>2013-07-28T14:01:25Z</time>
      </trkpt>
      <trkpt lat="44.77231" lon="-0.33912">
        <ele>105</ele>
        <time>2013-07-28T14:01:26Z</time>
      </trkpt>
      <trkpt lat="44.77235" lon="-0.33859">
        <ele>105</ele>
        <time>2013-07-28T14:01:34Z</time>
      </trkpt>
      <trkpt lat="44.77234" lon="-0.33804">
        <ele>104</ele>
        <time>2013-07-28T14:01:42Z</time>
      </trkpt>
      <trkpt lat="44.77224" lon="-0.33739">
        <ele>104</ele>
        <time>2013-07-28T14:01:51Z</time>
      </trkpt>
      <trkpt lat="44.77207" lon="-0.33669">
        <ele>104</ele>
        <time>2013-07-28T14:02:01Z</time>
      </trkpt>
      <trkpt lat="44.77201" lon="-0.3365">
        <ele>104</ele>
        <time>2013-07-28T14:02:04Z</time>
      </trkpt>
      <trkpt lat="44.77201" lon="-0.33645">
        <ele>104</ele>
        <time>2013-07-28T14:02:05Z</time>
      </trkpt>
      <trkpt lat="44.77201" lon="-0.33622">
        <ele>104</ele>
        <time>2013-07-28T14:02:10Z</time>
      </trkpt>
      <trkpt lat="44.77202" lon="-0.33619">
        <ele>104</ele>
        <time>2013-07-28T14:02:11Z</time>
      </trkpt>
      <trkpt lat="44.77203" lon="-0.33615">
        <ele>104</ele>
        <time>2013-07-28T14:02:12Z</time>
      </trkpt>
      <trkpt lat="44.77206" lon="-0.33612">
        <ele>104</ele>
        <time>2013-07-28T14:02:13Z</time>
      </trkpt>
      <trkpt lat="44.7721" lon="-0.3361">
        <ele>104</ele>
        <time>2013-07-28T14:02:14Z</time>
      </trkpt>
      <trkpt lat="44.77213" lon="-0.33609">
        <ele>104</ele>
        <time>2013-07-28T14:02:15Z</time>
      </trkpt>
      <trkpt lat="44.77216" lon="-0.3361">
        <ele>104</ele>
        <time>2013-07-28T14:02:16Z</time>
      </trkpt>
      <trkpt lat="44.77219" lon="-0.33611">
        <ele>104</ele>
        <time>2013-07-28T14:02:17Z</time>
      </trkpt>
      <trkpt lat="44.77223" lon="-0.33612">
        <ele>104</ele>
        <time>2013-07-28T14:02:18Z</time>
      </trkpt>
      <trkpt lat="44.77227" lon="-0.33611">
        <ele>104</ele>
        <time>2013-07-28T14:02:19Z</time>
      </trkpt>
      <trkpt lat="44.7723" lon="-0.33609">
        <ele>104</ele>
        <time>2013-07-28T14:02:20Z</time>
      </trkpt>
      <trkpt lat="44.77233" lon="-0.33606">
        <ele>104</ele>
        <time>2013-07-28T14:02:21Z</time>
      </trkpt>
      <trkpt lat="44.77236" lon="-0.33603">
        <ele>104</ele>
        <time>2013-07-28T14:02:22Z</time>
      </trkpt>
      <trkpt lat="44.77238" lon="-0.33599">
        <ele>104</ele>
        <time>2013-07-28T14:02:23Z</time>
      </trkpt>
      <trkpt lat="44.77241" lon="-0.33596">
        <ele>104</ele>
        <time>2013-07-28T14:02:24Z</time>
      </trkpt>
      <trkpt lat="44.77254" lon="-0.33575">
        <ele>103</ele>
        <time>2013-07-28T14:02:30Z</time>
      </trkpt>
      <trkpt lat="44.77258" lon="-0.33572">
        <ele>103</ele>
        <time>2013-07-28T14:02:31Z</time>
      </trkpt>
      <trkpt lat="44.77261" lon="-0.33571">
        <ele>103</ele>
        <time>2013-07-28T14:02:32Z</time>
      </trkpt>
      <trkpt lat="44.77283" lon="-0.33558">
        <ele>102</ele>
        <time>2013-07-28T14:02:39Z</time>
      </trkpt>
      <trkpt lat="44.77307" lon="-0.33542">
        <ele>101</ele>
        <time>2013-07-28T14:02:46Z</time>
      </trkpt>
      <trkpt lat="44.77307" lon="-0.33537">
        <ele>101</ele>
        <time>2013-07-28T14:02:47Z</time>
      </trkpt>
      <trkpt lat="44.77306" lon="-0.33532">
        <ele>100</ele>
        <time>2013-07-28T14:02:48Z</time>
      </trkpt>
      <trkpt lat="44.77304" lon="-0.33527">
        <ele>100</ele>
        <time>2013-07-28T14:02:49Z</time>
      </trkpt>
      <trkpt lat="44.77303" lon="-0.33522">
        <ele>100</ele>
        <time>2013-07-28T14:02:50Z</time>
      </trkpt>
      <trkpt lat="44.77293" lon="-0.33488">
        <ele>101</ele>
        <time>2013-07-28T14:02:58Z</time>
      </trkpt>
      <trkpt lat="44.77285" lon="-0.33455">
        <ele>101</ele>
        <time>2013-07-28T14:03:06Z</time>
      </trkpt>
      <trkpt lat="44.77286" lon="-0.33422">
        <ele>101</ele>
        <time>2013-07-28T14:03:13Z</time>
      </trkpt>
      <trkpt lat="44.77284" lon="-0.33394">
        <ele>101</ele>
        <time>2013-07-28T14:03:21Z</time>
      </trkpt>
      <trkpt lat="44.77284" lon="-0.33391">
        <ele>101</ele>
        <time>2013-07-28T14:03:23Z</time>
      </trkpt>
      <trkpt lat="44.77289" lon="-0.33376">
        <ele>101</ele>
        <time>2013-07-28T14:03:28Z</time>
      </trkpt>
      <trkpt lat="44.77292" lon="-0.33351">
        <ele>101</ele>
        <time>2013-07-28T14:03:35Z</time>
      </trkpt>
      <trkpt lat="44.77295" lon="-0.33317">
        <ele>102</ele>
        <time>2013-07-28T14:03:42Z</time>
      </trkpt>
      <trkpt lat="44.77297" lon="-0.33284">
        <ele>103</ele>
        <time>2013-07-28T14:03:49Z</time>
      </trkpt>
      <trkpt lat="44.77298" lon="-0.3325">
        <ele>103</ele>
        <time>2013-07-28T14:03:57Z</time>
      </trkpt>
      <trkpt lat="44.77302" lon="-0.33223">
        <ele>103</ele>
        <time>2013-07-28T14:04:04Z</time>
      </trkpt>
      <trkpt lat="44.77308" lon="-0.33204">
        <ele>103</ele>
        <time>2013-07-28T14:04:08Z</time>
      </trkpt>
      <trkpt lat="44.77324" lon="-0.33161">
        <ele>102</ele>
        <time>2013-07-28T14:04:16Z</time>
      </trkpt>
      <trkpt lat="44.77332" lon="-0.33131">
        <ele>101</ele>
        <time>2013-07-28T14:04:22Z</time>
      </trkpt>
      <trkpt lat="44.77336" lon="-0.33098">
        <ele>100</ele>
        <time>2013-07-28T14:04:28Z</time>
      </trkpt>
      <trkpt lat="44.7734" lon="-0.33062">
        <ele>99</ele>
        <time>2013-07-28T14:04:35Z</time>
      </trkpt>
      <trkpt lat="44.77346" lon="-0.33029">
        <ele>98</ele>
        <time>2013-07-28T14:04:42Z</time>
      </trkpt>
      <trkpt lat="44.77355" lon="-0.33006">
        <ele>98</ele>
        <time>2013-07-28T14:04:47Z</time>
      </trkpt>
      <trkpt lat="44.77358" lon="-0.33004">
        <ele>98</ele>
        <time>2013-07-28T14:04:48Z</time>
      </trkpt>
      <trkpt lat="44.77361" lon="-0.33003">
        <ele>98</ele>
        <time>2013-07-28T14:04:49Z</time>
      </trkpt>
      <trkpt lat="44.77364" lon="-0.33003">
        <ele>98</ele>
        <time>2013-07-28T14:04:50Z</time>
      </trkpt>
      <trkpt lat="44.77366" lon="-0.33003">
        <ele>98</ele>
        <time>2013-07-28T14:04:51Z</time>
      </trkpt>
      <trkpt lat="44.77386" lon="-0.33">
        <ele>98</ele>
        <time>2013-07-28T14:04:58Z</time>
      </trkpt>
      <trkpt lat="44.77392" lon="-0.32998">
        <ele>98</ele>
        <time>2013-07-28T14:05:01Z</time>
      </trkpt>
      <trkpt lat="44.77394" lon="-0.32997">
        <ele>98</ele>
        <time>2013-07-28T14:05:02Z</time>
      </trkpt>
      <trkpt lat="44.77396" lon="-0.32996">
        <ele>98</ele>
        <time>2013-07-28T14:05:03Z</time>
      </trkpt>
      <trkpt lat="44.77398" lon="-0.32995">
        <ele>98</ele>
        <time>2013-07-28T14:05:04Z</time>
      </trkpt>
      <trkpt lat="44.77399" lon="-0.32993">
        <ele>98</ele>
        <time>2013-07-28T14:05:05Z</time>
      </trkpt>
      <trkpt lat="44.77401" lon="-0.32992">
        <ele>98</ele>
        <time>2013-07-28T14:05:06Z</time>
      </trkpt>
      <trkpt lat="44.77409" lon="-0.32986">
        <ele>98</ele>
        <time>2013-07-28T14:05:12Z</time>
      </trkpt>
      <trkpt lat="44.77409" lon="-0.32986">
        <ele>98</ele>
        <time>2013-07-28T14:05:15Z</time>
      </trkpt>
      <trkpt lat="44.7741" lon="-0.32984">
        <ele>98</ele>
        <time>2013-07-28T14:05:16Z</time>
      </trkpt>
      <trkpt lat="44.7741" lon="-0.32982">
        <ele>98</ele>
        <time>2013-07-28T14:05:17Z</time>
      </trkpt>
      <trkpt lat="44.77412" lon="-0.32979">
        <ele>98</ele>
        <time>2013-07-28T14:05:18Z</time>
      </trkpt>
      <trkpt lat="44.77413" lon="-0.32977">
        <ele>98</ele>
        <time>2013-07-28T14:05:19Z</time>
      </trkpt>
      <trkpt lat="44.77415" lon="-0.32975">
        <ele>98</ele>
        <time>2013-07-28T14:05:20Z</time>
      </trkpt>
      <trkpt lat="44.77417" lon="-0.32973">
        <ele>98</ele>
        <time>2013-07-28T14:05:21Z</time>
      </trkpt>
      <trkpt lat="44.7742" lon="-0.32971">
        <ele>98</ele>
        <time>2013-07-28T14:05:22Z</time>
      </trkpt>
      <trkpt lat="44.77423" lon="-0.32968">
        <ele>98</ele>
        <time>2013-07-28T14:05:23Z</time>
      </trkpt>
      <trkpt lat="44.77426" lon="-0.32965">
        <ele>98</ele>
        <time>2013-07-28T14:05:24Z</time>
      </trkpt>
      <trkpt lat="44.77429" lon="-0.32962">
        <ele>98</ele>
        <time>2013-07-28T14:05:25Z</time>
      </trkpt>
      <trkpt lat="44.77432" lon="-0.32959">
        <ele>98</ele>
        <time>2013-07-28T14:05:26Z</time>
      </trkpt>
      <trkpt lat="44.77434" lon="-0.32955">
        <ele>98</ele>
        <time>2013-07-28T14:05:27Z</time>
      </trkpt>
      <trkpt lat="44.77455" lon="-0.32933">
        <ele>98</ele>
        <time>2013-07-28T14:05:34Z</time>
      </trkpt>
      <trkpt lat="44.7748" lon="-0.32907">
        <ele>98</ele>
        <time>2013-07-28T14:05:43Z</time>
      </trkpt>
      <trkpt lat="44.77499" lon="-0.32891">
        <ele>99</ele>
        <time>2013-07-28T14:05:50Z</time>
      </trkpt>
      <trkpt lat="44.77523" lon="-0.32871">
        <ele>99</ele>
        <time>2013-07-28T14:05:58Z</time>
      </trkpt>
      <trkpt lat="44.7754" lon="-0.32863">
        <ele>99</ele>
        <time>2013-07-28T14:06:03Z</time>
      </trkpt>
      <trkpt lat="44.77569" lon="-0.32853">
        <ele>98</ele>
        <time>2013-07-28T14:06:10Z</time>
      </trkpt>
      <trkpt lat="44.77577" lon="-0.32849">
        <ele>97</ele>
        <time>2013-07-28T14:06:12Z</time>
      </trkpt>
      <trkpt lat="44.776" lon="-0.32845">
        <ele>97</ele>
        <time>2013-07-28T14:06:18Z</time>
      </trkpt>
      <trkpt lat="44.77603" lon="-0.32842">
        <ele>96</ele>
        <time>2013-07-28T14:06:19Z</time>
      </trkpt>
      <trkpt lat="44.77605" lon="-0.32837">
        <ele>96</ele>
        <time>2013-07-28T14:06:20Z</time>
      </trkpt>
      <trkpt lat="44.77604" lon="-0.3282">
        <ele>97</ele>
        <time>2013-07-28T14:06:23Z</time>
      </trkpt>
      <trkpt lat="44.776" lon="-0.32799">
        <ele>97</ele>
        <time>2013-07-28T14:06:27Z</time>
      </trkpt>
      <trkpt lat="44.77594" lon="-0.32777">
        <ele>97</ele>
        <time>2013-07-28T14:06:31Z</time>
      </trkpt>
      <trkpt lat="44.77588" lon="-0.32729">
        <ele>96</ele>
        <time>2013-07-28T14:06:39Z</time>
      </trkpt>
      <trkpt lat="44.77584" lon="-0.32702">
        <ele>95</ele>
        <time>2013-07-28T14:06:43Z</time>
      </trkpt>
      <trkpt lat="44.7758" lon="-0.32682">
        <ele>94</ele>
        <time>2013-07-28T14:06:46Z</time>
      </trkpt>
      <trkpt lat="44.77583" lon="-0.32646">
        <ele>92</ele>
        <time>2013-07-28T14:06:51Z</time>
      </trkpt>
      <trkpt lat="44.77586" lon="-0.32631">
        <ele>91</ele>
        <time>2013-07-28T14:06:53Z</time>
      </trkpt>
      <trkpt lat="44.77583" lon="-0.32589">
        <ele>89</ele>
        <time>2013-07-28T14:06:58Z</time>
      </trkpt>
      <trkpt lat="44.77583" lon="-0.32568">
        <ele>88</ele>
        <time>2013-07-28T14:07:00Z</time>
      </trkpt>
      <trkpt lat="44.7758" lon="-0.32518">
        <ele>86</ele>
        <time>2013-07-28T14:07:05Z</time>
      </trkpt>
      <trkpt lat="44.77575" lon="-0.32476">
        <ele>85</ele>
        <time>2013-07-28T14:07:10Z</time>
      </trkpt>
      <trkpt lat="44.7756" lon="-0.3243">
        <ele>84</ele>
        <time>2013-07-28T14:07:16Z</time>
      </trkpt>
      <trkpt lat="44.7755" lon="-0.32398">
        <ele>82</ele>
        <time>2013-07-28T14:07:22Z</time>
      </trkpt>
      <trkpt lat="44.77551" lon="-0.32393">
        <ele>82</ele>
        <time>2013-07-28T14:07:26Z</time>
      </trkpt>
      <trkpt lat="44.77552" lon="-0.32387">
        <ele>81</ele>
        <time>2013-07-28T14:07:31Z</time>
      </trkpt>
      <trkpt lat="44.77552" lon="-0.32386">
        <ele>81</ele>
        <time>2013-07-28T14:07:33Z</time>
      </trkpt>
      <trkpt lat="44.77559" lon="-0.32386">
        <ele>82</ele>
        <time>2013-07-28T14:07:40Z</time>
      </trkpt>
      <trkpt lat="44.77576" lon="-0.32384">
        <ele>81</ele>
        <time>2013-07-28T14:07:46Z</time>
      </trkpt>
      <trkpt lat="44.77608" lon="-0.32389">
        <ele>80</ele>
        <time>2013-07-28T14:07:53Z</time>
      </trkpt>
      <trkpt lat="44.77644" lon="-0.32392">
        <ele>78</ele>
        <time>2013-07-28T14:08:01Z</time>
      </trkpt>
      <trkpt lat="44.77686" lon="-0.32396">
        <ele>77</ele>
        <time>2013-07-28T14:08:10Z</time>
      </trkpt>
      <trkpt lat="44.77709" lon="-0.32394">
        <ele>75</ele>
        <time>2013-07-28T14:08:16Z</time>
      </trkpt>
      <trkpt lat="44.77715" lon="-0.3239">
        <ele>75</ele>
        <time>2013-07-28T14:08:21Z</time>
      </trkpt>
      <trkpt lat="44.77715" lon="-0.3239">
        <ele>75</ele>
        <time>2013-07-28T14:08:23Z</time>
      </trkpt>
      <trkpt lat="44.77719" lon="-0.32391">
        <ele>75</ele>
        <time>2013-07-28T14:08:30Z</time>
      </trkpt>
      <trkpt lat="44.77725" lon="-0.32393">
        <ele>75</ele>
        <time>2013-07-28T14:08:36Z</time>
      </trkpt>
      <trkpt lat="44.77728" lon="-0.32395">
        <ele>75</ele>
        <time>2013-07-28T14:08:44Z</time>
      </trkpt>
      <trkpt lat="44.77732" lon="-0.32398">
        <ele>75</ele>
        <time>2013-07-28T14:08:46Z</time>
      </trkpt>
      <trkpt lat="44.77755" lon="-0.32401">
        <ele>74</ele>
        <time>2013-07-28T14:08:55Z</time>
      </trkpt>
      <trkpt lat="44.77778" lon="-0.32401">
        <ele>73</ele>
        <time>2013-07-28T14:09:02Z</time>
      </trkpt>
      <trkpt lat="44.77802" lon="-0.32403">
        <ele>73</ele>
        <time>2013-07-28T14:09:07Z</time>
      </trkpt>
      <trkpt lat="44.77829" lon="-0.324">
        <ele>72</ele>
        <time>2013-07-28T14:09:14Z</time>
      </trkpt>
      <trkpt lat="44.77831" lon="-0.32399">
        <ele>72</ele>
        <time>2013-07-28T14:09:15Z</time>
      </trkpt>
      <trkpt lat="44.77835" lon="-0.32379">
        <ele>71</ele>
        <time>2013-07-28T14:09:18Z</time>
      </trkpt>
      <trkpt lat="44.77836" lon="-0.32325">
        <ele>70</ele>
        <time>2013-07-28T14:09:25Z</time>
      </trkpt>
      <trkpt lat="44.77837" lon="-0.32307">
        <ele>69</ele>
        <time>2013-07-28T14:09:27Z</time>
      </trkpt>
      <trkpt lat="44.77841" lon="-0.32277">
        <ele>69</ele>
        <time>2013-07-28T14:09:32Z</time>
      </trkpt>
      <trkpt lat="44.77859" lon="-0.32264">
        <ele>67</ele>
        <time>2013-07-28T14:09:39Z</time>
      </trkpt>
      <trkpt lat="44.77863" lon="-0.32265">
        <ele>67</ele>
        <time>2013-07-28T14:09:40Z</time>
      </trkpt>
      <trkpt lat="44.77885" lon="-0.32271">
        <ele>66</ele>
        <time>2013-07-28T14:09:46Z</time>
      </trkpt>
      <trkpt lat="44.77926" lon="-0.32289">
        <ele>66</ele>
        <time>2013-07-28T14:09:55Z</time>
      </trkpt>
      <trkpt lat="44.77941" lon="-0.32291">
        <ele>66</ele>
        <time>2013-07-28T14:09:59Z</time>
      </trkpt>
      <trkpt lat="44.77958" lon="-0.32273">
        <ele>65</ele>
        <time>2013-07-28T14:10:06Z</time>
      </trkpt>
      <trkpt lat="44.77975" lon="-0.32272">
        <ele>65</ele>
        <time>2013-07-28T14:10:12Z</time>
      </trkpt>
      <trkpt lat="44.77989" lon="-0.3227">
        <ele>64</ele>
        <time>2013-07-28T14:10:18Z</time>
      </trkpt>
      <trkpt lat="44.78006" lon="-0.32236">
        <ele>63</ele>
        <time>2013-07-28T14:10:26Z</time>
      </trkpt>
      <trkpt lat="44.78012" lon="-0.32213">
        <ele>62</ele>
        <time>2013-07-28T14:10:30Z</time>
      </trkpt>
      <trkpt lat="44.78015" lon="-0.3219">
        <ele>61</ele>
        <time>2013-07-28T14:10:35Z</time>
      </trkpt>
      <trkpt lat="44.78016" lon="-0.32188">
        <ele>61</ele>
        <time>2013-07-28T14:10:36Z</time>
      </trkpt>
      <trkpt lat="44.78018" lon="-0.32172">
        <ele>60</ele>
        <time>2013-07-28T14:10:42Z</time>
      </trkpt>
      <trkpt lat="44.7802" lon="-0.32168">
        <ele>60</ele>
        <time>2013-07-28T14:10:44Z</time>
      </trkpt>
      <trkpt lat="44.78023" lon="-0.32153">
        <ele>60</ele>
        <time>2013-07-28T14:10:52Z</time>
      </trkpt>
      <trkpt lat="44.78025" lon="-0.3215">
        <ele>60</ele>
        <time>2013-07-28T14:10:58Z</time>
      </trkpt>
      <trkpt lat="44.78026" lon="-0.32149">
        <ele>60</ele>
        <time>2013-07-28T14:11:15Z</time>
      </trkpt>
      <trkpt lat="44.78026" lon="-0.32148">
        <ele>60</ele>
        <time>2013-07-28T14:11:33Z</time>
      </trkpt>
      <trkpt lat="44.78026" lon="-0.32148">
        <ele>60</ele>
        <time>2013-07-28T14:11:47Z</time>
      </trkpt>
      <trkpt lat="44.78026" lon="-0.32147">
        <ele>60</ele>
        <time>2013-07-28T14:12:03Z</time>
      </trkpt>
      <trkpt lat="44.78029" lon="-0.32145">
        <ele>60</ele>
        <time>2013-07-28T14:12:09Z</time>
      </trkpt>
      <trkpt lat="44.78031" lon="-0.32143">
        <ele>60</ele>
        <time>2013-07-28T14:12:11Z</time>
      </trkpt>
      <trkpt lat="44.78043" lon="-0.32141">
        <ele>60</ele>
        <time>2013-07-28T14:12:17Z</time>
      </trkpt>
      <trkpt lat="44.78063" lon="-0.32138">
        <ele>60</ele>
        <time>2013-07-28T14:12:24Z</time>
      </trkpt>
      <trkpt lat="44.78089" lon="-0.32136">
        <ele>60</ele>
        <time>2013-07-28T14:12:31Z</time>
      </trkpt>
      <trkpt lat="44.78129" lon="-0.32135">
        <ele>60</ele>
        <time>2013-07-28T14:12:41Z</time>
      </trkpt>
      <trkpt lat="44.78144" lon="-0.32137">
        <ele>60</ele>
        <time>2013-07-28T14:12:44Z</time>
      </trkpt>
      <trkpt lat="44.78149" lon="-0.3214">
        <ele>60</ele>
        <time>2013-07-28T14:12:45Z</time>
      </trkpt>
      <trkpt lat="44.78162" lon="-0.32147">
        <ele>60</ele>
        <time>2013-07-28T14:12:48Z</time>
      </trkpt>
      <trkpt lat="44.78171" lon="-0.32152">
        <ele>60</ele>
        <time>2013-07-28T14:12:50Z</time>
      </trkpt>
      <trkpt lat="44.78184" lon="-0.32159">
        <ele>60</ele>
        <time>2013-07-28T14:12:53Z</time>
      </trkpt>
      <trkpt lat="44.78188" lon="-0.32162">
        <ele>60</ele>
        <time>2013-07-28T14:12:54Z</time>
      </trkpt>
      <trkpt lat="44.78192" lon="-0.32164">
        <ele>60</ele>
        <time>2013-07-28T14:12:55Z</time>
      </trkpt>
      <trkpt lat="44.78195" lon="-0.32166">
        <ele>60</ele>
        <time>2013-07-28T14:12:56Z</time>
      </trkpt>
      <trkpt lat="44.78199" lon="-0.32168">
        <ele>60</ele>
        <time>2013-07-28T14:12:57Z</time>
      </trkpt>
      <trkpt lat="44.78221" lon="-0.32178">
        <ele>60</ele>
        <time>2013-07-28T14:13:03Z</time>
      </trkpt>
      <trkpt lat="44.7824" lon="-0.32189">
        <ele>60</ele>
        <time>2013-07-28T14:13:08Z</time>
      </trkpt>
      <trkpt lat="44.78259" lon="-0.32207">
        <ele>60</ele>
        <time>2013-07-28T14:13:15Z</time>
      </trkpt>
      <trkpt lat="44.78262" lon="-0.32207">
        <ele>60</ele>
        <time>2013-07-28T14:13:16Z</time>
      </trkpt>
      <trkpt lat="44.78286" lon="-0.32193">
        <ele>60</ele>
        <time>2013-07-28T14:13:24Z</time>
      </trkpt>
      <trkpt lat="44.78291" lon="-0.32193">
        <ele>60</ele>
        <time>2013-07-28T14:13:25Z</time>
      </trkpt>
      <trkpt lat="44.78303" lon="-0.32195">
        <ele>60</ele>
        <time>2013-07-28T14:13:27Z</time>
      </trkpt>
      <trkpt lat="44.78337" lon="-0.32199">
        <ele>60</ele>
        <time>2013-07-28T14:13:34Z</time>
      </trkpt>
      <trkpt lat="44.78361" lon="-0.32205">
        <ele>60</ele>
        <time>2013-07-28T14:13:40Z</time>
      </trkpt>
      <trkpt lat="44.784" lon="-0.32211">
        <ele>61</ele>
        <time>2013-07-28T14:13:48Z</time>
      </trkpt>
      <trkpt lat="44.7844" lon="-0.32225">
        <ele>61</ele>
        <time>2013-07-28T14:13:57Z</time>
      </trkpt>
      <trkpt lat="44.7847" lon="-0.32247">
        <ele>61</ele>
        <time>2013-07-28T14:14:05Z</time>
      </trkpt>
      <trkpt lat="44.78484" lon="-0.3225">
        <ele>60</ele>
        <time>2013-07-28T14:14:09Z</time>
      </trkpt>
      <trkpt lat="44.78486" lon="-0.32246">
        <ele>60</ele>
        <time>2013-07-28T14:14:10Z</time>
      </trkpt>
      <trkpt lat="44.78499" lon="-0.32207">
        <ele>59</ele>
        <time>2013-07-28T14:14:16Z</time>
      </trkpt>
      <trkpt lat="44.78525" lon="-0.3214">
        <ele>58</ele>
        <time>2013-07-28T14:14:25Z</time>
      </trkpt>
      <trkpt lat="44.78553" lon="-0.32071">
        <ele>58</ele>
        <time>2013-07-28T14:14:34Z</time>
      </trkpt>
      <trkpt lat="44.78573" lon="-0.32016">
        <ele>59</ele>
        <time>2013-07-28T14:14:41Z</time>
      </trkpt>
      <trkpt lat="44.78597" lon="-0.31955">
        <ele>61</ele>
        <time>2013-07-28T14:14:49Z</time>
      </trkpt>
      <trkpt lat="44.78622" lon="-0.31888">
        <ele>64</ele>
        <time>2013-07-28T14:14:58Z</time>
      </trkpt>
      <trkpt lat="44.7864" lon="-0.3184">
        <ele>65</ele>
        <time>2013-07-28T14:15:05Z</time>
      </trkpt>
      <trkpt lat="44.78642" lon="-0.31833">
        <ele>65</ele>
        <time>2013-07-28T14:15:06Z</time>
      </trkpt>
      <trkpt lat="44.78651" lon="-0.318">
        <ele>66</ele>
        <time>2013-07-28T14:15:11Z</time>
      </trkpt>
      <trkpt lat="44.78652" lon="-0.31794">
        <ele>66</ele>
        <time>2013-07-28T14:15:12Z</time>
      </trkpt>
      <trkpt lat="44.78658" lon="-0.31769">
        <ele>66</ele>
        <time>2013-07-28T14:15:18Z</time>
      </trkpt>
      <trkpt lat="44.78663" lon="-0.31749">
        <ele>66</ele>
        <time>2013-07-28T14:15:23Z</time>
      </trkpt>
      <trkpt lat="44.78665" lon="-0.31746">
        <ele>66</ele>
        <time>2013-07-28T14:15:24Z</time>
      </trkpt>
      <trkpt lat="44.78666" lon="-0.31743">
        <ele>66</ele>
        <time>2013-07-28T14:15:25Z</time>
      </trkpt>
      <trkpt lat="44.78667" lon="-0.3174">
        <ele>66</ele>
        <time>2013-07-28T14:15:26Z</time>
      </trkpt>
      <trkpt lat="44.78668" lon="-0.31737">
        <ele>66</ele>
        <time>2013-07-28T14:15:27Z</time>
      </trkpt>
      <trkpt lat="44.78675" lon="-0.31711">
        <ele>66</ele>
        <time>2013-07-28T14:15:34Z</time>
      </trkpt>
      <trkpt lat="44.78683" lon="-0.31682">
        <ele>67</ele>
        <time>2013-07-28T14:15:40Z</time>
      </trkpt>
      <trkpt lat="44.78688" lon="-0.31658">
        <ele>67</ele>
        <time>2013-07-28T14:15:45Z</time>
      </trkpt>
      <trkpt lat="44.78694" lon="-0.31629">
        <ele>68</ele>
        <time>2013-07-28T14:15:52Z</time>
      </trkpt>
      <trkpt lat="44.78695" lon="-0.31595">
        <ele>68</ele>
        <time>2013-07-28T14:15:58Z</time>
      </trkpt>
      <trkpt lat="44.78696" lon="-0.31568">
        <ele>69</ele>
        <time>2013-07-28T14:16:03Z</time>
      </trkpt>
      <trkpt lat="44.78697" lon="-0.31542">
        <ele>69</ele>
        <time>2013-07-28T14:16:08Z</time>
      </trkpt>
      <trkpt lat="44.78697" lon="-0.31509">
        <ele>70</ele>
        <time>2013-07-28T14:16:14Z</time>
      </trkpt>
      <trkpt lat="44.78696" lon="-0.31459">
        <ele>71</ele>
        <time>2013-07-28T14:16:23Z</time>
      </trkpt>
      <trkpt lat="44.78691" lon="-0.31409">
        <ele>72</ele>
        <time>2013-07-28T14:16:32Z</time>
      </trkpt>
      <trkpt lat="44.78688" lon="-0.31365">
        <ele>72</ele>
        <time>2013-07-28T14:16:40Z</time>
      </trkpt>
      <trkpt lat="44.78687" lon="-0.31327">
        <ele>72</ele>
        <time>2013-07-28T14:16:47Z</time>
      </trkpt>
      <trkpt lat="44.78685" lon="-0.31297">
        <ele>72</ele>
        <time>2013-07-28T14:16:52Z</time>
      </trkpt>
      <trkpt lat="44.78685" lon="-0.31291">
        <ele>72</ele>
        <time>2013-07-28T14:16:53Z</time>
      </trkpt>
      <trkpt lat="44.78685" lon="-0.31285">
        <ele>72</ele>
        <time>2013-07-28T14:16:54Z</time>
      </trkpt>
      <trkpt lat="44.78689" lon="-0.31228">
        <ele>71</ele>
        <time>2013-07-28T14:17:02Z</time>
      </trkpt>
      <trkpt lat="44.78692" lon="-0.31166">
        <ele>70</ele>
        <time>2013-07-28T14:17:10Z</time>
      </trkpt>
      <trkpt lat="44.78695" lon="-0.31104">
        <ele>69</ele>
        <time>2013-07-28T14:17:19Z</time>
      </trkpt>
      <trkpt lat="44.78698" lon="-0.31051">
        <ele>70</ele>
        <time>2013-07-28T14:17:26Z</time>
      </trkpt>
      <trkpt lat="44.78703" lon="-0.30984">
        <ele>70</ele>
        <time>2013-07-28T14:17:34Z</time>
      </trkpt>
      <trkpt lat="44.78709" lon="-0.30906">
        <ele>70</ele>
        <time>2013-07-28T14:17:43Z</time>
      </trkpt>
      <trkpt lat="44.78714" lon="-0.30824">
        <ele>71</ele>
        <time>2013-07-28T14:17:52Z</time>
      </trkpt>
      <trkpt lat="44.78718" lon="-0.30765">
        <ele>71</ele>
        <time>2013-07-28T14:17:59Z</time>
      </trkpt>
      <trkpt lat="44.78724" lon="-0.30686">
        <ele>72</ele>
        <time>2013-07-28T14:18:09Z</time>
      </trkpt>
      <trkpt lat="44.78725" lon="-0.30678">
        <ele>72</ele>
        <time>2013-07-28T14:18:10Z</time>
      </trkpt>
      <trkpt lat="44.78726" lon="-0.3067">
        <ele>72</ele>
        <time>2013-07-28T14:18:11Z</time>
      </trkpt>
      <trkpt lat="44.78726" lon="-0.30648">
        <ele>71</ele>
        <time>2013-07-28T14:18:14Z</time>
      </trkpt>
      <trkpt lat="44.7873" lon="-0.30602">
        <ele>71</ele>
        <time>2013-07-28T14:18:20Z</time>
      </trkpt>
      <trkpt lat="44.78729" lon="-0.30594">
        <ele>71</ele>
        <time>2013-07-28T14:18:21Z</time>
      </trkpt>
      <trkpt lat="44.78729" lon="-0.30587">
        <ele>71</ele>
        <time>2013-07-28T14:18:22Z</time>
      </trkpt>
      <trkpt lat="44.78729" lon="-0.30548">
        <ele>72</ele>
        <time>2013-07-28T14:18:29Z</time>
      </trkpt>
      <trkpt lat="44.7873" lon="-0.30509">
        <ele>72</ele>
        <time>2013-07-28T14:18:36Z</time>
      </trkpt>
      <trkpt lat="44.7873" lon="-0.30485">
        <ele>72</ele>
        <time>2013-07-28T14:18:42Z</time>
      </trkpt>
      <trkpt lat="44.78731" lon="-0.30471">
        <ele>72</ele>
        <time>2013-07-28T14:18:49Z</time>
      </trkpt>
      <trkpt lat="44.78731" lon="-0.30469">
        <ele>72</ele>
        <time>2013-07-28T14:18:50Z</time>
      </trkpt>
      <trkpt lat="44.78731" lon="-0.30467">
        <ele>72</ele>
        <time>2013-07-28T14:18:56Z</time>
      </trkpt>
      <trkpt lat="44.78731" lon="-0.30466">
        <ele>72</ele>
        <time>2013-07-28T14:19:05Z</time>
      </trkpt>
      <trkpt lat="44.78731" lon="-0.30466">
        <ele>72</ele>
        <time>2013-07-28T14:19:16Z</time>
      </trkpt>
      <trkpt lat="44.78731" lon="-0.30464">
        <ele>72</ele>
        <time>2013-07-28T14:19:29Z</time>
      </trkpt>
      <trkpt lat="44.7873" lon="-0.30459">
        <ele>72</ele>
        <time>2013-07-28T14:19:36Z</time>
      </trkpt>
      <trkpt lat="44.7873" lon="-0.30453">
        <ele>72</ele>
        <time>2013-07-28T14:19:42Z</time>
      </trkpt>
      <trkpt lat="44.78728" lon="-0.30435">
        <ele>72</ele>
        <time>2013-07-28T14:19:48Z</time>
      </trkpt>
      <trkpt lat="44.78726" lon="-0.30412">
        <ele>73</ele>
        <time>2013-07-28T14:19:56Z</time>
      </trkpt>
      <trkpt lat="44.78726" lon="-0.30386">
        <ele>73</ele>
        <time>2013-07-28T14:20:04Z</time>
      </trkpt>
      <trkpt lat="44.78726" lon="-0.30357">
        <ele>73</ele>
        <time>2013-07-28T14:20:14Z</time>
      </trkpt>
      <trkpt lat="44.78727" lon="-0.30352">
        <ele>73</ele>
        <time>2013-07-28T14:20:21Z</time>
      </trkpt>
      <trkpt lat="44.78727" lon="-0.30342">
        <ele>73</ele>
        <time>2013-07-28T14:20:30Z</time>
      </trkpt>
      <trkpt lat="44.78726" lon="-0.30332">
        <ele>73</ele>
        <time>2013-07-28T14:20:38Z</time>
      </trkpt>
      <trkpt lat="44.78726" lon="-0.3033">
        <ele>73</ele>
        <time>2013-07-28T14:20:48Z</time>
      </trkpt>
      <trkpt lat="44.78726" lon="-0.30328">
        <ele>73</ele>
        <time>2013-07-28T14:20:57Z</time>
      </trkpt>
      <trkpt lat="44.78726" lon="-0.30327">
        <ele>73</ele>
        <time>2013-07-28T14:21:06Z</time>
      </trkpt>
      <trkpt lat="44.78726" lon="-0.30317">
        <ele>73</ele>
        <time>2013-07-28T14:21:15Z</time>
      </trkpt>
      <trkpt lat="44.78727" lon="-0.3031">
        <ele>74</ele>
        <time>2013-07-28T14:21:24Z</time>
      </trkpt>
      <trkpt lat="44.78727" lon="-0.30304">
        <ele>74</ele>
        <time>2013-07-28T14:21:33Z</time>
      </trkpt>
      <trkpt lat="44.78726" lon="-0.303">
        <ele>74</ele>
        <time>2013-07-28T14:21:43Z</time>
      </trkpt>
      <trkpt lat="44.78724" lon="-0.30288">
        <ele>74</ele>
        <time>2013-07-28T14:21:54Z</time>
      </trkpt>
      <trkpt lat="44.78722" lon="-0.30285">
        <ele>74</ele>
        <time>2013-07-28T14:21:56Z</time>
      </trkpt>
      <trkpt lat="44.78717" lon="-0.30275">
        <ele>74</ele>
        <time>2013-07-28T14:22:06Z</time>
      </trkpt>
      <trkpt lat="44.78717" lon="-0.30269">
        <ele>74</ele>
        <time>2013-07-28T14:22:13Z</time>
      </trkpt>
      <trkpt lat="44.78713" lon="-0.30246">
        <ele>74</ele>
        <time>2013-07-28T14:22:22Z</time>
      </trkpt>
      <trkpt lat="44.78713" lon="-0.30211">
        <ele>75</ele>
        <time>2013-07-28T14:22:33Z</time>
      </trkpt>
      <trkpt lat="44.78712" lon="-0.30186">
        <ele>75</ele>
        <time>2013-07-28T14:22:43Z</time>
      </trkpt>
      <trkpt lat="44.7871" lon="-0.30158">
        <ele>76</ele>
        <time>2013-07-28T14:22:53Z</time>
      </trkpt>
      <trkpt lat="44.78712" lon="-0.30148">
        <ele>76</ele>
        <time>2013-07-28T14:23:02Z</time>
      </trkpt>
      <trkpt lat="44.78707" lon="-0.30152">
        <ele>76</ele>
        <time>2013-07-28T14:23:12Z</time>
      </trkpt>
      <trkpt lat="44.78706" lon="-0.30155">
        <ele>76</ele>
        <time>2013-07-28T14:23:19Z</time>
      </trkpt>
      <trkpt lat="44.78703" lon="-0.3015">
        <ele>76</ele>
        <time>2013-07-28T14:23:28Z</time>
      </trkpt>
      <trkpt lat="44.78703" lon="-0.30147">
        <ele>76</ele>
        <time>2013-07-28T14:23:33Z</time>
      </trkpt>
      <trkpt lat="44.78698" lon="-0.30117">
        <ele>76</ele>
        <time>2013-07-28T14:23:43Z</time>
      </trkpt>
      <trkpt lat="44.78702" lon="-0.30103">
        <ele>76</ele>
        <time>2013-07-28T14:23:49Z</time>
      </trkpt>
      <trkpt lat="44.78704" lon="-0.30102">
        <ele>76</ele>
        <time>2013-07-28T14:23:51Z</time>
      </trkpt>
      <trkpt lat="44.78711" lon="-0.30099">
        <ele>77</ele>
        <time>2013-07-28T14:24:00Z</time>
      </trkpt>
      <trkpt lat="44.78711" lon="-0.30094">
        <ele>77</ele>
        <time>2013-07-28T14:24:09Z</time>
      </trkpt>
      <trkpt lat="44.78711" lon="-0.30085">
        <ele>77</ele>
        <time>2013-07-28T14:24:20Z</time>
      </trkpt>
      <trkpt lat="44.78712" lon="-0.30078">
        <ele>77</ele>
        <time>2013-07-28T14:24:31Z</time>
      </trkpt>
      <trkpt lat="44.78712" lon="-0.30072">
        <ele>78</ele>
        <time>2013-07-28T14:24:43Z</time>
      </trkpt>
      <trkpt lat="44.78711" lon="-0.30067">
        <ele>78</ele>
        <time>2013-07-28T14:24:46Z</time>
      </trkpt>
      <trkpt lat="44.78708" lon="-0.30036">
        <ele>78</ele>
        <time>2013-07-28T14:24:56Z</time>
      </trkpt>
      <trkpt lat="44.78711" lon="-0.30004">
        <ele>79</ele>
        <time>2013-07-28T14:25:04Z</time>
      </trkpt>
      <trkpt lat="44.78706" lon="-0.29968">
        <ele>80</ele>
        <time>2013-07-28T14:25:15Z</time>
      </trkpt>
      <trkpt lat="44.78704" lon="-0.29934">
        <ele>81</ele>
        <time>2013-07-28T14:25:24Z</time>
      </trkpt>
      <trkpt lat="44.78704" lon="-0.29906">
        <ele>81</ele>
        <time>2013-07-28T14:25:32Z</time>
      </trkpt>
      <trkpt lat="44.78701" lon="-0.29868">
        <ele>82</ele>
        <time>2013-07-28T14:25:43Z</time>
      </trkpt>
      <trkpt lat="44.78697" lon="-0.29836">
        <ele>82</ele>
        <time>2013-07-28T14:25:53Z</time>
      </trkpt>
      <trkpt lat="44.78694" lon="-0.2981">
        <ele>83</ele>
        <time>2013-07-28T14:26:01Z</time>
      </trkpt>
      <trkpt lat="44.78691" lon="-0.29771">
        <ele>84</ele>
        <time>2013-07-28T14:26:11Z</time>
      </trkpt>
      <trkpt lat="44.78686" lon="-0.29743">
        <ele>84</ele>
        <time>2013-07-28T14:26:19Z</time>
      </trkpt>
      <trkpt lat="44.78684" lon="-0.29741">
        <ele>84</ele>
        <time>2013-07-28T14:26:20Z</time>
      </trkpt>
      <trkpt lat="44.78672" lon="-0.29736">
        <ele>84</ele>
        <time>2013-07-28T14:26:27Z</time>
      </trkpt>
      <trkpt lat="44.7867" lon="-0.29737">
        <ele>84</ele>
        <time>2013-07-28T14:26:28Z</time>
      </trkpt>
      <trkpt lat="44.78646" lon="-0.2975">
        <ele>83</ele>
        <time>2013-07-28T14:26:37Z</time>
      </trkpt>
      <trkpt lat="44.78627" lon="-0.29763">
        <ele>82</ele>
        <time>2013-07-28T14:26:44Z</time>
      </trkpt>
      <trkpt lat="44.78596" lon="-0.29786">
        <ele>82</ele>
        <time>2013-07-28T14:26:54Z</time>
      </trkpt>
      <trkpt lat="44.7856" lon="-0.29809">
        <ele>81</ele>
        <time>2013-07-28T14:27:04Z</time>
      </trkpt>
      <trkpt lat="44.78521" lon="-0.29831">
        <ele>81</ele>
        <time>2013-07-28T14:27:14Z</time>
      </trkpt>
      <trkpt lat="44.78492" lon="-0.29848">
        <ele>82</ele>
        <time>2013-07-28T14:27:22Z</time>
      </trkpt>
      <trkpt lat="44.78476" lon="-0.29857">
        <ele>82</ele>
        <time>2013-07-28T14:27:29Z</time>
      </trkpt>
      <trkpt lat="44.78458" lon="-0.2987">
        <ele>82</ele>
        <time>2013-07-28T14:27:37Z</time>
      </trkpt>
      <trkpt lat="44.78426" lon="-0.29893">
        <ele>83</ele>
        <time>2013-07-28T14:27:47Z</time>
      </trkpt>
      <trkpt lat="44.784" lon="-0.29916">
        <ele>84</ele>
        <time>2013-07-28T14:27:55Z</time>
      </trkpt>
      <trkpt lat="44.78362" lon="-0.29953">
        <ele>85</ele>
        <time>2013-07-28T14:28:07Z</time>
      </trkpt>
      <trkpt lat="44.78328" lon="-0.29988">
        <ele>86</ele>
        <time>2013-07-28T14:28:17Z</time>
      </trkpt>
      <trkpt lat="44.78294" lon="-0.30017">
        <ele>86</ele>
        <time>2013-07-28T14:28:26Z</time>
      </trkpt>
      <trkpt lat="44.78259" lon="-0.30035">
        <ele>89</ele>
        <time>2013-07-28T14:28:35Z</time>
      </trkpt>
      <trkpt lat="44.78227" lon="-0.30048">
        <ele>90</ele>
        <time>2013-07-28T14:28:44Z</time>
      </trkpt>
      <trkpt lat="44.78216" lon="-0.30065">
        <ele>91</ele>
        <time>2013-07-28T14:28:51Z</time>
      </trkpt>
      <trkpt lat="44.78215" lon="-0.30067">
        <ele>91</ele>
        <time>2013-07-28T14:28:57Z</time>
      </trkpt>
      <trkpt lat="44.78214" lon="-0.30068">
        <ele>92</ele>
        <time>2013-07-28T14:29:10Z</time>
      </trkpt>
      <trkpt lat="44.78214" lon="-0.30068">
        <ele>92</ele>
        <time>2013-07-28T14:29:25Z</time>
      </trkpt>
      <trkpt lat="44.78213" lon="-0.30071">
        <ele>92</ele>
        <time>2013-07-28T14:29:33Z</time>
      </trkpt>
      <trkpt lat="44.78212" lon="-0.3007">
        <ele>92</ele>
        <time>2013-07-28T14:29:48Z</time>
      </trkpt>
      <trkpt lat="44.78212" lon="-0.30069">
        <ele>92</ele>
        <time>2013-07-28T14:30:10Z</time>
      </trkpt>
      <trkpt lat="44.78212" lon="-0.30068">
        <ele>92</ele>
        <time>2013-07-28T14:30:32Z</time>
      </trkpt>
      <trkpt lat="44.78212" lon="-0.30068">
        <ele>92</ele>
        <time>2013-07-28T14:30:52Z</time>
      </trkpt>
      <trkpt lat="44.78212" lon="-0.3007">
        <ele>92</ele>
        <time>2013-07-28T14:31:15Z</time>
      </trkpt>
      <trkpt lat="44.78213" lon="-0.30071">
        <ele>92</ele>
        <time>2013-07-28T14:31:39Z</time>
      </trkpt>
      <trkpt lat="44.78213" lon="-0.30071">
        <ele>92</ele>
        <time>2013-07-28T14:32:05Z</time>
      </trkpt>
      <trkpt lat="44.78213" lon="-0.30071">
        <ele>92</ele>
        <time>2013-07-28T14:32:29Z</time>
      </trkpt>
      <trkpt lat="44.78213" lon="-0.30071">
        <ele>92</ele>
        <time>2013-07-28T14:32:48Z</time>
      </trkpt>
      <trkpt lat="44.78213" lon="-0.30071">
        <ele>92</ele>
        <time>2013-07-28T14:33:11Z</time>
      </trkpt>
      <trkpt lat="44.78211" lon="-0.3007">
        <ele>92</ele>
        <time>2013-07-28T14:33:23Z</time>
      </trkpt>
      <trkpt lat="44.78207" lon="-0.30075">
        <ele>92</ele>
        <time>2013-07-28T14:33:32Z</time>
      </trkpt>
      <trkpt lat="44.78195" lon="-0.30085">
        <ele>93</ele>
        <time>2013-07-28T14:33:40Z</time>
      </trkpt>
      <trkpt lat="44.78185" lon="-0.30096">
        <ele>93</ele>
        <time>2013-07-28T14:33:47Z</time>
      </trkpt>
      <trkpt lat="44.78173" lon="-0.30113">
        <ele>93</ele>
        <time>2013-07-28T14:33:55Z</time>
      </trkpt>
      <trkpt lat="44.78164" lon="-0.30139">
        <ele>94</ele>
        <time>2013-07-28T14:34:03Z</time>
      </trkpt>
      <trkpt lat="44.78154" lon="-0.30167">
        <ele>96</ele>
        <time>2013-07-28T14:34:11Z</time>
      </trkpt>
      <trkpt lat="44.78145" lon="-0.30198">
        <ele>98</ele>
        <time>2013-07-28T14:34:19Z</time>
      </trkpt>
      <trkpt lat="44.78134" lon="-0.30221">
        <ele>98</ele>
        <time>2013-07-28T14:34:26Z</time>
      </trkpt>
      <trkpt lat="44.7812" lon="-0.3024">
        <ele>98</ele>
        <time>2013-07-28T14:34:34Z</time>
      </trkpt>
      <trkpt lat="44.78106" lon="-0.30258">
        <ele>99</ele>
        <time>2013-07-28T14:34:41Z</time>
      </trkpt>
      <trkpt lat="44.78093" lon="-0.30268">
        <ele>100</ele>
        <time>2013-07-28T14:34:46Z</time>
      </trkpt>
      <trkpt lat="44.78085" lon="-0.30274">
        <ele>100</ele>
        <time>2013-07-28T14:34:53Z</time>
      </trkpt>
      <trkpt lat="44.78082" lon="-0.30272">
        <ele>100</ele>
        <time>2013-07-28T14:34:59Z</time>
      </trkpt>
      <trkpt lat="44.78082" lon="-0.30265">
        <ele>99</ele>
        <time>2013-07-28T14:35:07Z</time>
      </trkpt>
      <trkpt lat="44.78091" lon="-0.30263">
        <ele>99</ele>
        <time>2013-07-28T14:35:15Z</time>
      </trkpt>
      <trkpt lat="44.78094" lon="-0.30268">
        <ele>100</ele>
        <time>2013-07-28T14:35:20Z</time>
      </trkpt>
      <trkpt lat="44.7809" lon="-0.30296">
        <ele>101</ele>
        <time>2013-07-28T14:35:27Z</time>
      </trkpt>
      <trkpt lat="44.78089" lon="-0.30315">
        <ele>101</ele>
        <time>2013-07-28T14:35:34Z</time>
      </trkpt>
      <trkpt lat="44.78086" lon="-0.30334">
        <ele>102</ele>
        <time>2013-07-28T14:35:42Z</time>
      </trkpt>
      <trkpt lat="44.78083" lon="-0.30361">
        <ele>102</ele>
        <time>2013-07-28T14:35:51Z</time>
      </trkpt>
      <trkpt lat="44.78082" lon="-0.30367">
        <ele>102</ele>
        <time>2013-07-28T14:35:53Z</time>
      </trkpt>
      <trkpt lat="44.78083" lon="-0.30392">
        <ele>102</ele>
        <time>2013-07-28T14:36:01Z</time>
      </trkpt>
      <trkpt lat="44.78083" lon="-0.30419">
        <ele>101</ele>
        <time>2013-07-28T14:36:08Z</time>
      </trkpt>
      <trkpt lat="44.78077" lon="-0.30441">
        <ele>101</ele>
        <time>2013-07-28T14:36:15Z</time>
      </trkpt>
      <trkpt lat="44.78062" lon="-0.30483">
        <ele>100</ele>
        <time>2013-07-28T14:36:23Z</time>
      </trkpt>
      <trkpt lat="44.78045" lon="-0.30522">
        <ele>99</ele>
        <time>2013-07-28T14:36:30Z</time>
      </trkpt>
      <trkpt lat="44.78041" lon="-0.3055">
        <ele>96</ele>
        <time>2013-07-28T14:36:36Z</time>
      </trkpt>
      <trkpt lat="44.78051" lon="-0.30582">
        <ele>92</ele>
        <time>2013-07-28T14:36:45Z</time>
      </trkpt>
      <trkpt lat="44.78051" lon="-0.30588">
        <ele>92</ele>
        <time>2013-07-28T14:36:48Z</time>
      </trkpt>
      <trkpt lat="44.78037" lon="-0.30601">
        <ele>91</ele>
        <time>2013-07-28T14:36:57Z</time>
      </trkpt>
      <trkpt lat="44.78035" lon="-0.30602">
        <ele>91</ele>
        <time>2013-07-28T14:36:58Z</time>
      </trkpt>
      <trkpt lat="44.78029" lon="-0.30604">
        <ele>91</ele>
        <time>2013-07-28T14:37:07Z</time>
      </trkpt>
      <trkpt lat="44.78024" lon="-0.30607">
        <ele>91</ele>
        <time>2013-07-28T14:37:16Z</time>
      </trkpt>
      <trkpt lat="44.78017" lon="-0.30611">
        <ele>91</ele>
        <time>2013-07-28T14:37:24Z</time>
      </trkpt>
      <trkpt lat="44.78007" lon="-0.30614">
        <ele>91</ele>
        <time>2013-07-28T14:37:33Z</time>
      </trkpt>
      <trkpt lat="44.77995" lon="-0.30621">
        <ele>92</ele>
        <time>2013-07-28T14:37:40Z</time>
      </trkpt>
      <trkpt lat="44.77984" lon="-0.30629">
        <ele>92</ele>
        <time>2013-07-28T14:37:47Z</time>
      </trkpt>
      <trkpt lat="44.77982" lon="-0.30632">
        <ele>92</ele>
        <time>2013-07-28T14:37:49Z</time>
      </trkpt>
      <trkpt lat="44.77969" lon="-0.30647">
        <ele>92</ele>
        <time>2013-07-28T14:37:58Z</time>
      </trkpt>
      <trkpt lat="44.77968" lon="-0.30649">
        <ele>92</ele>
        <time>2013-07-28T14:37:59Z</time>
      </trkpt>
      <trkpt lat="44.77954" lon="-0.30661">
        <ele>92</ele>
        <time>2013-07-28T14:38:08Z</time>
      </trkpt>
      <trkpt lat="44.77947" lon="-0.30664">
        <ele>92</ele>
        <time>2013-07-28T14:38:17Z</time>
      </trkpt>
      <trkpt lat="44.77934" lon="-0.30676">
        <ele>92</ele>
        <time>2013-07-28T14:38:26Z</time>
      </trkpt>
      <trkpt lat="44.7793" lon="-0.30679">
        <ele>92</ele>
        <time>2013-07-28T14:38:29Z</time>
      </trkpt>
      <trkpt lat="44.77921" lon="-0.30685">
        <ele>92</ele>
        <time>2013-07-28T14:38:34Z</time>
      </trkpt>
      <trkpt lat="44.77916" lon="-0.30696">
        <ele>91</ele>
        <time>2013-07-28T14:38:42Z</time>
      </trkpt>
      <trkpt lat="44.77903" lon="-0.3071">
        <ele>91</ele>
        <time>2013-07-28T14:38:53Z</time>
      </trkpt>
      <trkpt lat="44.77899" lon="-0.30715">
        <ele>90</ele>
        <time>2013-07-28T14:38:55Z</time>
      </trkpt>
      <trkpt lat="44.77886" lon="-0.30724">
        <ele>90</ele>
        <time>2013-07-28T14:39:04Z</time>
      </trkpt>
      <trkpt lat="44.77877" lon="-0.30726">
        <ele>89</ele>
        <time>2013-07-28T14:39:13Z</time>
      </trkpt>
      <trkpt lat="44.77868" lon="-0.30735">
        <ele>88</ele>
        <time>2013-07-28T14:39:22Z</time>
      </trkpt>
      <trkpt lat="44.77856" lon="-0.30743">
        <ele>87</ele>
        <time>2013-07-28T14:39:29Z</time>
      </trkpt>
      <trkpt lat="44.77843" lon="-0.30745">
        <ele>86</ele>
        <time>2013-07-28T14:39:36Z</time>
      </trkpt>
      <trkpt lat="44.77838" lon="-0.30742">
        <ele>86</ele>
        <time>2013-07-28T14:39:45Z</time>
      </trkpt>
      <trkpt lat="44.77832" lon="-0.30739">
        <ele>86</ele>
        <time>2013-07-28T14:39:55Z</time>
      </trkpt>
      <trkpt lat="44.7783" lon="-0.3075">
        <ele>85</ele>
        <time>2013-07-28T14:40:03Z</time>
      </trkpt>
      <trkpt lat="44.77828" lon="-0.30754">
        <ele>85</ele>
        <time>2013-07-28T14:40:11Z</time>
      </trkpt>
      <trkpt lat="44.77827" lon="-0.30754">
        <ele>84</ele>
        <time>2013-07-28T14:40:21Z</time>
      </trkpt>
      <trkpt lat="44.77826" lon="-0.30753">
        <ele>85</ele>
        <time>2013-07-28T14:40:32Z</time>
      </trkpt>
      <trkpt lat="44.77825" lon="-0.30753">
        <ele>84</ele>
        <time>2013-07-28T14:40:44Z</time>
      </trkpt>
      <trkpt lat="44.77825" lon="-0.30753">
        <ele>85</ele>
        <time>2013-07-28T14:41:00Z</time>
      </trkpt>
      <trkpt lat="44.77825" lon="-0.30752">
        <ele>85</ele>
        <time>2013-07-28T14:41:18Z</time>
      </trkpt>
      <trkpt lat="44.77825" lon="-0.30752">
        <ele>85</ele>
        <time>2013-07-28T14:41:31Z</time>
      </trkpt>
      <trkpt lat="44.77815" lon="-0.30753">
        <ele>84</ele>
        <time>2013-07-28T14:41:37Z</time>
      </trkpt>
      <trkpt lat="44.7779" lon="-0.30758">
        <ele>83</ele>
        <time>2013-07-28T14:41:45Z</time>
      </trkpt>
      <trkpt lat="44.77757" lon="-0.30758">
        <ele>82</ele>
        <time>2013-07-28T14:41:52Z</time>
      </trkpt>
      <trkpt lat="44.77735" lon="-0.30764">
        <ele>82</ele>
        <time>2013-07-28T14:41:58Z</time>
      </trkpt>
      <trkpt lat="44.7773" lon="-0.30765">
        <ele>82</ele>
        <time>2013-07-28T14:42:01Z</time>
      </trkpt>
      <trkpt lat="44.77729" lon="-0.30764">
        <ele>82</ele>
        <time>2013-07-28T14:42:02Z</time>
      </trkpt>
      <trkpt lat="44.77727" lon="-0.30761">
        <ele>81</ele>
        <time>2013-07-28T14:42:03Z</time>
      </trkpt>
      <trkpt lat="44.77726" lon="-0.30757">
        <ele>81</ele>
        <time>2013-07-28T14:42:04Z</time>
      </trkpt>
      <trkpt lat="44.77724" lon="-0.30753">
        <ele>81</ele>
        <time>2013-07-28T14:42:05Z</time>
      </trkpt>
      <trkpt lat="44.77722" lon="-0.30748">
        <ele>81</ele>
        <time>2013-07-28T14:42:06Z</time>
      </trkpt>
      <trkpt lat="44.77705" lon="-0.30715">
        <ele>80</ele>
        <time>2013-07-28T14:42:13Z</time>
      </trkpt>
      <trkpt lat="44.77669" lon="-0.30648">
        <ele>79</ele>
        <time>2013-07-28T14:42:26Z</time>
      </trkpt>
      <trkpt lat="44.77655" lon="-0.30623">
        <ele>78</ele>
        <time>2013-07-28T14:42:31Z</time>
      </trkpt>
      <trkpt lat="44.77652" lon="-0.30617">
        <ele>78</ele>
        <time>2013-07-28T14:42:32Z</time>
      </trkpt>
      <trkpt lat="44.77649" lon="-0.30612">
        <ele>78</ele>
        <time>2013-07-28T14:42:33Z</time>
      </trkpt>
      <trkpt lat="44.77619" lon="-0.30567">
        <ele>78</ele>
        <time>2013-07-28T14:42:40Z</time>
      </trkpt>
      <trkpt lat="44.77578" lon="-0.30503">
        <ele>79</ele>
        <time>2013-07-28T14:42:49Z</time>
      </trkpt>
      <trkpt lat="44.77544" lon="-0.30452">
        <ele>79</ele>
        <time>2013-07-28T14:42:57Z</time>
      </trkpt>
      <trkpt lat="44.77497" lon="-0.30378">
        <ele>79</ele>
        <time>2013-07-28T14:43:09Z</time>
      </trkpt>
      <trkpt lat="44.77447" lon="-0.30301">
        <ele>81</ele>
        <time>2013-07-28T14:43:23Z</time>
      </trkpt>
      <trkpt lat="44.77425" lon="-0.30266">
        <ele>82</ele>
        <time>2013-07-28T14:43:31Z</time>
      </trkpt>
      <trkpt lat="44.77404" lon="-0.30233">
        <ele>83</ele>
        <time>2013-07-28T14:43:39Z</time>
      </trkpt>
      <trkpt lat="44.77397" lon="-0.30225">
        <ele>83</ele>
        <time>2013-07-28T14:43:44Z</time>
      </trkpt>
      <trkpt lat="44.77395" lon="-0.30223">
        <ele>83</ele>
        <time>2013-07-28T14:43:45Z</time>
      </trkpt>
      <trkpt lat="44.77393" lon="-0.3022">
        <ele>83</ele>
        <time>2013-07-28T14:43:46Z</time>
      </trkpt>
      <trkpt lat="44.77392" lon="-0.30217">
        <ele>83</ele>
        <time>2013-07-28T14:43:47Z</time>
      </trkpt>
      <trkpt lat="44.7739" lon="-0.30214">
        <ele>83</ele>
        <time>2013-07-28T14:43:48Z</time>
      </trkpt>
      <trkpt lat="44.77388" lon="-0.30211">
        <ele>83</ele>
        <time>2013-07-28T14:43:49Z</time>
      </trkpt>
      <trkpt lat="44.77387" lon="-0.30207">
        <ele>83</ele>
        <time>2013-07-28T14:43:50Z</time>
      </trkpt>
      <trkpt lat="44.77371" lon="-0.30184">
        <ele>83</ele>
        <time>2013-07-28T14:43:56Z</time>
      </trkpt>
      <trkpt lat="44.7735" lon="-0.30154">
        <ele>83</ele>
        <time>2013-07-28T14:44:03Z</time>
      </trkpt>
      <trkpt lat="44.77324" lon="-0.30117">
        <ele>84</ele>
        <time>2013-07-28T14:44:12Z</time>
      </trkpt>
      <trkpt lat="44.77297" lon="-0.30078">
        <ele>84</ele>
        <time>2013-07-28T14:44:21Z</time>
      </trkpt>
      <trkpt lat="44.77263" lon="-0.30023">
        <ele>84</ele>
        <time>2013-07-28T14:44:30Z</time>
      </trkpt>
      <trkpt lat="44.77243" lon="-0.29993">
        <ele>84</ele>
        <time>2013-07-28T14:44:37Z</time>
      </trkpt>
      <trkpt lat="44.77232" lon="-0.29975">
        <ele>84</ele>
        <time>2013-07-28T14:44:41Z</time>
      </trkpt>
      <trkpt lat="44.77201" lon="-0.29925">
        <ele>83</ele>
        <time>2013-07-28T14:44:50Z</time>
      </trkpt>
      <trkpt lat="44.77173" lon="-0.29877">
        <ele>84</ele>
        <time>2013-07-28T14:44:59Z</time>
      </trkpt>
      <trkpt lat="44.77171" lon="-0.29872">
        <ele>84</ele>
        <time>2013-07-28T14:45:00Z</time>
      </trkpt>
      <trkpt lat="44.77161" lon="-0.2985">
        <ele>84</ele>
        <time>2013-07-28T14:45:05Z</time>
      </trkpt>
      <trkpt lat="44.77137" lon="-0.29793">
        <ele>86</ele>
        <time>2013-07-28T14:45:15Z</time>
      </trkpt>
      <trkpt lat="44.77132" lon="-0.29781">
        <ele>86</ele>
        <time>2013-07-28T14:45:17Z</time>
      </trkpt>
      <trkpt lat="44.7713" lon="-0.29775">
        <ele>86</ele>
        <time>2013-07-28T14:45:18Z</time>
      </trkpt>
      <trkpt lat="44.77127" lon="-0.29769">
        <ele>86</ele>
        <time>2013-07-28T14:45:19Z</time>
      </trkpt>
      <trkpt lat="44.77111" lon="-0.2971">
        <ele>88</ele>
        <time>2013-07-28T14:45:28Z</time>
      </trkpt>
      <trkpt lat="44.77096" lon="-0.29634">
        <ele>95</ele>
        <time>2013-07-28T14:45:39Z</time>
      </trkpt>
      <trkpt lat="44.77082" lon="-0.29547">
        <ele>103</ele>
        <time>2013-07-28T14:45:52Z</time>
      </trkpt>
      <trkpt lat="44.77147" lon="-0.29227">
        <ele>89</ele>
        <time>2013-07-28T14:46:35Z</time>
      </trkpt>
      <trkpt lat="44.77158" lon="-0.29194">
        <ele>88</ele>
        <time>2013-07-28T14:46:40Z</time>
      </trkpt>
      <trkpt lat="44.77161" lon="-0.29189">
        <ele>88</ele>
        <time>2013-07-28T14:46:41Z</time>
      </trkpt>
      <trkpt lat="44.77189" lon="-0.29135">
        <ele>84</ele>
        <time>2013-07-28T14:46:50Z</time>
      </trkpt>
      <trkpt lat="44.77222" lon="-0.29075">
        <ele>81</ele>
        <time>2013-07-28T14:46:59Z</time>
      </trkpt>
      <trkpt lat="44.77256" lon="-0.29023">
        <ele>81</ele>
        <time>2013-07-28T14:47:08Z</time>
      </trkpt>
      <trkpt lat="44.77293" lon="-0.28963">
        <ele>80</ele>
        <time>2013-07-28T14:47:19Z</time>
      </trkpt>
      <trkpt lat="44.77305" lon="-0.28954">
        <ele>81</ele>
        <time>2013-07-28T14:47:24Z</time>
      </trkpt>
      <trkpt lat="44.77319" lon="-0.28939">
        <ele>81</ele>
        <time>2013-07-28T14:47:31Z</time>
      </trkpt>
      <trkpt lat="44.77333" lon="-0.28917">
        <ele>81</ele>
        <time>2013-07-28T14:47:38Z</time>
      </trkpt>
      <trkpt lat="44.77347" lon="-0.28901">
        <ele>81</ele>
        <time>2013-07-28T14:47:43Z</time>
      </trkpt>
      <trkpt lat="44.77379" lon="-0.28865">
        <ele>80</ele>
        <time>2013-07-28T14:47:51Z</time>
      </trkpt>
      <trkpt lat="44.77406" lon="-0.28835">
        <ele>79</ele>
        <time>2013-07-28T14:47:58Z</time>
      </trkpt>
      <trkpt lat="44.77409" lon="-0.28829">
        <ele>79</ele>
        <time>2013-07-28T14:47:59Z</time>
      </trkpt>
      <trkpt lat="44.77441" lon="-0.28779">
        <ele>77</ele>
        <time>2013-07-28T14:48:07Z</time>
      </trkpt>
      <trkpt lat="44.77485" lon="-0.28711">
        <ele>75</ele>
        <time>2013-07-28T14:48:16Z</time>
      </trkpt>
      <trkpt lat="44.77532" lon="-0.28641">
        <ele>72</ele>
        <time>2013-07-28T14:48:24Z</time>
      </trkpt>
      <trkpt lat="44.77588" lon="-0.28556">
        <ele>70</ele>
        <time>2013-07-28T14:48:33Z</time>
      </trkpt>
      <trkpt lat="44.77653" lon="-0.28466">
        <ele>70</ele>
        <time>2013-07-28T14:48:43Z</time>
      </trkpt>
      <trkpt lat="44.7771" lon="-0.28376">
        <ele>73</ele>
        <time>2013-07-28T14:48:53Z</time>
      </trkpt>
      <trkpt lat="44.77756" lon="-0.28287">
        <ele>75</ele>
        <time>2013-07-28T14:49:02Z</time>
      </trkpt>
      <trkpt lat="44.77794" lon="-0.28199">
        <ele>71</ele>
        <time>2013-07-28T14:49:10Z</time>
      </trkpt>
      <trkpt lat="44.7783" lon="-0.2809">
        <ele>70</ele>
        <time>2013-07-28T14:49:19Z</time>
      </trkpt>
      <trkpt lat="44.77863" lon="-0.27966">
        <ele>70</ele>
        <time>2013-07-28T14:49:29Z</time>
      </trkpt>
      <trkpt lat="44.77893" lon="-0.27856">
        <ele>70</ele>
        <time>2013-07-28T14:49:38Z</time>
      </trkpt>
      <trkpt lat="44.77924" lon="-0.27732">
        <ele>67</ele>
        <time>2013-07-28T14:49:48Z</time>
      </trkpt>
      <trkpt lat="44.77947" lon="-0.27647">
        <ele>65</ele>
        <time>2013-07-28T14:49:55Z</time>
      </trkpt>
      <trkpt lat="44.77974" lon="-0.27557">
        <ele>66</ele>
        <time>2013-07-28T14:50:03Z</time>
      </trkpt>
      <trkpt lat="44.78002" lon="-0.27463">
        <ele>63</ele>
        <time>2013-07-28T14:50:11Z</time>
      </trkpt>
      <trkpt lat="44.78037" lon="-0.27352">
        <ele>61</ele>
        <time>2013-07-28T14:50:20Z</time>
      </trkpt>
      <trkpt lat="44.78077" lon="-0.27239">
        <ele>57</ele>
        <time>2013-07-28T14:50:29Z</time>
      </trkpt>
      <trkpt lat="44.78127" lon="-0.27101">
        <ele>56</ele>
        <time>2013-07-28T14:50:39Z</time>
      </trkpt>
      <trkpt lat="44.7818" lon="-0.26956">
        <ele>55</ele>
        <time>2013-07-28T14:50:50Z</time>
      </trkpt>
      <trkpt lat="44.78214" lon="-0.26865">
        <ele>54</ele>
        <time>2013-07-28T14:50:58Z</time>
      </trkpt>
      <trkpt lat="44.78224" lon="-0.26845">
        <ele>53</ele>
        <time>2013-07-28T14:51:02Z</time>
      </trkpt>
      <trkpt lat="44.78229" lon="-0.26831">
        <ele>53</ele>
        <time>2013-07-28T14:51:08Z</time>
      </trkpt>
      <trkpt lat="44.78229" lon="-0.2683">
        <ele>53</ele>
        <time>2013-07-28T14:51:19Z</time>
      </trkpt>
      <trkpt lat="44.78228" lon="-0.26829">
        <ele>53</ele>
        <time>2013-07-28T14:51:27Z</time>
      </trkpt>
      <trkpt lat="44.78225" lon="-0.26826">
        <ele>53</ele>
        <time>2013-07-28T14:51:31Z</time>
      </trkpt>
      <trkpt lat="44.78224" lon="-0.26826">
        <ele>53</ele>
        <time>2013-07-28T14:51:32Z</time>
      </trkpt>
      <trkpt lat="44.78223" lon="-0.26826">
        <ele>53</ele>
        <time>2013-07-28T14:51:33Z</time>
      </trkpt>
      <trkpt lat="44.78222" lon="-0.26828">
        <ele>53</ele>
        <time>2013-07-28T14:51:34Z</time>
      </trkpt>
      <trkpt lat="44.78221" lon="-0.2683">
        <ele>53</ele>
        <time>2013-07-28T14:51:35Z</time>
      </trkpt>
      <trkpt lat="44.7822" lon="-0.26832">
        <ele>53</ele>
        <time>2013-07-28T14:51:36Z</time>
      </trkpt>
      <trkpt lat="44.78219" lon="-0.26833">
        <ele>53</ele>
        <time>2013-07-28T14:51:37Z</time>
      </trkpt>
      <trkpt lat="44.78218" lon="-0.26834">
        <ele>53</ele>
        <time>2013-07-28T14:51:38Z</time>
      </trkpt>
      <trkpt lat="44.78216" lon="-0.26834">
        <ele>53</ele>
        <time>2013-07-28T14:51:39Z</time>
      </trkpt>
      <trkpt lat="44.78215" lon="-0.26834">
        <ele>53</ele>
        <time>2013-07-28T14:51:40Z</time>
      </trkpt>
      <trkpt lat="44.78201" lon="-0.26843">
        <ele>53</ele>
        <time>2013-07-28T14:51:48Z</time>
      </trkpt>
      <trkpt lat="44.78176" lon="-0.26857">
        <ele>52</ele>
        <time>2013-07-28T14:52:00Z</time>
      </trkpt>
      <trkpt lat="44.78155" lon="-0.26861">
        <ele>52</ele>
        <time>2013-07-28T14:52:09Z</time>
      </trkpt>
      <trkpt lat="44.78129" lon="-0.26856">
        <ele>50</ele>
        <time>2013-07-28T14:52:18Z</time>
      </trkpt>
      <trkpt lat="44.78127" lon="-0.26852">
        <ele>50</ele>
        <time>2013-07-28T14:52:19Z</time>
      </trkpt>
      <trkpt lat="44.78126" lon="-0.26848">
        <ele>50</ele>
        <time>2013-07-28T14:52:20Z</time>
      </trkpt>
      <trkpt lat="44.78124" lon="-0.26845">
        <ele>50</ele>
        <time>2013-07-28T14:52:21Z</time>
      </trkpt>
      <trkpt lat="44.78123" lon="-0.26841">
        <ele>50</ele>
        <time>2013-07-28T14:52:22Z</time>
      </trkpt>
      <trkpt lat="44.78123" lon="-0.26838">
        <ele>50</ele>
        <time>2013-07-28T14:52:23Z</time>
      </trkpt>
      <trkpt lat="44.78122" lon="-0.26835">
        <ele>50</ele>
        <time>2013-07-28T14:52:24Z</time>
      </trkpt>
      <trkpt lat="44.78113" lon="-0.26812">
        <ele>50</ele>
        <time>2013-07-28T14:52:30Z</time>
      </trkpt>
      <trkpt lat="44.78099" lon="-0.26757">
        <ele>49</ele>
        <time>2013-07-28T14:52:40Z</time>
      </trkpt>
      <trkpt lat="44.78083" lon="-0.26703">
        <ele>48</ele>
        <time>2013-07-28T14:52:50Z</time>
      </trkpt>
      <trkpt lat="44.78079" lon="-0.26679">
        <ele>47</ele>
        <time>2013-07-28T14:52:54Z</time>
      </trkpt>
      <trkpt lat="44.78078" lon="-0.26673">
        <ele>47</ele>
        <time>2013-07-28T14:52:55Z</time>
      </trkpt>
      <trkpt lat="44.78077" lon="-0.26633">
        <ele>44</ele>
        <time>2013-07-28T14:53:02Z</time>
      </trkpt>
      <trkpt lat="44.78077" lon="-0.26627">
        <ele>44</ele>
        <time>2013-07-28T14:53:03Z</time>
      </trkpt>
      <trkpt lat="44.78078" lon="-0.26622">
        <ele>44</ele>
        <time>2013-07-28T14:53:04Z</time>
      </trkpt>
      <trkpt lat="44.7808" lon="-0.26618">
        <ele>43</ele>
        <time>2013-07-28T14:53:05Z</time>
      </trkpt>
      <trkpt lat="44.78082" lon="-0.26616">
        <ele>43</ele>
        <time>2013-07-28T14:53:06Z</time>
      </trkpt>
      <trkpt lat="44.78084" lon="-0.26614">
        <ele>43</ele>
        <time>2013-07-28T14:53:07Z</time>
      </trkpt>
      <trkpt lat="44.78087" lon="-0.26613">
        <ele>44</ele>
        <time>2013-07-28T14:53:08Z</time>
      </trkpt>
      <trkpt lat="44.78089" lon="-0.26612">
        <ele>44</ele>
        <time>2013-07-28T14:53:09Z</time>
      </trkpt>
      <trkpt lat="44.78093" lon="-0.26611">
        <ele>44</ele>
        <time>2013-07-28T14:53:10Z</time>
      </trkpt>
      <trkpt lat="44.78096" lon="-0.26611">
        <ele>44</ele>
        <time>2013-07-28T14:53:11Z</time>
      </trkpt>
      <trkpt lat="44.78123" lon="-0.26589">
        <ele>43</ele>
        <time>2013-07-28T14:53:19Z</time>
      </trkpt>
      <trkpt lat="44.78156" lon="-0.26572">
        <ele>43</ele>
        <time>2013-07-28T14:53:26Z</time>
      </trkpt>
      <trkpt lat="44.78179" lon="-0.26558">
        <ele>44</ele>
        <time>2013-07-28T14:53:33Z</time>
      </trkpt>
      <trkpt lat="44.78182" lon="-0.26545">
        <ele>44</ele>
        <time>2013-07-28T14:53:36Z</time>
      </trkpt>
      <trkpt lat="44.78181" lon="-0.26531">
        <ele>44</ele>
        <time>2013-07-28T14:53:42Z</time>
      </trkpt>
      <trkpt lat="44.78181" lon="-0.2653">
        <ele>44</ele>
        <time>2013-07-28T14:53:57Z</time>
      </trkpt>
      <trkpt lat="44.78182" lon="-0.2653">
        <ele>44</ele>
        <time>2013-07-28T14:54:17Z</time>
      </trkpt>
      <trkpt lat="44.78182" lon="-0.2653">
        <ele>44</ele>
        <time>2013-07-28T14:54:29Z</time>
      </trkpt>
      <trkpt lat="44.78182" lon="-0.26527">
        <ele>44</ele>
        <time>2013-07-28T14:54:35Z</time>
      </trkpt>
      <trkpt lat="44.7818" lon="-0.26498">
        <ele>43</ele>
        <time>2013-07-28T14:54:43Z</time>
      </trkpt>
      <trkpt lat="44.7818" lon="-0.26452">
        <ele>42</ele>
        <time>2013-07-28T14:54:53Z</time>
      </trkpt>
      <trkpt lat="44.78177" lon="-0.26404">
        <ele>41</ele>
        <time>2013-07-28T14:55:01Z</time>
      </trkpt>
      <trkpt lat="44.78169" lon="-0.26381">
        <ele>40</ele>
        <time>2013-07-28T14:55:05Z</time>
      </trkpt>
      <trkpt lat="44.78128" lon="-0.26375">
        <ele>41</ele>
        <time>2013-07-28T14:55:12Z</time>
      </trkpt>
      <trkpt lat="44.78125" lon="-0.26373">
        <ele>41</ele>
        <time>2013-07-28T14:55:13Z</time>
      </trkpt>
      <trkpt lat="44.78102" lon="-0.26329">
        <ele>44</ele>
        <time>2013-07-28T14:55:20Z</time>
      </trkpt>
      <trkpt lat="44.78081" lon="-0.26309">
        <ele>46</ele>
        <time>2013-07-28T14:55:26Z</time>
      </trkpt>
      <trkpt lat="44.78056" lon="-0.26287">
        <ele>49</ele>
        <time>2013-07-28T14:55:35Z</time>
      </trkpt>
      <trkpt lat="44.78042" lon="-0.26265">
        <ele>50</ele>
        <time>2013-07-28T14:55:42Z</time>
      </trkpt>
      <trkpt lat="44.78031" lon="-0.26235">
        <ele>52</ele>
        <time>2013-07-28T14:55:48Z</time>
      </trkpt>
      <trkpt lat="44.7802" lon="-0.26175">
        <ele>53</ele>
        <time>2013-07-28T14:55:58Z</time>
      </trkpt>
      <trkpt lat="44.78013" lon="-0.26143">
        <ele>53</ele>
        <time>2013-07-28T14:56:04Z</time>
      </trkpt>
      <trkpt lat="44.78011" lon="-0.26138">
        <ele>53</ele>
        <time>2013-07-28T14:56:05Z</time>
      </trkpt>
      <trkpt lat="44.78009" lon="-0.26134">
        <ele>53</ele>
        <time>2013-07-28T14:56:06Z</time>
      </trkpt>
      <trkpt lat="44.78006" lon="-0.2613">
        <ele>53</ele>
        <time>2013-07-28T14:56:07Z</time>
      </trkpt>
      <trkpt lat="44.78003" lon="-0.26126">
        <ele>54</ele>
        <time>2013-07-28T14:56:08Z</time>
      </trkpt>
      <trkpt lat="44.78" lon="-0.26122">
        <ele>54</ele>
        <time>2013-07-28T14:56:09Z</time>
      </trkpt>
      <trkpt lat="44.77996" lon="-0.26119">
        <ele>54</ele>
        <time>2013-07-28T14:56:10Z</time>
      </trkpt>
      <trkpt lat="44.77992" lon="-0.26116">
        <ele>54</ele>
        <time>2013-07-28T14:56:11Z</time>
      </trkpt>
      <trkpt lat="44.77988" lon="-0.26114">
        <ele>54</ele>
        <time>2013-07-28T14:56:12Z</time>
      </trkpt>
      <trkpt lat="44.77984" lon="-0.26111">
        <ele>54</ele>
        <time>2013-07-28T14:56:13Z</time>
      </trkpt>
      <trkpt lat="44.77943" lon="-0.2609">
        <ele>55</ele>
        <time>2013-07-28T14:56:23Z</time>
      </trkpt>
      <trkpt lat="44.7791" lon="-0.26065">
        <ele>57</ele>
        <time>2013-07-28T14:56:32Z</time>
      </trkpt>
      <trkpt lat="44.77875" lon="-0.2604">
        <ele>58</ele>
        <time>2013-07-28T14:56:41Z</time>
      </trkpt>
      <trkpt lat="44.77845" lon="-0.26027">
        <ele>59</ele>
        <time>2013-07-28T14:56:48Z</time>
      </trkpt>
      <trkpt lat="44.77818" lon="-0.26008">
        <ele>59</ele>
        <time>2013-07-28T14:56:55Z</time>
      </trkpt>
      <trkpt lat="44.77785" lon="-0.2598">
        <ele>59</ele>
        <time>2013-07-28T14:57:03Z</time>
      </trkpt>
      <trkpt lat="44.77743" lon="-0.25943">
        <ele>59</ele>
        <time>2013-07-28T14:57:13Z</time>
      </trkpt>
      <trkpt lat="44.77719" lon="-0.25922">
        <ele>59</ele>
        <time>2013-07-28T14:57:19Z</time>
      </trkpt>
      <trkpt lat="44.77715" lon="-0.25918">
        <ele>60</ele>
        <time>2013-07-28T14:57:20Z</time>
      </trkpt>
      <trkpt lat="44.77712" lon="-0.25913">
        <ele>60</ele>
        <time>2013-07-28T14:57:21Z</time>
      </trkpt>
      <trkpt lat="44.7771" lon="-0.25908">
        <ele>60</ele>
        <time>2013-07-28T14:57:22Z</time>
      </trkpt>
      <trkpt lat="44.77709" lon="-0.25901">
        <ele>60</ele>
        <time>2013-07-28T14:57:23Z</time>
      </trkpt>
      <trkpt lat="44.77708" lon="-0.25895">
        <ele>60</ele>
        <time>2013-07-28T14:57:24Z</time>
      </trkpt>
      <trkpt lat="44.77707" lon="-0.25889">
        <ele>60</ele>
        <time>2013-07-28T14:57:25Z</time>
      </trkpt>
      <trkpt lat="44.77706" lon="-0.2586">
        <ele>61</ele>
        <time>2013-07-28T14:57:32Z</time>
      </trkpt>
      <trkpt lat="44.77704" lon="-0.25857">
        <ele>61</ele>
        <time>2013-07-28T14:57:38Z</time>
      </trkpt>
      <trkpt lat="44.77704" lon="-0.25857">
        <ele>61</ele>
        <time>2013-07-28T14:57:47Z</time>
      </trkpt>
      <trkpt lat="44.77703" lon="-0.25857">
        <ele>61</ele>
        <time>2013-07-28T14:58:02Z</time>
      </trkpt>
      <trkpt lat="44.77704" lon="-0.25857">
        <ele>61</ele>
        <time>2013-07-28T14:58:20Z</time>
      </trkpt>
      <trkpt lat="44.77704" lon="-0.25856">
        <ele>61</ele>
        <time>2013-07-28T14:58:37Z</time>
      </trkpt>
      <trkpt lat="44.77702" lon="-0.25852">
        <ele>61</ele>
        <time>2013-07-28T14:58:46Z</time>
      </trkpt>
      <trkpt lat="44.77703" lon="-0.25851">
        <ele>61</ele>
        <time>2013-07-28T14:58:47Z</time>
      </trkpt>
      <trkpt lat="44.77704" lon="-0.2585">
        <ele>61</ele>
        <time>2013-07-28T14:58:48Z</time>
      </trkpt>
      <trkpt lat="44.77708" lon="-0.25853">
        <ele>61</ele>
        <time>2013-07-28T14:58:51Z</time>
      </trkpt>
      <trkpt lat="44.77708" lon="-0.25855">
        <ele>61</ele>
        <time>2013-07-28T14:58:52Z</time>
      </trkpt>
      <trkpt lat="44.77708" lon="-0.25857">
        <ele>61</ele>
        <time>2013-07-28T14:58:53Z</time>
      </trkpt>
      <trkpt lat="44.77706" lon="-0.25856">
        <ele>61</ele>
        <time>2013-07-28T14:58:59Z</time>
      </trkpt>
      <trkpt lat="44.77706" lon="-0.25856">
        <ele>61</ele>
        <time>2013-07-28T14:59:14Z</time>
      </trkpt>
      <trkpt lat="44.77706" lon="-0.25854">
        <ele>61</ele>
        <time>2013-07-28T14:59:26Z</time>
      </trkpt>
      <trkpt lat="44.77705" lon="-0.25853">
        <ele>61</ele>
        <time>2013-07-28T14:59:27Z</time>
      </trkpt>
      <trkpt lat="44.77703" lon="-0.25852">
        <ele>61</ele>
        <time>2013-07-28T14:59:28Z</time>
      </trkpt>
      <trkpt lat="44.77702" lon="-0.25852">
        <ele>61</ele>
        <time>2013-07-28T14:59:29Z</time>
      </trkpt>
      <trkpt lat="44.777" lon="-0.25853">
        <ele>61</ele>
        <time>2013-07-28T14:59:30Z</time>
      </trkpt>
      <trkpt lat="44.77698" lon="-0.25854">
        <ele>61</ele>
        <time>2013-07-28T14:59:31Z</time>
      </trkpt>
      <trkpt lat="44.77695" lon="-0.25854">
        <ele>61</ele>
        <time>2013-07-28T14:59:32Z</time>
      </trkpt>
      <trkpt lat="44.77679" lon="-0.25855">
        <ele>61</ele>
        <time>2013-07-28T14:59:37Z</time>
      </trkpt>
      <trkpt lat="44.77657" lon="-0.25855">
        <ele>61</ele>
        <time>2013-07-28T14:59:42Z</time>
      </trkpt>
      <trkpt lat="44.77653" lon="-0.25855">
        <ele>61</ele>
        <time>2013-07-28T14:59:43Z</time>
      </trkpt>
      <trkpt lat="44.77648" lon="-0.25855">
        <ele>61</ele>
        <time>2013-07-28T14:59:44Z</time>
      </trkpt>
      <trkpt lat="44.776" lon="-0.25857">
        <ele>60</ele>
        <time>2013-07-28T14:59:54Z</time>
      </trkpt>
      <trkpt lat="44.7757" lon="-0.25859">
        <ele>60</ele>
        <time>2013-07-28T15:00:01Z</time>
      </trkpt>
      <trkpt lat="44.77555" lon="-0.25859">
        <ele>60</ele>
        <time>2013-07-28T15:00:06Z</time>
      </trkpt>
      <trkpt lat="44.77528" lon="-0.25857">
        <ele>60</ele>
        <time>2013-07-28T15:00:13Z</time>
      </trkpt>
      <trkpt lat="44.77497" lon="-0.25852">
        <ele>60</ele>
        <time>2013-07-28T15:00:21Z</time>
      </trkpt>
      <trkpt lat="44.7749" lon="-0.25849">
        <ele>60</ele>
        <time>2013-07-28T15:00:25Z</time>
      </trkpt>
      <trkpt lat="44.7749" lon="-0.25847">
        <ele>60</ele>
        <time>2013-07-28T15:00:26Z</time>
      </trkpt>
      <trkpt lat="44.77489" lon="-0.25842">
        <ele>60</ele>
        <time>2013-07-28T15:00:28Z</time>
      </trkpt>
      <trkpt lat="44.7749" lon="-0.25837">
        <ele>60</ele>
        <time>2013-07-28T15:00:37Z</time>
      </trkpt>
      <trkpt lat="44.77491" lon="-0.25837">
        <ele>60</ele>
        <time>2013-07-28T15:00:43Z</time>
      </trkpt>
      <trkpt lat="44.77491" lon="-0.25835">
        <ele>60</ele>
        <time>2013-07-28T15:00:58Z</time>
      </trkpt>
      <trkpt lat="44.77491" lon="-0.25832">
        <ele>60</ele>
        <time>2013-07-28T15:01:01Z</time>
      </trkpt>
      <trkpt lat="44.77489" lon="-0.25815">
        <ele>61</ele>
        <time>2013-07-28T15:01:08Z</time>
      </trkpt>
      <trkpt lat="44.77488" lon="-0.25813">
        <ele>61</ele>
        <time>2013-07-28T15:01:09Z</time>
      </trkpt>
      <trkpt lat="44.77486" lon="-0.25805">
        <ele>61</ele>
        <time>2013-07-28T15:01:17Z</time>
      </trkpt>
      <trkpt lat="44.77486" lon="-0.25804">
        <ele>61</ele>
        <time>2013-07-28T15:01:34Z</time>
      </trkpt>
      <trkpt lat="44.77486" lon="-0.25804">
        <ele>61</ele>
        <time>2013-07-28T15:01:51Z</time>
      </trkpt>
      <trkpt lat="44.77486" lon="-0.25804">
        <ele>61</ele>
        <time>2013-07-28T15:02:12Z</time>
      </trkpt>
      <trkpt lat="44.77486" lon="-0.25804">
        <ele>61</ele>
        <time>2013-07-28T15:02:26Z</time>
      </trkpt>
      <trkpt lat="44.77486" lon="-0.25804">
        <ele>61</ele>
        <time>2013-07-28T15:02:41Z</time>
      </trkpt>
      <trkpt lat="44.77486" lon="-0.25804">
        <ele>61</ele>
        <time>2013-07-28T15:02:56Z</time>
      </trkpt>
      <trkpt lat="44.77485" lon="-0.25804">
        <ele>61</ele>
        <time>2013-07-28T15:03:15Z</time>
      </trkpt>
      <trkpt lat="44.77485" lon="-0.25804">
        <ele>61</ele>
        <time>2013-07-28T15:03:31Z</time>
      </trkpt>
      <trkpt lat="44.77485" lon="-0.25803">
        <ele>61</ele>
        <time>2013-07-28T15:03:47Z</time>
      </trkpt>
      <trkpt lat="44.77485" lon="-0.25803">
        <ele>61</ele>
        <time>2013-07-28T15:04:08Z</time>
      </trkpt>
      <trkpt lat="44.77485" lon="-0.25803">
        <ele>61</ele>
        <time>2013-07-28T15:04:25Z</time>
      </trkpt>
      <trkpt lat="44.77485" lon="-0.25803">
        <ele>61</ele>
        <time>2013-07-28T15:04:40Z</time>
      </trkpt>
      <trkpt lat="44.77485" lon="-0.25803">
        <ele>61</ele>
        <time>2013-07-28T15:04:50Z</time>
      </trkpt>
      <trkpt lat="44.77485" lon="-0.25803">
        <ele>61</ele>
        <time>2013-07-28T15:04:59Z</time>
      </trkpt>
      <trkpt lat="44.77485" lon="-0.25803">
        <ele>61</ele>
        <time>2013-07-28T15:05:14Z</time>
      </trkpt>
      <trkpt lat="44.77485" lon="-0.25803">
        <ele>61</ele>
        <time>2013-07-28T15:05:18Z</time>
      </trkpt>
      <trkpt lat="44.77487" lon="-0.25781">
        <ele>61</ele>
        <time>2013-07-28T15:05:28Z</time>
      </trkpt>
      <trkpt lat="44.77488" lon="-0.25776">
        <ele>61</ele>
        <time>2013-07-28T15:05:31Z</time>
      </trkpt>
      <trkpt lat="44.77489" lon="-0.25769">
        <ele>62</ele>
        <time>2013-07-28T15:05:35Z</time>
      </trkpt>
      <trkpt lat="44.7749" lon="-0.25741">
        <ele>62</ele>
        <time>2013-07-28T15:05:44Z</time>
      </trkpt>
      <trkpt lat="44.7749" lon="-0.25712">
        <ele>63</ele>
        <time>2013-07-28T15:05:53Z</time>
      </trkpt>
      <trkpt lat="44.77486" lon="-0.25689">
        <ele>64</ele>
        <time>2013-07-28T15:05:59Z</time>
      </trkpt>
      <trkpt lat="44.77485" lon="-0.25665">
        <ele>64</ele>
        <time>2013-07-28T15:06:05Z</time>
      </trkpt>
      <trkpt lat="44.77478" lon="-0.25636">
        <ele>65</ele>
        <time>2013-07-28T15:06:12Z</time>
      </trkpt>
      <trkpt lat="44.77473" lon="-0.25619">
        <ele>65</ele>
        <time>2013-07-28T15:06:20Z</time>
      </trkpt>
      <trkpt lat="44.77471" lon="-0.25617">
        <ele>65</ele>
        <time>2013-07-28T15:06:27Z</time>
      </trkpt>
      <trkpt lat="44.77471" lon="-0.25611">
        <ele>65</ele>
        <time>2013-07-28T15:06:34Z</time>
      </trkpt>
      <trkpt lat="44.7747" lon="-0.25607">
        <ele>65</ele>
        <time>2013-07-28T15:06:39Z</time>
      </trkpt>
      <trkpt lat="44.77464" lon="-0.25591">
        <ele>66</ele>
        <time>2013-07-28T15:06:47Z</time>
      </trkpt>
      <trkpt lat="44.77463" lon="-0.25587">
        <ele>66</ele>
        <time>2013-07-28T15:06:49Z</time>
      </trkpt>
      <trkpt lat="44.77468" lon="-0.25565">
        <ele>66</ele>
        <time>2013-07-28T15:06:57Z</time>
      </trkpt>
      <trkpt lat="44.77469" lon="-0.25538">
        <ele>66</ele>
        <time>2013-07-28T15:07:05Z</time>
      </trkpt>
      <trkpt lat="44.77457" lon="-0.2551">
        <ele>66</ele>
        <time>2013-07-28T15:07:14Z</time>
      </trkpt>
      <trkpt lat="44.77452" lon="-0.25504">
        <ele>66</ele>
        <time>2013-07-28T15:07:17Z</time>
      </trkpt>
      <trkpt lat="44.77432" lon="-0.25505">
        <ele>66</ele>
        <time>2013-07-28T15:07:24Z</time>
      </trkpt>
      <trkpt lat="44.77417" lon="-0.25499">
        <ele>66</ele>
        <time>2013-07-28T15:07:30Z</time>
      </trkpt>
      <trkpt lat="44.77402" lon="-0.2547">
        <ele>66</ele>
        <time>2013-07-28T15:07:38Z</time>
      </trkpt>
      <trkpt lat="44.77378" lon="-0.2543">
        <ele>66</ele>
        <time>2013-07-28T15:07:49Z</time>
      </trkpt>
      <trkpt lat="44.77358" lon="-0.25402">
        <ele>66</ele>
        <time>2013-07-28T15:07:57Z</time>
      </trkpt>
      <trkpt lat="44.77341" lon="-0.2537">
        <ele>66</ele>
        <time>2013-07-28T15:08:06Z</time>
      </trkpt>
      <trkpt lat="44.7733" lon="-0.25378">
        <ele>66</ele>
        <time>2013-07-28T15:08:12Z</time>
      </trkpt>
      <trkpt lat="44.77314" lon="-0.25394">
        <ele>67</ele>
        <time>2013-07-28T15:08:19Z</time>
      </trkpt>
      <trkpt lat="44.7731" lon="-0.25403">
        <ele>67</ele>
        <time>2013-07-28T15:08:22Z</time>
      </trkpt>
      <trkpt lat="44.77315" lon="-0.25415">
        <ele>67</ele>
        <time>2013-07-28T15:08:26Z</time>
      </trkpt>
      <trkpt lat="44.77312" lon="-0.2543">
        <ele>67</ele>
        <time>2013-07-28T15:08:31Z</time>
      </trkpt>
      <trkpt lat="44.77291" lon="-0.25453">
        <ele>67</ele>
        <time>2013-07-28T15:08:41Z</time>
      </trkpt>
      <trkpt lat="44.77279" lon="-0.25445">
        <ele>67</ele>
        <time>2013-07-28T15:08:47Z</time>
      </trkpt>
      <trkpt lat="44.77274" lon="-0.25437">
        <ele>67</ele>
        <time>2013-07-28T15:08:50Z</time>
      </trkpt>
      <trkpt lat="44.77261" lon="-0.25447">
        <ele>67</ele>
        <time>2013-07-28T15:08:55Z</time>
      </trkpt>
      <trkpt lat="44.77239" lon="-0.25462">
        <ele>67</ele>
        <time>2013-07-28T15:09:03Z</time>
      </trkpt>
      <trkpt lat="44.77222" lon="-0.25476">
        <ele>67</ele>
        <time>2013-07-28T15:09:09Z</time>
      </trkpt>
      <trkpt lat="44.77214" lon="-0.25481">
        <ele>67</ele>
        <time>2013-07-28T15:09:12Z</time>
      </trkpt>
      <trkpt lat="44.77204" lon="-0.25473">
        <ele>68</ele>
        <time>2013-07-28T15:09:17Z</time>
      </trkpt>
      <trkpt lat="44.77193" lon="-0.25445">
        <ele>68</ele>
        <time>2013-07-28T15:09:25Z</time>
      </trkpt>
      <trkpt lat="44.77179" lon="-0.25407">
        <ele>68</ele>
        <time>2013-07-28T15:09:35Z</time>
      </trkpt>
      <trkpt lat="44.77163" lon="-0.25371">
        <ele>69</ele>
        <time>2013-07-28T15:09:45Z</time>
      </trkpt>
      <trkpt lat="44.7715" lon="-0.25339">
        <ele>69</ele>
        <time>2013-07-28T15:09:54Z</time>
      </trkpt>
      <trkpt lat="44.77146" lon="-0.25334">
        <ele>69</ele>
        <time>2013-07-28T15:09:56Z</time>
      </trkpt>
      <trkpt lat="44.77134" lon="-0.25337">
        <ele>69</ele>
        <time>2013-07-28T15:10:00Z</time>
      </trkpt>
      <trkpt lat="44.77108" lon="-0.25367">
        <ele>70</ele>
        <time>2013-07-28T15:10:09Z</time>
      </trkpt>
      <trkpt lat="44.77086" lon="-0.25381">
        <ele>70</ele>
        <time>2013-07-28T15:10:16Z</time>
      </trkpt>
      <trkpt lat="44.77062" lon="-0.2539">
        <ele>71</ele>
        <time>2013-07-28T15:10:23Z</time>
      </trkpt>
      <trkpt lat="44.77043" lon="-0.25402">
        <ele>71</ele>
        <time>2013-07-28T15:10:29Z</time>
      </trkpt>
      <trkpt lat="44.77017" lon="-0.25409">
        <ele>72</ele>
        <time>2013-07-28T15:10:37Z</time>
      </trkpt>
      <trkpt lat="44.77" lon="-0.25418">
        <ele>72</ele>
        <time>2013-07-28T15:10:43Z</time>
      </trkpt>
      <trkpt lat="44.76982" lon="-0.25432">
        <ele>73</ele>
        <time>2013-07-28T15:10:50Z</time>
      </trkpt>
      <trkpt lat="44.76975" lon="-0.25432">
        <ele>74</ele>
        <time>2013-07-28T15:10:55Z</time>
      </trkpt>
      <trkpt lat="44.76975" lon="-0.25432">
        <ele>74</ele>
        <time>2013-07-28T15:11:04Z</time>
      </trkpt>
      <trkpt lat="44.76975" lon="-0.25432">
        <ele>74</ele>
        <time>2013-07-28T15:11:19Z</time>
      </trkpt>
      <trkpt lat="44.76976" lon="-0.25432">
        <ele>73</ele>
        <time>2013-07-28T15:11:30Z</time>
      </trkpt>
      <trkpt lat="44.76976" lon="-0.25432">
        <ele>73</ele>
        <time>2013-07-28T15:11:46Z</time>
      </trkpt>
      <trkpt lat="44.76976" lon="-0.25432">
        <ele>73</ele>
        <time>2013-07-28T15:11:49Z</time>
      </trkpt>
      <trkpt lat="44.76962" lon="-0.25444">
        <ele>74</ele>
        <time>2013-07-28T15:11:55Z</time>
      </trkpt>
      <trkpt lat="44.76946" lon="-0.25455">
        <ele>74</ele>
        <time>2013-07-28T15:12:01Z</time>
      </trkpt>
      <trkpt lat="44.76932" lon="-0.25463">
        <ele>75</ele>
        <time>2013-07-28T15:12:07Z</time>
      </trkpt>
      <trkpt lat="44.76921" lon="-0.25473">
        <ele>75</ele>
        <time>2013-07-28T15:12:12Z</time>
      </trkpt>
      <trkpt lat="44.76913" lon="-0.25492">
        <ele>75</ele>
        <time>2013-07-28T15:12:17Z</time>
      </trkpt>
      <trkpt lat="44.76915" lon="-0.25507">
        <ele>74</ele>
        <time>2013-07-28T15:12:23Z</time>
      </trkpt>
      <trkpt lat="44.76915" lon="-0.25513">
        <ele>74</ele>
        <time>2013-07-28T15:12:30Z</time>
      </trkpt>
      <trkpt lat="44.76916" lon="-0.25523">
        <ele>74</ele>
        <time>2013-07-28T15:12:37Z</time>
      </trkpt>
      <trkpt lat="44.76918" lon="-0.25551">
        <ele>74</ele>
        <time>2013-07-28T15:12:47Z</time>
      </trkpt>
      <trkpt lat="44.76921" lon="-0.25582">
        <ele>73</ele>
        <time>2013-07-28T15:12:56Z</time>
      </trkpt>
      <trkpt lat="44.76924" lon="-0.25607">
        <ele>73</ele>
        <time>2013-07-28T15:13:02Z</time>
      </trkpt>
      <trkpt lat="44.76924" lon="-0.25638">
        <ele>72</ele>
        <time>2013-07-28T15:13:07Z</time>
      </trkpt>
      <trkpt lat="44.7692" lon="-0.25673">
        <ele>72</ele>
        <time>2013-07-28T15:13:12Z</time>
      </trkpt>
      <trkpt lat="44.76918" lon="-0.25679">
        <ele>72</ele>
        <time>2013-07-28T15:13:13Z</time>
      </trkpt>
      <trkpt lat="44.76914" lon="-0.25699">
        <ele>71</ele>
        <time>2013-07-28T15:13:16Z</time>
      </trkpt>
      <trkpt lat="44.76908" lon="-0.2574">
        <ele>70</ele>
        <time>2013-07-28T15:13:23Z</time>
      </trkpt>
      <trkpt lat="44.76905" lon="-0.25749">
        <ele>70</ele>
        <time>2013-07-28T15:13:26Z</time>
      </trkpt>
      <trkpt lat="44.76905" lon="-0.25753">
        <ele>70</ele>
        <time>2013-07-28T15:13:27Z</time>
      </trkpt>
      <trkpt lat="44.76905" lon="-0.25757">
        <ele>70</ele>
        <time>2013-07-28T15:13:28Z</time>
      </trkpt>
      <trkpt lat="44.76905" lon="-0.25761">
        <ele>70</ele>
        <time>2013-07-28T15:13:29Z</time>
      </trkpt>
      <trkpt lat="44.76905" lon="-0.25766">
        <ele>70</ele>
        <time>2013-07-28T15:13:30Z</time>
      </trkpt>
      <trkpt lat="44.76898" lon="-0.25803">
        <ele>68</ele>
        <time>2013-07-28T15:13:39Z</time>
      </trkpt>
      <trkpt lat="44.76891" lon="-0.25847">
        <ele>67</ele>
        <time>2013-07-28T15:13:46Z</time>
      </trkpt>
      <trkpt lat="44.76881" lon="-0.25911">
        <ele>65</ele>
        <time>2013-07-28T15:13:53Z</time>
      </trkpt>
      <trkpt lat="44.76867" lon="-0.26">
        <ele>62</ele>
        <time>2013-07-28T15:14:01Z</time>
      </trkpt>
      <trkpt lat="44.76864" lon="-0.26011">
        <ele>61</ele>
        <time>2013-07-28T15:14:02Z</time>
      </trkpt>
      <trkpt lat="44.76853" lon="-0.26041">
        <ele>60</ele>
        <time>2013-07-28T15:14:05Z</time>
      </trkpt>
      <trkpt lat="44.7685" lon="-0.26051">
        <ele>60</ele>
        <time>2013-07-28T15:14:06Z</time>
      </trkpt>
      <trkpt lat="44.76848" lon="-0.26062">
        <ele>60</ele>
        <time>2013-07-28T15:14:07Z</time>
      </trkpt>
      <trkpt lat="44.76838" lon="-0.26152">
        <ele>61</ele>
        <time>2013-07-28T15:14:16Z</time>
      </trkpt>
      <trkpt lat="44.76834" lon="-0.26215">
        <ele>63</ele>
        <time>2013-07-28T15:14:24Z</time>
      </trkpt>
      <trkpt lat="44.76833" lon="-0.26273">
        <ele>64</ele>
        <time>2013-07-28T15:14:32Z</time>
      </trkpt>
      <trkpt lat="44.76833" lon="-0.26312">
        <ele>66</ele>
        <time>2013-07-28T15:14:38Z</time>
      </trkpt>
      <trkpt lat="44.76847" lon="-0.26318">
        <ele>66</ele>
        <time>2013-07-28T15:14:42Z</time>
      </trkpt>
      <trkpt lat="44.76851" lon="-0.26318">
        <ele>66</ele>
        <time>2013-07-28T15:14:43Z</time>
      </trkpt>
      <trkpt lat="44.76876" lon="-0.26319">
        <ele>66</ele>
        <time>2013-07-28T15:14:51Z</time>
      </trkpt>
      <trkpt lat="44.76894" lon="-0.2633">
        <ele>66</ele>
        <time>2013-07-28T15:14:57Z</time>
      </trkpt>
      <trkpt lat="44.76901" lon="-0.26355">
        <ele>66</ele>
        <time>2013-07-28T15:15:03Z</time>
      </trkpt>
      <trkpt lat="44.76908" lon="-0.26409">
        <ele>67</ele>
        <time>2013-07-28T15:15:14Z</time>
      </trkpt>
      <trkpt lat="44.76914" lon="-0.26457">
        <ele>66</ele>
        <time>2013-07-28T15:15:23Z</time>
      </trkpt>
      <trkpt lat="44.76915" lon="-0.26463">
        <ele>66</ele>
        <time>2013-07-28T15:15:24Z</time>
      </trkpt>
      <trkpt lat="44.7692" lon="-0.26482">
        <ele>65</ele>
        <time>2013-07-28T15:15:27Z</time>
      </trkpt>
      <trkpt lat="44.76936" lon="-0.26557">
        <ele>65</ele>
        <time>2013-07-28T15:15:37Z</time>
      </trkpt>
      <trkpt lat="44.76943" lon="-0.26593">
        <ele>64</ele>
        <time>2013-07-28T15:15:42Z</time>
      </trkpt>
      <trkpt lat="44.76954" lon="-0.26647">
        <ele>63</ele>
        <time>2013-07-28T15:15:50Z</time>
      </trkpt>
      <trkpt lat="44.76965" lon="-0.26697">
        <ele>63</ele>
        <time>2013-07-28T15:15:58Z</time>
      </trkpt>
      <trkpt lat="44.76982" lon="-0.26752">
        <ele>63</ele>
        <time>2013-07-28T15:16:08Z</time>
      </trkpt>
      <trkpt lat="44.77001" lon="-0.268">
        <ele>63</ele>
        <time>2013-07-28T15:16:18Z</time>
      </trkpt>
      <trkpt lat="44.77021" lon="-0.26849">
        <ele>63</ele>
        <time>2013-07-28T15:16:28Z</time>
      </trkpt>
      <trkpt lat="44.77025" lon="-0.26859">
        <ele>63</ele>
        <time>2013-07-28T15:16:30Z</time>
      </trkpt>
      <trkpt lat="44.7704" lon="-0.26897">
        <ele>62</ele>
        <time>2013-07-28T15:16:37Z</time>
      </trkpt>
      <trkpt lat="44.77052" lon="-0.26954">
        <ele>61</ele>
        <time>2013-07-28T15:16:47Z</time>
      </trkpt>
      <trkpt lat="44.77064" lon="-0.26992">
        <ele>60</ele>
        <time>2013-07-28T15:16:55Z</time>
      </trkpt>
      <trkpt lat="44.77075" lon="-0.2703">
        <ele>60</ele>
        <time>2013-07-28T15:17:04Z</time>
      </trkpt>
      <trkpt lat="44.77077" lon="-0.27032">
        <ele>60</ele>
        <time>2013-07-28T15:17:09Z</time>
      </trkpt>
      <trkpt lat="44.77077" lon="-0.27032">
        <ele>60</ele>
        <time>2013-07-28T15:17:18Z</time>
      </trkpt>
      <trkpt lat="44.77078" lon="-0.27032">
        <ele>60</ele>
        <time>2013-07-28T15:17:33Z</time>
      </trkpt>
      <trkpt lat="44.77077" lon="-0.27033">
        <ele>60</ele>
        <time>2013-07-28T15:17:47Z</time>
      </trkpt>
      <trkpt lat="44.77077" lon="-0.27033">
        <ele>60</ele>
        <time>2013-07-28T15:18:02Z</time>
      </trkpt>
      <trkpt lat="44.77076" lon="-0.27033">
        <ele>60</ele>
        <time>2013-07-28T15:18:13Z</time>
      </trkpt>
      <trkpt lat="44.77075" lon="-0.27044">
        <ele>59</ele>
        <time>2013-07-28T15:18:18Z</time>
      </trkpt>
      <trkpt lat="44.77074" lon="-0.27054">
        <ele>59</ele>
        <time>2013-07-28T15:18:26Z</time>
      </trkpt>
      <trkpt lat="44.77075" lon="-0.27055">
        <ele>59</ele>
        <time>2013-07-28T15:18:27Z</time>
      </trkpt>
      <trkpt lat="44.77082" lon="-0.27064">
        <ele>59</ele>
        <time>2013-07-28T15:18:31Z</time>
      </trkpt>
      <trkpt lat="44.77101" lon="-0.27117">
        <ele>57</ele>
        <time>2013-07-28T15:18:41Z</time>
      </trkpt>
      <trkpt lat="44.77114" lon="-0.27153">
        <ele>56</ele>
        <time>2013-07-28T15:18:48Z</time>
      </trkpt>
      <trkpt lat="44.77133" lon="-0.27188">
        <ele>54</ele>
        <time>2013-07-28T15:18:56Z</time>
      </trkpt>
      <trkpt lat="44.77144" lon="-0.27227">
        <ele>53</ele>
        <time>2013-07-28T15:19:03Z</time>
      </trkpt>
      <trkpt lat="44.77145" lon="-0.2725">
        <ele>53</ele>
        <time>2013-07-28T15:19:07Z</time>
      </trkpt>
      <trkpt lat="44.77145" lon="-0.27281">
        <ele>53</ele>
        <time>2013-07-28T15:19:16Z</time>
      </trkpt>
      <trkpt lat="44.77144" lon="-0.27298">
        <ele>54</ele>
        <time>2013-07-28T15:19:23Z</time>
      </trkpt>
      <trkpt lat="44.77144" lon="-0.27299">
        <ele>54</ele>
        <time>2013-07-28T15:19:33Z</time>
      </trkpt>
      <trkpt lat="44.77147" lon="-0.27302">
        <ele>54</ele>
        <time>2013-07-28T15:19:41Z</time>
      </trkpt>
      <trkpt lat="44.77147" lon="-0.27312">
        <ele>54</ele>
        <time>2013-07-28T15:19:51Z</time>
      </trkpt>
      <trkpt lat="44.77132" lon="-0.27323">
        <ele>54</ele>
        <time>2013-07-28T15:20:01Z</time>
      </trkpt>
      <trkpt lat="44.77113" lon="-0.27331">
        <ele>54</ele>
        <time>2013-07-28T15:20:09Z</time>
      </trkpt>
      <trkpt lat="44.77092" lon="-0.27341">
        <ele>54</ele>
        <time>2013-07-28T15:20:18Z</time>
      </trkpt>
      <trkpt lat="44.77092" lon="-0.27359">
        <ele>55</ele>
        <time>2013-07-28T15:20:24Z</time>
      </trkpt>
      <trkpt lat="44.77099" lon="-0.27384">
        <ele>55</ele>
        <time>2013-07-28T15:20:32Z</time>
      </trkpt>
      <trkpt lat="44.77111" lon="-0.27402">
        <ele>57</ele>
        <time>2013-07-28T15:20:38Z</time>
      </trkpt>
      <trkpt lat="44.77116" lon="-0.27427">
        <ele>59</ele>
        <time>2013-07-28T15:20:45Z</time>
      </trkpt>
      <trkpt lat="44.7712" lon="-0.27463">
        <ele>61</ele>
        <time>2013-07-28T15:20:53Z</time>
      </trkpt>
      <trkpt lat="44.77126" lon="-0.2749">
        <ele>62</ele>
        <time>2013-07-28T15:21:00Z</time>
      </trkpt>
      <trkpt lat="44.77132" lon="-0.27527">
        <ele>65</ele>
        <time>2013-07-28T15:21:10Z</time>
      </trkpt>
      <trkpt lat="44.77136" lon="-0.2755">
        <ele>66</ele>
        <time>2013-07-28T15:21:16Z</time>
      </trkpt>
      <trkpt lat="44.77141" lon="-0.27581">
        <ele>67</ele>
        <time>2013-07-28T15:21:24Z</time>
      </trkpt>
      <trkpt lat="44.77141" lon="-0.27612">
        <ele>68</ele>
        <time>2013-07-28T15:21:31Z</time>
      </trkpt>
      <trkpt lat="44.77141" lon="-0.2765">
        <ele>69</ele>
        <time>2013-07-28T15:21:40Z</time>
      </trkpt>
      <trkpt lat="44.77141" lon="-0.27683">
        <ele>70</ele>
        <time>2013-07-28T15:21:49Z</time>
      </trkpt>
      <trkpt lat="44.77145" lon="-0.27709">
        <ele>70</ele>
        <time>2013-07-28T15:21:58Z</time>
      </trkpt>
      <trkpt lat="44.77147" lon="-0.27734">
        <ele>70</ele>
        <time>2013-07-28T15:22:07Z</time>
      </trkpt>
      <trkpt lat="44.77148" lon="-0.27757">
        <ele>71</ele>
        <time>2013-07-28T15:22:16Z</time>
      </trkpt>
      <trkpt lat="44.77148" lon="-0.27759">
        <ele>71</ele>
        <time>2013-07-28T15:22:22Z</time>
      </trkpt>
      <trkpt lat="44.77149" lon="-0.27759">
        <ele>71</ele>
        <time>2013-07-28T15:22:31Z</time>
      </trkpt>
      <trkpt lat="44.77148" lon="-0.2776">
        <ele>71</ele>
        <time>2013-07-28T15:22:43Z</time>
      </trkpt>
      <trkpt lat="44.77148" lon="-0.2776">
        <ele>71</ele>
        <time>2013-07-28T15:22:58Z</time>
      </trkpt>
      <trkpt lat="44.77148" lon="-0.2776">
        <ele>71</ele>
        <time>2013-07-28T15:23:13Z</time>
      </trkpt>
      <trkpt lat="44.77148" lon="-0.27761">
        <ele>71</ele>
        <time>2013-07-28T15:23:33Z</time>
      </trkpt>
      <trkpt lat="44.77148" lon="-0.27761">
        <ele>71</ele>
        <time>2013-07-28T15:23:45Z</time>
      </trkpt>
      <trkpt lat="44.77148" lon="-0.27761">
        <ele>71</ele>
        <time>2013-07-28T15:23:53Z</time>
      </trkpt>
      <trkpt lat="44.77148" lon="-0.2776">
        <ele>71</ele>
        <time>2013-07-28T15:24:06Z</time>
      </trkpt>
      <trkpt lat="44.77148" lon="-0.2776">
        <ele>71</ele>
        <time>2013-07-28T15:24:07Z</time>
      </trkpt>
      <trkpt lat="44.7714" lon="-0.27774">
        <ele>71</ele>
        <time>2013-07-28T15:24:13Z</time>
      </trkpt>
      <trkpt lat="44.77119" lon="-0.27775">
        <ele>71</ele>
        <time>2013-07-28T15:24:21Z</time>
      </trkpt>
      <trkpt lat="44.77083" lon="-0.27781">
        <ele>70</ele>
        <time>2013-07-28T15:24:30Z</time>
      </trkpt>
      <trkpt lat="44.7703" lon="-0.27791">
        <ele>69</ele>
        <time>2013-07-28T15:24:40Z</time>
      </trkpt>
      <trkpt lat="44.76976" lon="-0.27803">
        <ele>67</ele>
        <time>2013-07-28T15:24:50Z</time>
      </trkpt>
      <trkpt lat="44.76942" lon="-0.27817">
        <ele>66</ele>
        <time>2013-07-28T15:24:58Z</time>
      </trkpt>
      <trkpt lat="44.76933" lon="-0.2782">
        <ele>66</ele>
        <time>2013-07-28T15:25:00Z</time>
      </trkpt>
      <trkpt lat="44.7692" lon="-0.27824">
        <ele>66</ele>
        <time>2013-07-28T15:25:03Z</time>
      </trkpt>
      <trkpt lat="44.76916" lon="-0.27825">
        <ele>65</ele>
        <time>2013-07-28T15:25:04Z</time>
      </trkpt>
      <trkpt lat="44.76911" lon="-0.27824">
        <ele>65</ele>
        <time>2013-07-28T15:25:05Z</time>
      </trkpt>
      <trkpt lat="44.7689" lon="-0.27821">
        <ele>65</ele>
        <time>2013-07-28T15:25:11Z</time>
      </trkpt>
      <trkpt lat="44.76888" lon="-0.27824">
        <ele>65</ele>
        <time>2013-07-28T15:25:12Z</time>
      </trkpt>
      <trkpt lat="44.76887" lon="-0.27829">
        <ele>65</ele>
        <time>2013-07-28T15:25:13Z</time>
      </trkpt>
      <trkpt lat="44.76887" lon="-0.27834">
        <ele>65</ele>
        <time>2013-07-28T15:25:14Z</time>
      </trkpt>
      <trkpt lat="44.76886" lon="-0.2784">
        <ele>65</ele>
        <time>2013-07-28T15:25:15Z</time>
      </trkpt>
      <trkpt lat="44.76886" lon="-0.27846">
        <ele>65</ele>
        <time>2013-07-28T15:25:16Z</time>
      </trkpt>
      <trkpt lat="44.76886" lon="-0.27853">
        <ele>65</ele>
        <time>2013-07-28T15:25:17Z</time>
      </trkpt>
      <trkpt lat="44.76887" lon="-0.27915">
        <ele>66</ele>
        <time>2013-07-28T15:25:27Z</time>
      </trkpt>
      <trkpt lat="44.76897" lon="-0.27957">
        <ele>66</ele>
        <time>2013-07-28T15:25:35Z</time>
      </trkpt>
      <trkpt lat="44.76904" lon="-0.27986">
        <ele>67</ele>
        <time>2013-07-28T15:25:42Z</time>
      </trkpt>
      <trkpt lat="44.76913" lon="-0.28019">
        <ele>67</ele>
        <time>2013-07-28T15:25:51Z</time>
      </trkpt>
      <trkpt lat="44.76915" lon="-0.28044">
        <ele>67</ele>
        <time>2013-07-28T15:25:57Z</time>
      </trkpt>
      <trkpt lat="44.76917" lon="-0.28094">
        <ele>68</ele>
        <time>2013-07-28T15:26:05Z</time>
      </trkpt>
      <trkpt lat="44.76917" lon="-0.28113">
        <ele>69</ele>
        <time>2013-07-28T15:26:08Z</time>
      </trkpt>
      <trkpt lat="44.76909" lon="-0.28164">
        <ele>70</ele>
        <time>2013-07-28T15:26:17Z</time>
      </trkpt>
      <trkpt lat="44.76902" lon="-0.28195">
        <ele>70</ele>
        <time>2013-07-28T15:26:24Z</time>
      </trkpt>
      <trkpt lat="44.76896" lon="-0.28221">
        <ele>70</ele>
        <time>2013-07-28T15:26:32Z</time>
      </trkpt>
      <trkpt lat="44.76885" lon="-0.28262">
        <ele>71</ele>
        <time>2013-07-28T15:26:42Z</time>
      </trkpt>
      <trkpt lat="44.76872" lon="-0.28278">
        <ele>71</ele>
        <time>2013-07-28T15:26:48Z</time>
      </trkpt>
      <trkpt lat="44.76856" lon="-0.283">
        <ele>72</ele>
        <time>2013-07-28T15:26:55Z</time>
      </trkpt>
      <trkpt lat="44.76859" lon="-0.28345">
        <ele>73</ele>
        <time>2013-07-28T15:27:04Z</time>
      </trkpt>
      <trkpt lat="44.76867" lon="-0.28386">
        <ele>74</ele>
        <time>2013-07-28T15:27:13Z</time>
      </trkpt>
      <trkpt lat="44.7687" lon="-0.28435">
        <ele>76</ele>
        <time>2013-07-28T15:27:23Z</time>
      </trkpt>
      <trkpt lat="44.7687" lon="-0.28473">
        <ele>78</ele>
        <time>2013-07-28T15:27:32Z</time>
      </trkpt>
      <trkpt lat="44.76874" lon="-0.28516">
        <ele>81</ele>
        <time>2013-07-28T15:27:42Z</time>
      </trkpt>
      <trkpt lat="44.76875" lon="-0.28551">
        <ele>84</ele>
        <time>2013-07-28T15:27:50Z</time>
      </trkpt>
      <trkpt lat="44.76879" lon="-0.28586">
        <ele>85</ele>
        <time>2013-07-28T15:27:58Z</time>
      </trkpt>
      <trkpt lat="44.76885" lon="-0.28618">
        <ele>86</ele>
        <time>2013-07-28T15:28:06Z</time>
      </trkpt>
      <trkpt lat="44.76886" lon="-0.28647">
        <ele>87</ele>
        <time>2013-07-28T15:28:14Z</time>
      </trkpt>
      <trkpt lat="44.76889" lon="-0.2865">
        <ele>87</ele>
        <time>2013-07-28T15:28:22Z</time>
      </trkpt>
      <trkpt lat="44.7689" lon="-0.28653">
        <ele>87</ele>
        <time>2013-07-28T15:28:37Z</time>
      </trkpt>
      <trkpt lat="44.76889" lon="-0.28654">
        <ele>87</ele>
        <time>2013-07-28T15:28:51Z</time>
      </trkpt>
      <trkpt lat="44.76891" lon="-0.28657">
        <ele>87</ele>
        <time>2013-07-28T15:29:03Z</time>
      </trkpt>
      <trkpt lat="44.76906" lon="-0.28682">
        <ele>87</ele>
        <time>2013-07-28T15:29:12Z</time>
      </trkpt>
      <trkpt lat="44.76913" lon="-0.28703">
        <ele>87</ele>
        <time>2013-07-28T15:29:17Z</time>
      </trkpt>
      <trkpt lat="44.76914" lon="-0.28707">
        <ele>87</ele>
        <time>2013-07-28T15:29:18Z</time>
      </trkpt>
      <trkpt lat="44.76915" lon="-0.2871">
        <ele>87</ele>
        <time>2013-07-28T15:29:19Z</time>
      </trkpt>
      <trkpt lat="44.76915" lon="-0.28714">
        <ele>87</ele>
        <time>2013-07-28T15:29:20Z</time>
      </trkpt>
      <trkpt lat="44.76916" lon="-0.28717">
        <ele>87</ele>
        <time>2013-07-28T15:29:21Z</time>
      </trkpt>
      <trkpt lat="44.76925" lon="-0.28731">
        <ele>87</ele>
        <time>2013-07-28T15:29:25Z</time>
      </trkpt>
      <trkpt lat="44.76926" lon="-0.28733">
        <ele>87</ele>
        <time>2013-07-28T15:29:26Z</time>
      </trkpt>
      <trkpt lat="44.76926" lon="-0.28736">
        <ele>88</ele>
        <time>2013-07-28T15:29:27Z</time>
      </trkpt>
      <trkpt lat="44.76926" lon="-0.28756">
        <ele>88</ele>
        <time>2013-07-28T15:29:34Z</time>
      </trkpt>
      <trkpt lat="44.76918" lon="-0.28777">
        <ele>88</ele>
        <time>2013-07-28T15:29:40Z</time>
      </trkpt>
      <trkpt lat="44.7691" lon="-0.2881">
        <ele>89</ele>
        <time>2013-07-28T15:29:48Z</time>
      </trkpt>
      <trkpt lat="44.76909" lon="-0.28838">
        <ele>91</ele>
        <time>2013-07-28T15:29:56Z</time>
      </trkpt>
      <trkpt lat="44.76915" lon="-0.28866">
        <ele>93</ele>
        <time>2013-07-28T15:30:05Z</time>
      </trkpt>
      <trkpt lat="44.7692" lon="-0.28889">
        <ele>94</ele>
        <time>2013-07-28T15:30:13Z</time>
      </trkpt>
      <trkpt lat="44.76918" lon="-0.28909">
        <ele>96</ele>
        <time>2013-07-28T15:30:19Z</time>
      </trkpt>
      <trkpt lat="44.76914" lon="-0.28925">
        <ele>97</ele>
        <time>2013-07-28T15:30:27Z</time>
      </trkpt>
      <trkpt lat="44.7691" lon="-0.28942">
        <ele>98</ele>
        <time>2013-07-28T15:30:34Z</time>
      </trkpt>
      <trkpt lat="44.7691" lon="-0.28968">
        <ele>100</ele>
        <time>2013-07-28T15:30:43Z</time>
      </trkpt>
      <trkpt lat="44.76912" lon="-0.28993">
        <ele>101</ele>
        <time>2013-07-28T15:30:52Z</time>
      </trkpt>
      <trkpt lat="44.76915" lon="-0.29016">
        <ele>102</ele>
        <time>2013-07-28T15:31:00Z</time>
      </trkpt>
      <trkpt lat="44.76914" lon="-0.29042">
        <ele>102</ele>
        <time>2013-07-28T15:31:08Z</time>
      </trkpt>
      <trkpt lat="44.76916" lon="-0.29079">
        <ele>103</ele>
        <time>2013-07-28T15:31:18Z</time>
      </trkpt>
      <trkpt lat="44.76917" lon="-0.29109">
        <ele>104</ele>
        <time>2013-07-28T15:31:26Z</time>
      </trkpt>
      <trkpt lat="44.76923" lon="-0.29148">
        <ele>105</ele>
        <time>2013-07-28T15:31:37Z</time>
      </trkpt>
      <trkpt lat="44.76925" lon="-0.29172">
        <ele>105</ele>
        <time>2013-07-28T15:31:46Z</time>
      </trkpt>
      <trkpt lat="44.7693" lon="-0.29184">
        <ele>105</ele>
        <time>2013-07-28T15:31:54Z</time>
      </trkpt>
      <trkpt lat="44.76934" lon="-0.29191">
        <ele>105</ele>
        <time>2013-07-28T15:32:02Z</time>
      </trkpt>
      <trkpt lat="44.76934" lon="-0.29191">
        <ele>105</ele>
        <time>2013-07-28T15:32:14Z</time>
      </trkpt>
      <trkpt lat="44.76935" lon="-0.29195">
        <ele>105</ele>
        <time>2013-07-28T15:32:26Z</time>
      </trkpt>
      <trkpt lat="44.76935" lon="-0.29199">
        <ele>105</ele>
        <time>2013-07-28T15:32:29Z</time>
      </trkpt>
      <trkpt lat="44.76935" lon="-0.29201">
        <ele>105</ele>
        <time>2013-07-28T15:32:30Z</time>
      </trkpt>
      <trkpt lat="44.76938" lon="-0.29231">
        <ele>105</ele>
        <time>2013-07-28T15:32:39Z</time>
      </trkpt>
      <trkpt lat="44.7694" lon="-0.29276">
        <ele>106</ele>
        <time>2013-07-28T15:32:49Z</time>
      </trkpt>
      <trkpt lat="44.76941" lon="-0.29321">
        <ele>106</ele>
        <time>2013-07-28T15:32:59Z</time>
      </trkpt>
      <trkpt lat="44.7695" lon="-0.29349">
        <ele>107</ele>
        <time>2013-07-28T15:33:07Z</time>
      </trkpt>
      <trkpt lat="44.76961" lon="-0.29379">
        <ele>107</ele>
        <time>2013-07-28T15:33:15Z</time>
      </trkpt>
      <trkpt lat="44.76975" lon="-0.29419">
        <ele>106</ele>
        <time>2013-07-28T15:33:25Z</time>
      </trkpt>
      <trkpt lat="44.76985" lon="-0.29443">
        <ele>106</ele>
        <time>2013-07-28T15:33:31Z</time>
      </trkpt>
      <trkpt lat="44.76992" lon="-0.2947">
        <ele>106</ele>
        <time>2013-07-28T15:33:38Z</time>
      </trkpt>
      <trkpt lat="44.77001" lon="-0.29491">
        <ele>105</ele>
        <time>2013-07-28T15:33:47Z</time>
      </trkpt>
      <trkpt lat="44.77007" lon="-0.29518">
        <ele>104</ele>
        <time>2013-07-28T15:33:55Z</time>
      </trkpt>
      <trkpt lat="44.77016" lon="-0.29552">
        <ele>102</ele>
        <time>2013-07-28T15:34:04Z</time>
      </trkpt>
      <trkpt lat="44.77024" lon="-0.29577">
        <ele>100</ele>
        <time>2013-07-28T15:34:12Z</time>
      </trkpt>
      <trkpt lat="44.77025" lon="-0.29578">
        <ele>100</ele>
        <time>2013-07-28T15:34:13Z</time>
      </trkpt>
      <trkpt lat="44.77028" lon="-0.2958">
        <ele>100</ele>
        <time>2013-07-28T15:34:15Z</time>
      </trkpt>
      <trkpt lat="44.77035" lon="-0.29582">
        <ele>99</ele>
        <time>2013-07-28T15:34:16Z</time>
      </trkpt>
      <trkpt lat="44.77038" lon="-0.29581">
        <ele>100</ele>
        <time>2013-07-28T15:34:17Z</time>
      </trkpt>
      <trkpt lat="44.7704" lon="-0.29579">
        <ele>100</ele>
        <time>2013-07-28T15:34:18Z</time>
      </trkpt>
      <trkpt lat="44.77059" lon="-0.29567">
        <ele>101</ele>
        <time>2013-07-28T15:34:25Z</time>
      </trkpt>
      <trkpt lat="44.77081" lon="-0.29558">
        <ele>101</ele>
        <time>2013-07-28T15:34:33Z</time>
      </trkpt>
      <trkpt lat="44.77101" lon="-0.29553">
        <ele>102</ele>
        <time>2013-07-28T15:34:40Z</time>
      </trkpt>
      <trkpt lat="44.77121" lon="-0.29549">
        <ele>103</ele>
        <time>2013-07-28T15:34:47Z</time>
      </trkpt>
      <trkpt lat="44.77142" lon="-0.29539">
        <ele>104</ele>
        <time>2013-07-28T15:34:55Z</time>
      </trkpt>
      <trkpt lat="44.77164" lon="-0.2953">
        <ele>104</ele>
        <time>2013-07-28T15:35:05Z</time>
      </trkpt>
      <trkpt lat="44.77187" lon="-0.29532">
        <ele>104</ele>
        <time>2013-07-28T15:35:13Z</time>
      </trkpt>
      <trkpt lat="44.77209" lon="-0.2954">
        <ele>103</ele>
        <time>2013-07-28T15:35:20Z</time>
      </trkpt>
      <trkpt lat="44.77232" lon="-0.29548">
        <ele>103</ele>
        <time>2013-07-28T15:35:28Z</time>
      </trkpt>
      <trkpt lat="44.77259" lon="-0.29555">
        <ele>103</ele>
        <time>2013-07-28T15:35:37Z</time>
      </trkpt>
      <trkpt lat="44.77271" lon="-0.29561">
        <ele>104</ele>
        <time>2013-07-28T15:35:42Z</time>
      </trkpt>
      <trkpt lat="44.77275" lon="-0.29576">
        <ele>103</ele>
        <time>2013-07-28T15:35:49Z</time>
      </trkpt>
      <trkpt lat="44.77269" lon="-0.29597">
        <ele>102</ele>
        <time>2013-07-28T15:35:56Z</time>
      </trkpt>
      <trkpt lat="44.77259" lon="-0.29636">
        <ele>98</ele>
        <time>2013-07-28T15:36:04Z</time>
      </trkpt>
      <trkpt lat="44.77244" lon="-0.29682">
        <ele>95</ele>
        <time>2013-07-28T15:36:10Z</time>
      </trkpt>
      <trkpt lat="44.77214" lon="-0.29743">
        <ele>90</ele>
        <time>2013-07-28T15:36:17Z</time>
      </trkpt>
      <trkpt lat="44.77187" lon="-0.29818">
        <ele>86</ele>
        <time>2013-07-28T15:36:25Z</time>
      </trkpt>
      <trkpt lat="44.77179" lon="-0.29846">
        <ele>85</ele>
        <time>2013-07-28T15:36:29Z</time>
      </trkpt>
      <trkpt lat="44.77175" lon="-0.29872">
        <ele>84</ele>
        <time>2013-07-28T15:36:35Z</time>
      </trkpt>
      <trkpt lat="44.77178" lon="-0.29886">
        <ele>84</ele>
        <time>2013-07-28T15:36:39Z</time>
      </trkpt>
      <trkpt lat="44.77177" lon="-0.29889">
        <ele>84</ele>
        <time>2013-07-28T15:36:40Z</time>
      </trkpt>
      <trkpt lat="44.77177" lon="-0.29893">
        <ele>84</ele>
        <time>2013-07-28T15:36:41Z</time>
      </trkpt>
      <trkpt lat="44.77177" lon="-0.29904">
        <ele>83</ele>
        <time>2013-07-28T15:36:47Z</time>
      </trkpt>
      <trkpt lat="44.7718" lon="-0.29908">
        <ele>83</ele>
        <time>2013-07-28T15:36:55Z</time>
      </trkpt>
      <trkpt lat="44.77179" lon="-0.29909">
        <ele>83</ele>
        <time>2013-07-28T15:37:09Z</time>
      </trkpt>
      <trkpt lat="44.77181" lon="-0.29911">
        <ele>83</ele>
        <time>2013-07-28T15:37:22Z</time>
      </trkpt>
      <trkpt lat="44.77182" lon="-0.29912">
        <ele>83</ele>
        <time>2013-07-28T15:37:23Z</time>
      </trkpt>
      <trkpt lat="44.77186" lon="-0.29914">
        <ele>83</ele>
        <time>2013-07-28T15:37:30Z</time>
      </trkpt>
      <trkpt lat="44.77189" lon="-0.29917">
        <ele>83</ele>
        <time>2013-07-28T15:37:36Z</time>
      </trkpt>
      <trkpt lat="44.7719" lon="-0.29919">
        <ele>83</ele>
        <time>2013-07-28T15:37:37Z</time>
      </trkpt>
      <trkpt lat="44.77202" lon="-0.29936">
        <ele>83</ele>
        <time>2013-07-28T15:37:43Z</time>
      </trkpt>
      <trkpt lat="44.77226" lon="-0.2997">
        <ele>83</ele>
        <time>2013-07-28T15:37:53Z</time>
      </trkpt>
      <trkpt lat="44.77245" lon="-0.29995">
        <ele>84</ele>
        <time>2013-07-28T15:38:01Z</time>
      </trkpt>
      <trkpt lat="44.77265" lon="-0.30025">
        <ele>84</ele>
        <time>2013-07-28T15:38:09Z</time>
      </trkpt>
      <trkpt lat="44.77283" lon="-0.30054">
        <ele>84</ele>
        <time>2013-07-28T15:38:16Z</time>
      </trkpt>
      <trkpt lat="44.77303" lon="-0.30085">
        <ele>84</ele>
        <time>2013-07-28T15:38:24Z</time>
      </trkpt>
      <trkpt lat="44.77328" lon="-0.30116">
        <ele>84</ele>
        <time>2013-07-28T15:38:32Z</time>
      </trkpt>
      <trkpt lat="44.77351" lon="-0.30153">
        <ele>83</ele>
        <time>2013-07-28T15:38:41Z</time>
      </trkpt>
      <trkpt lat="44.77372" lon="-0.30185">
        <ele>83</ele>
        <time>2013-07-28T15:38:49Z</time>
      </trkpt>
      <trkpt lat="44.77392" lon="-0.30215">
        <ele>83</ele>
        <time>2013-07-28T15:38:57Z</time>
      </trkpt>
      <trkpt lat="44.77405" lon="-0.30238">
        <ele>83</ele>
        <time>2013-07-28T15:39:04Z</time>
      </trkpt>
      <trkpt lat="44.77427" lon="-0.30271">
        <ele>82</ele>
        <time>2013-07-28T15:39:12Z</time>
      </trkpt>
      <trkpt lat="44.77449" lon="-0.30307">
        <ele>81</ele>
        <time>2013-07-28T15:39:20Z</time>
      </trkpt>
      <trkpt lat="44.77475" lon="-0.30346">
        <ele>80</ele>
        <time>2013-07-28T15:39:27Z</time>
      </trkpt>
      <trkpt lat="44.77513" lon="-0.30403">
        <ele>79</ele>
        <time>2013-07-28T15:39:36Z</time>
      </trkpt>
      <trkpt lat="44.77552" lon="-0.30466">
        <ele>79</ele>
        <time>2013-07-28T15:39:45Z</time>
      </trkpt>
      <trkpt lat="44.77557" lon="-0.30474">
        <ele>79</ele>
        <time>2013-07-28T15:39:46Z</time>
      </trkpt>
      <trkpt lat="44.77593" lon="-0.30533">
        <ele>78</ele>
        <time>2013-07-28T15:39:54Z</time>
      </trkpt>
      <trkpt lat="44.7764" lon="-0.30602">
        <ele>78</ele>
        <time>2013-07-28T15:40:04Z</time>
      </trkpt>
      <trkpt lat="44.77673" lon="-0.30656">
        <ele>79</ele>
        <time>2013-07-28T15:40:12Z</time>
      </trkpt>
      <trkpt lat="44.77709" lon="-0.30728">
        <ele>80</ele>
        <time>2013-07-28T15:40:22Z</time>
      </trkpt>
      <trkpt lat="44.77722" lon="-0.30758">
        <ele>81</ele>
        <time>2013-07-28T15:40:26Z</time>
      </trkpt>
      <trkpt lat="44.77748" lon="-0.30828">
        <ele>82</ele>
        <time>2013-07-28T15:40:35Z</time>
      </trkpt>
      <trkpt lat="44.77766" lon="-0.30897">
        <ele>81</ele>
        <time>2013-07-28T15:40:43Z</time>
      </trkpt>
      <trkpt lat="44.77782" lon="-0.30971">
        <ele>80</ele>
        <time>2013-07-28T15:40:51Z</time>
      </trkpt>
      <trkpt lat="44.77813" lon="-0.31057">
        <ele>77</ele>
        <time>2013-07-28T15:40:59Z</time>
      </trkpt>
      <trkpt lat="44.77862" lon="-0.3115">
        <ele>73</ele>
        <time>2013-07-28T15:41:08Z</time>
      </trkpt>
      <trkpt lat="44.77891" lon="-0.31222">
        <ele>71</ele>
        <time>2013-07-28T15:41:15Z</time>
      </trkpt>
      <trkpt lat="44.77929" lon="-0.31314">
        <ele>71</ele>
        <time>2013-07-28T15:41:23Z</time>
      </trkpt>
      <trkpt lat="44.77976" lon="-0.3142">
        <ele>70</ele>
        <time>2013-07-28T15:41:33Z</time>
      </trkpt>
      <trkpt lat="44.78013" lon="-0.31511">
        <ele>68</ele>
        <time>2013-07-28T15:41:43Z</time>
      </trkpt>
      <trkpt lat="44.78043" lon="-0.31588">
        <ele>68</ele>
        <time>2013-07-28T15:41:53Z</time>
      </trkpt>
      <trkpt lat="44.7807" lon="-0.31659">
        <ele>67</ele>
        <time>2013-07-28T15:42:03Z</time>
      </trkpt>
      <trkpt lat="44.78091" lon="-0.31713">
        <ele>66</ele>
        <time>2013-07-28T15:42:12Z</time>
      </trkpt>
      <trkpt lat="44.78102" lon="-0.3174">
        <ele>66</ele>
        <time>2013-07-28T15:42:19Z</time>
      </trkpt>
      <trkpt lat="44.78101" lon="-0.31741">
        <ele>66</ele>
        <time>2013-07-28T15:42:26Z</time>
      </trkpt>
      <trkpt lat="44.78101" lon="-0.31741">
        <ele>66</ele>
        <time>2013-07-28T15:42:41Z</time>
      </trkpt>
      <trkpt lat="44.78101" lon="-0.31742">
        <ele>66</ele>
        <time>2013-07-28T15:42:53Z</time>
      </trkpt>
      <trkpt lat="44.78101" lon="-0.31742">
        <ele>66</ele>
        <time>2013-07-28T15:43:03Z</time>
      </trkpt>
      <trkpt lat="44.78102" lon="-0.31742">
        <ele>66</ele>
        <time>2013-07-28T15:43:13Z</time>
      </trkpt>
      <trkpt lat="44.78101" lon="-0.31742">
        <ele>66</ele>
        <time>2013-07-28T15:43:27Z</time>
      </trkpt>
      <trkpt lat="44.78101" lon="-0.31742">
        <ele>66</ele>
        <time>2013-07-28T15:43:35Z</time>
      </trkpt>
      <trkpt lat="44.78101" lon="-0.31743">
        <ele>66</ele>
        <time>2013-07-28T15:43:48Z</time>
      </trkpt>
      <trkpt lat="44.78101" lon="-0.31743">
        <ele>66</ele>
        <time>2013-07-28T15:43:57Z</time>
      </trkpt>
      <trkpt lat="44.78101" lon="-0.31743">
        <ele>66</ele>
        <time>2013-07-28T15:44:08Z</time>
      </trkpt>
      <trkpt lat="44.781" lon="-0.31742">
        <ele>66</ele>
        <time>2013-07-28T15:44:18Z</time>
      </trkpt>
      <trkpt lat="44.78099" lon="-0.31741">
        <ele>66</ele>
        <time>2013-07-28T15:44:25Z</time>
      </trkpt>
      <trkpt lat="44.78099" lon="-0.3174">
        <ele>66</ele>
        <time>2013-07-28T15:44:32Z</time>
      </trkpt>
      <trkpt lat="44.78099" lon="-0.3174">
        <ele>66</ele>
        <time>2013-07-28T15:44:43Z</time>
      </trkpt>
      <trkpt lat="44.78099" lon="-0.31741">
        <ele>66</ele>
        <time>2013-07-28T15:45:02Z</time>
      </trkpt>
      <trkpt lat="44.78098" lon="-0.31741">
        <ele>66</ele>
        <time>2013-07-28T15:45:22Z</time>
      </trkpt>
      <trkpt lat="44.78098" lon="-0.31741">
        <ele>66</ele>
        <time>2013-07-28T15:45:38Z</time>
      </trkpt>
      <trkpt lat="44.78098" lon="-0.31742">
        <ele>66</ele>
        <time>2013-07-28T15:45:55Z</time>
      </trkpt>
      <trkpt lat="44.78098" lon="-0.31742">
        <ele>66</ele>
        <time>2013-07-28T15:46:10Z</time>
      </trkpt>
      <trkpt lat="44.78098" lon="-0.31742">
        <ele>66</ele>
        <time>2013-07-28T15:46:27Z</time>
      </trkpt>
      <trkpt lat="44.78098" lon="-0.31742">
        <ele>66</ele>
        <time>2013-07-28T15:46:42Z</time>
      </trkpt>
      <trkpt lat="44.7809" lon="-0.3174">
        <ele>66</ele>
        <time>2013-07-28T15:46:48Z</time>
      </trkpt>
      <trkpt lat="44.78072" lon="-0.31731">
        <ele>66</ele>
        <time>2013-07-28T15:46:58Z</time>
      </trkpt>
      <trkpt lat="44.7805" lon="-0.31718">
        <ele>66</ele>
        <time>2013-07-28T15:47:06Z</time>
      </trkpt>
      <trkpt lat="44.78029" lon="-0.31706">
        <ele>66</ele>
        <time>2013-07-28T15:47:14Z</time>
      </trkpt>
      <trkpt lat="44.78011" lon="-0.31694">
        <ele>67</ele>
        <time>2013-07-28T15:47:22Z</time>
      </trkpt>
      <trkpt lat="44.77988" lon="-0.31683">
        <ele>67</ele>
        <time>2013-07-28T15:47:30Z</time>
      </trkpt>
      <trkpt lat="44.77963" lon="-0.31672">
        <ele>68</ele>
        <time>2013-07-28T15:47:39Z</time>
      </trkpt>
      <trkpt lat="44.77934" lon="-0.31662">
        <ele>69</ele>
        <time>2013-07-28T15:47:47Z</time>
      </trkpt>
      <trkpt lat="44.77904" lon="-0.31645">
        <ele>70</ele>
        <time>2013-07-28T15:47:55Z</time>
      </trkpt>
      <trkpt lat="44.77876" lon="-0.31639">
        <ele>71</ele>
        <time>2013-07-28T15:48:02Z</time>
      </trkpt>
      <trkpt lat="44.7785" lon="-0.31633">
        <ele>72</ele>
        <time>2013-07-28T15:48:09Z</time>
      </trkpt>
      <trkpt lat="44.77819" lon="-0.31621">
        <ele>71</ele>
        <time>2013-07-28T15:48:18Z</time>
      </trkpt>
      <trkpt lat="44.77784" lon="-0.31609">
        <ele>69</ele>
        <time>2013-07-28T15:48:27Z</time>
      </trkpt>
      <trkpt lat="44.77751" lon="-0.31598">
        <ele>68</ele>
        <time>2013-07-28T15:48:34Z</time>
      </trkpt>
      <trkpt lat="44.77724" lon="-0.31603">
        <ele>68</ele>
        <time>2013-07-28T15:48:40Z</time>
      </trkpt>
      <trkpt lat="44.77709" lon="-0.31609">
        <ele>68</ele>
        <time>2013-07-28T15:48:43Z</time>
      </trkpt>
      <trkpt lat="44.77697" lon="-0.31613">
        <ele>69</ele>
        <time>2013-07-28T15:48:45Z</time>
      </trkpt>
      <trkpt lat="44.77691" lon="-0.31614">
        <ele>69</ele>
        <time>2013-07-28T15:48:46Z</time>
      </trkpt>
      <trkpt lat="44.77673" lon="-0.31616">
        <ele>70</ele>
        <time>2013-07-28T15:48:49Z</time>
      </trkpt>
      <trkpt lat="44.77668" lon="-0.31618">
        <ele>70</ele>
        <time>2013-07-28T15:48:50Z</time>
      </trkpt>
      <trkpt lat="44.77637" lon="-0.31626">
        <ele>70</ele>
        <time>2013-07-28T15:48:56Z</time>
      </trkpt>
      <trkpt lat="44.77588" lon="-0.31624">
        <ele>70</ele>
        <time>2013-07-28T15:49:06Z</time>
      </trkpt>
      <trkpt lat="44.77541" lon="-0.3163">
        <ele>67</ele>
        <time>2013-07-28T15:49:15Z</time>
      </trkpt>
      <trkpt lat="44.77535" lon="-0.31629">
        <ele>67</ele>
        <time>2013-07-28T15:49:16Z</time>
      </trkpt>
      <trkpt lat="44.77524" lon="-0.31625">
        <ele>67</ele>
        <time>2013-07-28T15:49:18Z</time>
      </trkpt>
      <trkpt lat="44.7752" lon="-0.31622">
        <ele>67</ele>
        <time>2013-07-28T15:49:19Z</time>
      </trkpt>
      <trkpt lat="44.77489" lon="-0.31583">
        <ele>69</ele>
        <time>2013-07-28T15:49:27Z</time>
      </trkpt>
      <trkpt lat="44.77452" lon="-0.3155">
        <ele>70</ele>
        <time>2013-07-28T15:49:35Z</time>
      </trkpt>
      <trkpt lat="44.7741" lon="-0.31531">
        <ele>70</ele>
        <time>2013-07-28T15:49:44Z</time>
      </trkpt>
      <trkpt lat="44.77376" lon="-0.3151">
        <ele>68</ele>
        <time>2013-07-28T15:49:51Z</time>
      </trkpt>
      <trkpt lat="44.77346" lon="-0.31475">
        <ele>66</ele>
        <time>2013-07-28T15:49:59Z</time>
      </trkpt>
      <trkpt lat="44.77336" lon="-0.31444">
        <ele>65</ele>
        <time>2013-07-28T15:50:06Z</time>
      </trkpt>
      <trkpt lat="44.77323" lon="-0.31395">
        <ele>64</ele>
        <time>2013-07-28T15:50:15Z</time>
      </trkpt>
      <trkpt lat="44.7731" lon="-0.31339">
        <ele>65</ele>
        <time>2013-07-28T15:50:23Z</time>
      </trkpt>
      <trkpt lat="44.77303" lon="-0.31319">
        <ele>66</ele>
        <time>2013-07-28T15:50:27Z</time>
      </trkpt>
      <trkpt lat="44.7728" lon="-0.31315">
        <ele>65</ele>
        <time>2013-07-28T15:50:33Z</time>
      </trkpt>
      <trkpt lat="44.77241" lon="-0.31326">
        <ele>66</ele>
        <time>2013-07-28T15:50:42Z</time>
      </trkpt>
      <trkpt lat="44.77238" lon="-0.31327">
        <ele>67</ele>
        <time>2013-07-28T15:50:43Z</time>
      </trkpt>
      <trkpt lat="44.77226" lon="-0.31314">
        <ele>67</ele>
        <time>2013-07-28T15:50:49Z</time>
      </trkpt>
      <trkpt lat="44.77225" lon="-0.31313">
        <ele>67</ele>
        <time>2013-07-28T15:50:54Z</time>
      </trkpt>
      <trkpt lat="44.77222" lon="-0.31316">
        <ele>67</ele>
        <time>2013-07-28T15:51:03Z</time>
      </trkpt>
      <trkpt lat="44.77219" lon="-0.31318">
        <ele>68</ele>
        <time>2013-07-28T15:51:24Z</time>
      </trkpt>
      <trkpt lat="44.77219" lon="-0.31318">
        <ele>68</ele>
        <time>2013-07-28T15:51:46Z</time>
      </trkpt>
      <trkpt lat="44.77219" lon="-0.31317">
        <ele>68</ele>
        <time>2013-07-28T15:52:09Z</time>
      </trkpt>
      <trkpt lat="44.77218" lon="-0.31318">
        <ele>68</ele>
        <time>2013-07-28T15:52:32Z</time>
      </trkpt>
      <trkpt lat="44.77218" lon="-0.31317">
        <ele>68</ele>
        <time>2013-07-28T15:52:48Z</time>
      </trkpt>
      <trkpt lat="44.77219" lon="-0.31313">
        <ele>68</ele>
        <time>2013-07-28T15:52:59Z</time>
      </trkpt>
      <trkpt lat="44.7722" lon="-0.31312">
        <ele>67</ele>
        <time>2013-07-28T15:53:04Z</time>
      </trkpt>
      <trkpt lat="44.77211" lon="-0.313">
        <ele>68</ele>
        <time>2013-07-28T15:53:11Z</time>
      </trkpt>
      <trkpt lat="44.77205" lon="-0.31292">
        <ele>68</ele>
        <time>2013-07-28T15:53:16Z</time>
      </trkpt>
      <trkpt lat="44.77194" lon="-0.31284">
        <ele>68</ele>
        <time>2013-07-28T15:53:24Z</time>
      </trkpt>
      <trkpt lat="44.77184" lon="-0.31278">
        <ele>68</ele>
        <time>2013-07-28T15:53:31Z</time>
      </trkpt>
      <trkpt lat="44.77173" lon="-0.31271">
        <ele>69</ele>
        <time>2013-07-28T15:53:38Z</time>
      </trkpt>
      <trkpt lat="44.77159" lon="-0.31262">
        <ele>69</ele>
        <time>2013-07-28T15:53:46Z</time>
      </trkpt>
      <trkpt lat="44.77145" lon="-0.31253">
        <ele>69</ele>
        <time>2013-07-28T15:53:54Z</time>
      </trkpt>
      <trkpt lat="44.77144" lon="-0.31251">
        <ele>69</ele>
        <time>2013-07-28T15:53:55Z</time>
      </trkpt>
      <trkpt lat="44.77141" lon="-0.3124">
        <ele>68</ele>
        <time>2013-07-28T15:53:59Z</time>
      </trkpt>
      <trkpt lat="44.77132" lon="-0.31219">
        <ele>68</ele>
        <time>2013-07-28T15:54:07Z</time>
      </trkpt>
      <trkpt lat="44.77117" lon="-0.31213">
        <ele>68</ele>
        <time>2013-07-28T15:54:15Z</time>
      </trkpt>
      <trkpt lat="44.771" lon="-0.31215">
        <ele>68</ele>
        <time>2013-07-28T15:54:23Z</time>
      </trkpt>
      <trkpt lat="44.77086" lon="-0.31215">
        <ele>69</ele>
        <time>2013-07-28T15:54:30Z</time>
      </trkpt>
      <trkpt lat="44.77075" lon="-0.31212">
        <ele>69</ele>
        <time>2013-07-28T15:54:36Z</time>
      </trkpt>
      <trkpt lat="44.77057" lon="-0.31219">
        <ele>69</ele>
        <time>2013-07-28T15:54:46Z</time>
      </trkpt>
      <trkpt lat="44.77035" lon="-0.31217">
        <ele>71</ele>
        <time>2013-07-28T15:54:55Z</time>
      </trkpt>
      <trkpt lat="44.7702" lon="-0.312">
        <ele>73</ele>
        <time>2013-07-28T15:55:03Z</time>
      </trkpt>
      <trkpt lat="44.77008" lon="-0.31196">
        <ele>75</ele>
        <time>2013-07-28T15:55:09Z</time>
      </trkpt>
      <trkpt lat="44.76994" lon="-0.31202">
        <ele>77</ele>
        <time>2013-07-28T15:55:17Z</time>
      </trkpt>
      <trkpt lat="44.76978" lon="-0.31205">
        <ele>80</ele>
        <time>2013-07-28T15:55:25Z</time>
      </trkpt>
      <trkpt lat="44.76974" lon="-0.31204">
        <ele>81</ele>
        <time>2013-07-28T15:55:32Z</time>
      </trkpt>
      <trkpt lat="44.76965" lon="-0.31204">
        <ele>82</ele>
        <time>2013-07-28T15:55:39Z</time>
      </trkpt>
      <trkpt lat="44.76961" lon="-0.31203">
        <ele>83</ele>
        <time>2013-07-28T15:55:47Z</time>
      </trkpt>
      <trkpt lat="44.7696" lon="-0.31204">
        <ele>83</ele>
        <time>2013-07-28T15:55:56Z</time>
      </trkpt>
      <trkpt lat="44.7696" lon="-0.31204">
        <ele>83</ele>
        <time>2013-07-28T15:56:07Z</time>
      </trkpt>
      <trkpt lat="44.7696" lon="-0.31204">
        <ele>83</ele>
        <time>2013-07-28T15:56:17Z</time>
      </trkpt>
      <trkpt lat="44.76959" lon="-0.31204">
        <ele>84</ele>
        <time>2013-07-28T15:56:28Z</time>
      </trkpt>
      <trkpt lat="44.76958" lon="-0.31204">
        <ele>84</ele>
        <time>2013-07-28T15:56:29Z</time>
      </trkpt>
      <trkpt lat="44.76954" lon="-0.31197">
        <ele>84</ele>
        <time>2013-07-28T15:56:34Z</time>
      </trkpt>
      <trkpt lat="44.76953" lon="-0.31168">
        <ele>85</ele>
        <time>2013-07-28T15:56:44Z</time>
      </trkpt>
      <trkpt lat="44.76952" lon="-0.31134">
        <ele>85</ele>
        <time>2013-07-28T15:56:52Z</time>
      </trkpt>
      <trkpt lat="44.76951" lon="-0.31114">
        <ele>85</ele>
        <time>2013-07-28T15:56:56Z</time>
      </trkpt>
      <trkpt lat="44.76939" lon="-0.31103">
        <ele>87</ele>
        <time>2013-07-28T15:57:01Z</time>
      </trkpt>
      <trkpt lat="44.76927" lon="-0.31089">
        <ele>89</ele>
        <time>2013-07-28T15:57:06Z</time>
      </trkpt>
      <trkpt lat="44.76924" lon="-0.31087">
        <ele>89</ele>
        <time>2013-07-28T15:57:07Z</time>
      </trkpt>
      <trkpt lat="44.76911" lon="-0.31078">
        <ele>90</ele>
        <time>2013-07-28T15:57:14Z</time>
      </trkpt>
      <trkpt lat="44.76894" lon="-0.31068">
        <ele>91</ele>
        <time>2013-07-28T15:57:21Z</time>
      </trkpt>
      <trkpt lat="44.76875" lon="-0.31053">
        <ele>92</ele>
        <time>2013-07-28T15:57:29Z</time>
      </trkpt>
      <trkpt lat="44.76851" lon="-0.31037">
        <ele>92</ele>
        <time>2013-07-28T15:57:38Z</time>
      </trkpt>
      <trkpt lat="44.76829" lon="-0.31022">
        <ele>92</ele>
        <time>2013-07-28T15:57:46Z</time>
      </trkpt>
      <trkpt lat="44.768" lon="-0.31002">
        <ele>93</ele>
        <time>2013-07-28T15:57:55Z</time>
      </trkpt>
      <trkpt lat="44.76781" lon="-0.30992">
        <ele>94</ele>
        <time>2013-07-28T15:58:01Z</time>
      </trkpt>
      <trkpt lat="44.76771" lon="-0.31018">
        <ele>96</ele>
        <time>2013-07-28T15:58:07Z</time>
      </trkpt>
      <trkpt lat="44.76764" lon="-0.31059">
        <ele>99</ele>
        <time>2013-07-28T15:58:16Z</time>
      </trkpt>
      <trkpt lat="44.76757" lon="-0.31095">
        <ele>101</ele>
        <time>2013-07-28T15:58:25Z</time>
      </trkpt>
      <trkpt lat="44.76752" lon="-0.31115">
        <ele>101</ele>
        <time>2013-07-28T15:58:32Z</time>
      </trkpt>
      <trkpt lat="44.76749" lon="-0.31131">
        <ele>102</ele>
        <time>2013-07-28T15:58:39Z</time>
      </trkpt>
      <trkpt lat="44.76749" lon="-0.31131">
        <ele>102</ele>
        <time>2013-07-28T15:58:46Z</time>
      </trkpt>
      <trkpt lat="44.76749" lon="-0.31131">
        <ele>102</ele>
        <time>2013-07-28T15:58:51Z</time>
      </trkpt>
      <trkpt lat="44.76749" lon="-0.31131">
        <ele>102</ele>
        <time>2013-07-28T15:59:01Z</time>
      </trkpt>
      <trkpt lat="44.76749" lon="-0.31131">
        <ele>102</ele>
        <time>2013-07-28T15:59:14Z</time>
      </trkpt>
      <trkpt lat="44.76748" lon="-0.31151">
        <ele>102</ele>
        <time>2013-07-28T15:59:21Z</time>
      </trkpt>
      <trkpt lat="44.76741" lon="-0.31193">
        <ele>100</ele>
        <time>2013-07-28T15:59:29Z</time>
      </trkpt>
      <trkpt lat="44.76742" lon="-0.31219">
        <ele>99</ele>
        <time>2013-07-28T15:59:35Z</time>
      </trkpt>
      <trkpt lat="44.76743" lon="-0.31253">
        <ele>99</ele>
        <time>2013-07-28T15:59:41Z</time>
      </trkpt>
      <trkpt lat="44.7674" lon="-0.31272">
        <ele>99</ele>
        <time>2013-07-28T15:59:47Z</time>
      </trkpt>
      <trkpt lat="44.76728" lon="-0.31272">
        <ele>100</ele>
        <time>2013-07-28T15:59:51Z</time>
      </trkpt>
      <trkpt lat="44.76712" lon="-0.31272">
        <ele>101</ele>
        <time>2013-07-28T15:59:55Z</time>
      </trkpt>
      <trkpt lat="44.76708" lon="-0.31271">
        <ele>101</ele>
        <time>2013-07-28T15:59:56Z</time>
      </trkpt>
      <trkpt lat="44.76689" lon="-0.31267">
        <ele>102</ele>
        <time>2013-07-28T16:00:00Z</time>
      </trkpt>
      <trkpt lat="44.76672" lon="-0.31264">
        <ele>103</ele>
        <time>2013-07-28T16:00:04Z</time>
      </trkpt>
      <trkpt lat="44.76653" lon="-0.31263">
        <ele>104</ele>
        <time>2013-07-28T16:00:08Z</time>
      </trkpt>
      <trkpt lat="44.76622" lon="-0.31267">
        <ele>105</ele>
        <time>2013-07-28T16:00:15Z</time>
      </trkpt>
      <trkpt lat="44.76613" lon="-0.3127">
        <ele>105</ele>
        <time>2013-07-28T16:00:17Z</time>
      </trkpt>
      <trkpt lat="44.76609" lon="-0.31272">
        <ele>105</ele>
        <time>2013-07-28T16:00:18Z</time>
      </trkpt>
      <trkpt lat="44.766" lon="-0.31275">
        <ele>105</ele>
        <time>2013-07-28T16:00:20Z</time>
      </trkpt>
      <trkpt lat="44.76555" lon="-0.313">
        <ele>106</ele>
        <time>2013-07-28T16:00:31Z</time>
      </trkpt>
      <trkpt lat="44.76539" lon="-0.31308">
        <ele>106</ele>
        <time>2013-07-28T16:00:35Z</time>
      </trkpt>
      <trkpt lat="44.76535" lon="-0.31309">
        <ele>106</ele>
        <time>2013-07-28T16:00:36Z</time>
      </trkpt>
      <trkpt lat="44.76496" lon="-0.31309">
        <ele>107</ele>
        <time>2013-07-28T16:00:46Z</time>
      </trkpt>
      <trkpt lat="44.76476" lon="-0.31303">
        <ele>107</ele>
        <time>2013-07-28T16:00:52Z</time>
      </trkpt>
      <trkpt lat="44.76451" lon="-0.31297">
        <ele>107</ele>
        <time>2013-07-28T16:00:59Z</time>
      </trkpt>
      <trkpt lat="44.76421" lon="-0.31288">
        <ele>106</ele>
        <time>2013-07-28T16:01:07Z</time>
      </trkpt>
      <trkpt lat="44.76417" lon="-0.31287">
        <ele>106</ele>
        <time>2013-07-28T16:01:08Z</time>
      </trkpt>
      <trkpt lat="44.76412" lon="-0.31286">
        <ele>106</ele>
        <time>2013-07-28T16:01:09Z</time>
      </trkpt>
      <trkpt lat="44.76372" lon="-0.31276">
        <ele>106</ele>
        <time>2013-07-28T16:01:19Z</time>
      </trkpt>
      <trkpt lat="44.76349" lon="-0.31271">
        <ele>105</ele>
        <time>2013-07-28T16:01:25Z</time>
      </trkpt>
      <trkpt lat="44.76341" lon="-0.31268">
        <ele>105</ele>
        <time>2013-07-28T16:01:27Z</time>
      </trkpt>
      <trkpt lat="44.76337" lon="-0.31268">
        <ele>105</ele>
        <time>2013-07-28T16:01:28Z</time>
      </trkpt>
      <trkpt lat="44.763" lon="-0.31257">
        <ele>106</ele>
        <time>2013-07-28T16:01:38Z</time>
      </trkpt>
      <trkpt lat="44.76281" lon="-0.31257">
        <ele>106</ele>
        <time>2013-07-28T16:01:44Z</time>
      </trkpt>
      <trkpt lat="44.76267" lon="-0.31252">
        <ele>106</ele>
        <time>2013-07-28T16:01:49Z</time>
      </trkpt>
      <trkpt lat="44.76253" lon="-0.31245">
        <ele>106</ele>
        <time>2013-07-28T16:01:56Z</time>
      </trkpt>
      <trkpt lat="44.76243" lon="-0.31246">
        <ele>106</ele>
        <time>2013-07-28T16:02:00Z</time>
      </trkpt>
      <trkpt lat="44.7623" lon="-0.31239">
        <ele>106</ele>
        <time>2013-07-28T16:02:06Z</time>
      </trkpt>
      <trkpt lat="44.76201" lon="-0.31231">
        <ele>107</ele>
        <time>2013-07-28T16:02:12Z</time>
      </trkpt>
      <trkpt lat="44.76155" lon="-0.31218">
        <ele>107</ele>
        <time>2013-07-28T16:02:21Z</time>
      </trkpt>
      <trkpt lat="44.76119" lon="-0.31208">
        <ele>109</ele>
        <time>2013-07-28T16:02:29Z</time>
      </trkpt>
      <trkpt lat="44.76103" lon="-0.31207">
        <ele>109</ele>
        <time>2013-07-28T16:02:33Z</time>
      </trkpt>
      <trkpt lat="44.76094" lon="-0.31208">
        <ele>109</ele>
        <time>2013-07-28T16:02:35Z</time>
      </trkpt>
      <trkpt lat="44.76089" lon="-0.31209">
        <ele>109</ele>
        <time>2013-07-28T16:02:36Z</time>
      </trkpt>
      <trkpt lat="44.76079" lon="-0.31213">
        <ele>110</ele>
        <time>2013-07-28T16:02:38Z</time>
      </trkpt>
      <trkpt lat="44.76074" lon="-0.31216">
        <ele>110</ele>
        <time>2013-07-28T16:02:39Z</time>
      </trkpt>
      <trkpt lat="44.76068" lon="-0.31221">
        <ele>110</ele>
        <time>2013-07-28T16:02:40Z</time>
      </trkpt>
      <trkpt lat="44.76057" lon="-0.31232">
        <ele>110</ele>
        <time>2013-07-28T16:02:42Z</time>
      </trkpt>
      <trkpt lat="44.76052" lon="-0.3124">
        <ele>110</ele>
        <time>2013-07-28T16:02:43Z</time>
      </trkpt>
      <trkpt lat="44.76048" lon="-0.31248">
        <ele>110</ele>
        <time>2013-07-28T16:02:44Z</time>
      </trkpt>
      <trkpt lat="44.76044" lon="-0.31256">
        <ele>110</ele>
        <time>2013-07-28T16:02:45Z</time>
      </trkpt>
      <trkpt lat="44.76041" lon="-0.31265">
        <ele>110</ele>
        <time>2013-07-28T16:02:46Z</time>
      </trkpt>
      <trkpt lat="44.76038" lon="-0.31275">
        <ele>110</ele>
        <time>2013-07-28T16:02:47Z</time>
      </trkpt>
      <trkpt lat="44.76036" lon="-0.31284">
        <ele>111</ele>
        <time>2013-07-28T16:02:48Z</time>
      </trkpt>
      <trkpt lat="44.76035" lon="-0.31292">
        <ele>111</ele>
        <time>2013-07-28T16:02:49Z</time>
      </trkpt>
      <trkpt lat="44.76034" lon="-0.31301">
        <ele>111</ele>
        <time>2013-07-28T16:02:50Z</time>
      </trkpt>
      <trkpt lat="44.76026" lon="-0.31358">
        <ele>110</ele>
        <time>2013-07-28T16:02:57Z</time>
      </trkpt>
      <trkpt lat="44.76023" lon="-0.31363">
        <ele>110</ele>
        <time>2013-07-28T16:02:58Z</time>
      </trkpt>
      <trkpt lat="44.76019" lon="-0.31367">
        <ele>110</ele>
        <time>2013-07-28T16:02:59Z</time>
      </trkpt>
      <trkpt lat="44.76015" lon="-0.31368">
        <ele>110</ele>
        <time>2013-07-28T16:03:00Z</time>
      </trkpt>
      <trkpt lat="44.76009" lon="-0.31368">
        <ele>110</ele>
        <time>2013-07-28T16:03:01Z</time>
      </trkpt>
      <trkpt lat="44.76003" lon="-0.31368">
        <ele>110</ele>
        <time>2013-07-28T16:03:02Z</time>
      </trkpt>
      <trkpt lat="44.75997" lon="-0.31366">
        <ele>110</ele>
        <time>2013-07-28T16:03:03Z</time>
      </trkpt>
      <trkpt lat="44.75941" lon="-0.31357">
        <ele>110</ele>
        <time>2013-07-28T16:03:12Z</time>
      </trkpt>
      <trkpt lat="44.7589" lon="-0.31347">
        <ele>110</ele>
        <time>2013-07-28T16:03:19Z</time>
      </trkpt>
      <trkpt lat="44.7582" lon="-0.31336">
        <ele>108</ele>
        <time>2013-07-28T16:03:28Z</time>
      </trkpt>
      <trkpt lat="44.75754" lon="-0.31324">
        <ele>105</ele>
        <time>2013-07-28T16:03:36Z</time>
      </trkpt>
      <trkpt lat="44.7568" lon="-0.31313">
        <ele>103</ele>
        <time>2013-07-28T16:03:44Z</time>
      </trkpt>
      <trkpt lat="44.75655" lon="-0.3131">
        <ele>102</ele>
        <time>2013-07-28T16:03:47Z</time>
      </trkpt>
      <trkpt lat="44.75646" lon="-0.31307">
        <ele>102</ele>
        <time>2013-07-28T16:03:48Z</time>
      </trkpt>
      <trkpt lat="44.75637" lon="-0.31302">
        <ele>102</ele>
        <time>2013-07-28T16:03:49Z</time>
      </trkpt>
      <trkpt lat="44.75592" lon="-0.31279">
        <ele>102</ele>
        <time>2013-07-28T16:03:55Z</time>
      </trkpt>
      <trkpt lat="44.75569" lon="-0.31271">
        <ele>102</ele>
        <time>2013-07-28T16:03:59Z</time>
      </trkpt>
      <trkpt lat="44.75565" lon="-0.3127">
        <ele>102</ele>
        <time>2013-07-28T16:04:00Z</time>
      </trkpt>
      <trkpt lat="44.75561" lon="-0.31267">
        <ele>102</ele>
        <time>2013-07-28T16:04:01Z</time>
      </trkpt>
      <trkpt lat="44.75559" lon="-0.31263">
        <ele>103</ele>
        <time>2013-07-28T16:04:02Z</time>
      </trkpt>
      <trkpt lat="44.75554" lon="-0.31246">
        <ele>103</ele>
        <time>2013-07-28T16:04:06Z</time>
      </trkpt>
      <trkpt lat="44.75543" lon="-0.31245">
        <ele>102</ele>
        <time>2013-07-28T16:04:09Z</time>
      </trkpt>
      <trkpt lat="44.75538" lon="-0.31245">
        <ele>102</ele>
        <time>2013-07-28T16:04:10Z</time>
      </trkpt>
      <trkpt lat="44.75529" lon="-0.31245">
        <ele>102</ele>
        <time>2013-07-28T16:04:14Z</time>
      </trkpt>
      <trkpt lat="44.75525" lon="-0.31245">
        <ele>102</ele>
        <time>2013-07-28T16:04:16Z</time>
      </trkpt>
      <trkpt lat="44.75524" lon="-0.31244">
        <ele>102</ele>
        <time>2013-07-28T16:04:17Z</time>
      </trkpt>
      <trkpt lat="44.75522" lon="-0.31244">
        <ele>101</ele>
        <time>2013-07-28T16:04:18Z</time>
      </trkpt>
      <trkpt lat="44.75521" lon="-0.31242">
        <ele>101</ele>
        <time>2013-07-28T16:04:23Z</time>
      </trkpt>
      <trkpt lat="44.7552" lon="-0.31244">
        <ele>101</ele>
        <time>2013-07-28T16:04:30Z</time>
      </trkpt>
      <trkpt lat="44.75519" lon="-0.31244">
        <ele>101</ele>
        <time>2013-07-28T16:04:37Z</time>
      </trkpt>
      <trkpt lat="44.75518" lon="-0.31243">
        <ele>101</ele>
        <time>2013-07-28T16:04:53Z</time>
      </trkpt>
      <trkpt lat="44.75516" lon="-0.31243">
        <ele>101</ele>
        <time>2013-07-28T16:05:11Z</time>
      </trkpt>
      <trkpt lat="44.75517" lon="-0.31242">
        <ele>101</ele>
        <time>2013-07-28T16:05:28Z</time>
      </trkpt>
      <trkpt lat="44.75517" lon="-0.31243">
        <ele>101</ele>
        <time>2013-07-28T16:05:51Z</time>
      </trkpt>
      <trkpt lat="44.75517" lon="-0.31243">
        <ele>101</ele>
        <time>2013-07-28T16:06:07Z</time>
      </trkpt>
      <trkpt lat="44.75517" lon="-0.31243">
        <ele>101</ele>
        <time>2013-07-28T16:06:25Z</time>
      </trkpt>
      <trkpt lat="44.75517" lon="-0.31243">
        <ele>101</ele>
        <time>2013-07-28T16:06:26Z</time>
      </trkpt>
      <trkpt lat="44.75518" lon="-0.31241">
        <ele>101</ele>
        <time>2013-07-28T16:06:31Z</time>
      </trkpt>
      <trkpt lat="44.75518" lon="-0.31243">
        <ele>101</ele>
        <time>2013-07-28T16:06:38Z</time>
      </trkpt>
      <trkpt lat="44.75519" lon="-0.31243">
        <ele>101</ele>
        <time>2013-07-28T16:06:50Z</time>
      </trkpt>
      <trkpt lat="44.75519" lon="-0.31243">
        <ele>101</ele>
        <time>2013-07-28T16:07:00Z</time>
      </trkpt>
      <trkpt lat="44.75518" lon="-0.31244">
        <ele>101</ele>
        <time>2013-07-28T16:07:06Z</time>
      </trkpt>
      <trkpt lat="44.75518" lon="-0.31245">
        <ele>101</ele>
        <time>2013-07-28T16:07:14Z</time>
      </trkpt>
      <trkpt lat="44.75519" lon="-0.31245">
        <ele>101</ele>
        <time>2013-07-28T16:07:25Z</time>
      </trkpt>
      <trkpt lat="44.75519" lon="-0.31246">
        <ele>101</ele>
        <time>2013-07-28T16:07:38Z</time>
      </trkpt>
      <trkpt lat="44.75519" lon="-0.31243">
        <ele>101</ele>
        <time>2013-07-28T16:07:47Z</time>
      </trkpt>
      <trkpt lat="44.75521" lon="-0.31238">
        <ele>101</ele>
        <time>2013-07-28T16:07:52Z</time>
      </trkpt>
      <trkpt lat="44.75522" lon="-0.31233">
        <ele>101</ele>
        <time>2013-07-28T16:07:59Z</time>
      </trkpt>
      <trkpt lat="44.75522" lon="-0.31233">
        <ele>101</ele>
        <time>2013-07-28T16:08:05Z</time>
      </trkpt>
    </trkseg>
  </trk>
</gpx>